<?xml version="1.0" encoding="utf-8"?>
<gpx xmlns:xsi="http://www.w3.org/2001/XMLSchema-instance" xmlns:xsd="http://www.w3.org/2001/XMLSchema" version="1.1" creator="Shapelink.com" xmlns="http://www.topografix.com/GPX/1/1" xmlns:gpxtpx="http://www.garmin.com/xmlschemas/TrackPointExtension/v1">
  <metadata>
    <name>Gåing 2.98 km, 2014-06-24</name>
    <desc></desc>
    <author><name>Mikael Blom</name></author> 
    <time>2014-06-24T18:39:10Z</time>
  </metadata>
  <trk>
    <name>Gåing 2.98 km, 2014-06-24</name>
    <trkseg>
      <trkpt lat="59.9553386" lon="17.7150234">
        <ele>51.0872</ele>
        <time>2014-06-24T18:39:10Z</time>
      </trkpt>
      <trkpt lat="59.9553329" lon="17.7150133">
        <ele>51.0872</ele>
        <time>2014-06-24T18:39:11Z</time>
      </trkpt>
      <trkpt lat="59.9553247" lon="17.7149914">
        <ele>51.0872</ele>
        <time>2014-06-24T18:39:12Z</time>
      </trkpt>
      <trkpt lat="59.955317" lon="17.714969">
        <ele>50.126</ele>
        <time>2014-06-24T18:39:13Z</time>
      </trkpt>
      <trkpt lat="59.955308" lon="17.7149415">
        <ele>49.6453</ele>
        <time>2014-06-24T18:39:14Z</time>
      </trkpt>
      <trkpt lat="59.9552997" lon="17.7149105">
        <ele>49.6453</ele>
        <time>2014-06-24T18:39:15Z</time>
      </trkpt>
      <trkpt lat="59.9552888" lon="17.7148828">
        <ele>49.1646</ele>
        <time>2014-06-24T18:39:16Z</time>
      </trkpt>
      <trkpt lat="59.9552812" lon="17.714854">
        <ele>49.1646</ele>
        <time>2014-06-24T18:39:17Z</time>
      </trkpt>
      <trkpt lat="59.9552766" lon="17.7148292">
        <ele>48.684</ele>
        <time>2014-06-24T18:39:18Z</time>
      </trkpt>
      <trkpt lat="59.9552713" lon="17.7148037">
        <ele>48.2034</ele>
        <time>2014-06-24T18:39:19Z</time>
      </trkpt>
      <trkpt lat="59.9552641" lon="17.7147746">
        <ele>47.7225</ele>
        <time>2014-06-24T18:39:20Z</time>
      </trkpt>
      <trkpt lat="59.9552609" lon="17.7147487">
        <ele>47.7225</ele>
        <time>2014-06-24T18:39:21Z</time>
      </trkpt>
      <trkpt lat="59.9552536" lon="17.7147236">
        <ele>47.2418</ele>
        <time>2014-06-24T18:39:22Z</time>
      </trkpt>
      <trkpt lat="59.955251" lon="17.7147033">
        <ele>47.2418</ele>
        <time>2014-06-24T18:39:23Z</time>
      </trkpt>
      <trkpt lat="59.95525" lon="17.7146814">
        <ele>46.7612</ele>
        <time>2014-06-24T18:39:24Z</time>
      </trkpt>
      <trkpt lat="59.9552516" lon="17.7146585">
        <ele>46.2806</ele>
        <time>2014-06-24T18:39:25Z</time>
      </trkpt>
      <trkpt lat="59.9552547" lon="17.714636">
        <ele>46.2806</ele>
        <time>2014-06-24T18:39:26Z</time>
      </trkpt>
      <trkpt lat="59.9552519" lon="17.7146103">
        <ele>45.7999</ele>
        <time>2014-06-24T18:39:27Z</time>
      </trkpt>
      <trkpt lat="59.9552483" lon="17.7145866">
        <ele>45.3192</ele>
        <time>2014-06-24T18:39:28Z</time>
      </trkpt>
      <trkpt lat="59.9552432" lon="17.7145621">
        <ele>44.8386</ele>
        <time>2014-06-24T18:39:29Z</time>
      </trkpt>
      <trkpt lat="59.9552395" lon="17.7145406">
        <ele>44.358</ele>
        <time>2014-06-24T18:39:30Z</time>
      </trkpt>
      <trkpt lat="59.9552381" lon="17.7145186">
        <ele>44.358</ele>
        <time>2014-06-24T18:39:31Z</time>
      </trkpt>
      <trkpt lat="59.9552382" lon="17.7144971">
        <ele>43.8773</ele>
        <time>2014-06-24T18:39:32Z</time>
      </trkpt>
      <trkpt lat="59.9552356" lon="17.7144753">
        <ele>43.8773</ele>
        <time>2014-06-24T18:39:33Z</time>
      </trkpt>
      <trkpt lat="59.955234" lon="17.7144525">
        <ele>43.8773</ele>
        <time>2014-06-24T18:39:34Z</time>
      </trkpt>
      <trkpt lat="59.9552326" lon="17.7144321">
        <ele>43.8773</ele>
        <time>2014-06-24T18:39:35Z</time>
      </trkpt>
      <trkpt lat="59.9552251" lon="17.7144112">
        <ele>43.3966</ele>
        <time>2014-06-24T18:39:36Z</time>
      </trkpt>
      <trkpt lat="59.9552183" lon="17.7143873">
        <ele>43.3966</ele>
        <time>2014-06-24T18:39:37Z</time>
      </trkpt>
      <trkpt lat="59.9552113" lon="17.7143625">
        <ele>43.3966</ele>
        <time>2014-06-24T18:39:38Z</time>
      </trkpt>
      <trkpt lat="59.955206" lon="17.7143395">
        <ele>43.3966</ele>
        <time>2014-06-24T18:39:39Z</time>
      </trkpt>
      <trkpt lat="59.9552024" lon="17.7143097">
        <ele>42.916</ele>
        <time>2014-06-24T18:39:40Z</time>
      </trkpt>
      <trkpt lat="59.9552015" lon="17.71428">
        <ele>42.916</ele>
        <time>2014-06-24T18:39:41Z</time>
      </trkpt>
      <trkpt lat="59.9552017" lon="17.7142576">
        <ele>42.4354</ele>
        <time>2014-06-24T18:39:42Z</time>
      </trkpt>
      <trkpt lat="59.9551986" lon="17.7142379">
        <ele>41.474</ele>
        <time>2014-06-24T18:39:43Z</time>
      </trkpt>
      <trkpt lat="59.9551967" lon="17.7142158">
        <ele>41.9547</ele>
        <time>2014-06-24T18:39:44Z</time>
      </trkpt>
      <trkpt lat="59.9551916" lon="17.7141996">
        <ele>41.474</ele>
        <time>2014-06-24T18:39:45Z</time>
      </trkpt>
      <trkpt lat="59.9551838" lon="17.7141832">
        <ele>40.9934</ele>
        <time>2014-06-24T18:39:46Z</time>
      </trkpt>
      <trkpt lat="59.955174" lon="17.7141664">
        <ele>40.9934</ele>
        <time>2014-06-24T18:39:47Z</time>
      </trkpt>
      <trkpt lat="59.9551663" lon="17.7141525">
        <ele>40.5128</ele>
        <time>2014-06-24T18:39:48Z</time>
      </trkpt>
      <trkpt lat="59.9551552" lon="17.7141485">
        <ele>40.0321</ele>
        <time>2014-06-24T18:39:49Z</time>
      </trkpt>
      <trkpt lat="59.9551412" lon="17.7141551">
        <ele>39.5513</ele>
        <time>2014-06-24T18:39:50Z</time>
      </trkpt>
      <trkpt lat="59.955132" lon="17.7141666">
        <ele>40.0321</ele>
        <time>2014-06-24T18:39:51Z</time>
      </trkpt>
      <trkpt lat="59.9551236" lon="17.7141814">
        <ele>40.0321</ele>
        <time>2014-06-24T18:39:52Z</time>
      </trkpt>
      <trkpt lat="59.9551154" lon="17.7142033">
        <ele>40.0321</ele>
        <time>2014-06-24T18:39:53Z</time>
      </trkpt>
      <trkpt lat="59.9551118" lon="17.7142268">
        <ele>40.0321</ele>
        <time>2014-06-24T18:39:54Z</time>
      </trkpt>
      <trkpt lat="59.9551084" lon="17.7142516">
        <ele>40.5128</ele>
        <time>2014-06-24T18:39:55Z</time>
      </trkpt>
      <trkpt lat="59.9551066" lon="17.714275">
        <ele>40.0321</ele>
        <time>2014-06-24T18:39:56Z</time>
      </trkpt>
      <trkpt lat="59.9551025" lon="17.714298">
        <ele>40.0321</ele>
        <time>2014-06-24T18:39:57Z</time>
      </trkpt>
      <trkpt lat="59.9550976" lon="17.7143137">
        <ele>40.0321</ele>
        <time>2014-06-24T18:39:58Z</time>
      </trkpt>
      <trkpt lat="59.9550833" lon="17.7143254">
        <ele>39.5513</ele>
        <time>2014-06-24T18:39:59Z</time>
      </trkpt>
      <trkpt lat="59.9550667" lon="17.714333">
        <ele>39.5513</ele>
        <time>2014-06-24T18:40:00Z</time>
      </trkpt>
      <trkpt lat="59.9550563" lon="17.7143358">
        <ele>39.5513</ele>
        <time>2014-06-24T18:40:01Z</time>
      </trkpt>
      <trkpt lat="59.9550442" lon="17.714342">
        <ele>40.0321</ele>
        <time>2014-06-24T18:40:02Z</time>
      </trkpt>
      <trkpt lat="59.9550307" lon="17.714351">
        <ele>39.5513</ele>
        <time>2014-06-24T18:40:03Z</time>
      </trkpt>
      <trkpt lat="59.955019" lon="17.7143608">
        <ele>39.5513</ele>
        <time>2014-06-24T18:40:04Z</time>
      </trkpt>
      <trkpt lat="59.955003" lon="17.7143783">
        <ele>39.0707</ele>
        <time>2014-06-24T18:40:05Z</time>
      </trkpt>
      <trkpt lat="59.9549855" lon="17.7143935">
        <ele>39.0707</ele>
        <time>2014-06-24T18:40:06Z</time>
      </trkpt>
      <trkpt lat="59.9549647" lon="17.7144127">
        <ele>38.5901</ele>
        <time>2014-06-24T18:40:07Z</time>
      </trkpt>
      <trkpt lat="59.9549557" lon="17.714436">
        <ele>38.5901</ele>
        <time>2014-06-24T18:40:08Z</time>
      </trkpt>
      <trkpt lat="59.9549466" lon="17.7144576">
        <ele>39.0707</ele>
        <time>2014-06-24T18:40:09Z</time>
      </trkpt>
      <trkpt lat="59.9549356" lon="17.7144753">
        <ele>39.0707</ele>
        <time>2014-06-24T18:40:10Z</time>
      </trkpt>
      <trkpt lat="59.9549278" lon="17.7144971">
        <ele>39.0707</ele>
        <time>2014-06-24T18:40:11Z</time>
      </trkpt>
      <trkpt lat="59.9549189" lon="17.714522">
        <ele>38.5901</ele>
        <time>2014-06-24T18:40:12Z</time>
      </trkpt>
      <trkpt lat="59.9549109" lon="17.7145509">
        <ele>38.5901</ele>
        <time>2014-06-24T18:40:13Z</time>
      </trkpt>
      <trkpt lat="59.954903" lon="17.7145778">
        <ele>38.1094</ele>
        <time>2014-06-24T18:40:14Z</time>
      </trkpt>
      <trkpt lat="59.9548952" lon="17.714596">
        <ele>38.1094</ele>
        <time>2014-06-24T18:40:15Z</time>
      </trkpt>
      <trkpt lat="59.9548849" lon="17.7146145">
        <ele>39.0707</ele>
        <time>2014-06-24T18:40:16Z</time>
      </trkpt>
      <trkpt lat="59.9548745" lon="17.7146331">
        <ele>39.5513</ele>
        <time>2014-06-24T18:40:17Z</time>
      </trkpt>
      <trkpt lat="59.9548642" lon="17.7146513">
        <ele>40.0321</ele>
        <time>2014-06-24T18:40:18Z</time>
      </trkpt>
      <trkpt lat="59.954849" lon="17.7146649">
        <ele>40.0321</ele>
        <time>2014-06-24T18:40:19Z</time>
      </trkpt>
      <trkpt lat="59.9548382" lon="17.7146749">
        <ele>40.9934</ele>
        <time>2014-06-24T18:40:20Z</time>
      </trkpt>
      <trkpt lat="59.9548248" lon="17.714683">
        <ele>42.916</ele>
        <time>2014-06-24T18:40:21Z</time>
      </trkpt>
      <trkpt lat="59.9548164" lon="17.7146917">
        <ele>44.8386</ele>
        <time>2014-06-24T18:40:22Z</time>
      </trkpt>
      <trkpt lat="59.9548081" lon="17.7147023">
        <ele>46.2806</ele>
        <time>2014-06-24T18:40:23Z</time>
      </trkpt>
      <trkpt lat="59.9547989" lon="17.7147083">
        <ele>47.7225</ele>
        <time>2014-06-24T18:40:24Z</time>
      </trkpt>
      <trkpt lat="59.9547828" lon="17.7147108">
        <ele>49.1646</ele>
        <time>2014-06-24T18:40:25Z</time>
      </trkpt>
      <trkpt lat="59.9547688" lon="17.7147153">
        <ele>50.126</ele>
        <time>2014-06-24T18:40:26Z</time>
      </trkpt>
      <trkpt lat="59.9547528" lon="17.7147235">
        <ele>50.6066</ele>
        <time>2014-06-24T18:40:27Z</time>
      </trkpt>
      <trkpt lat="59.9547358" lon="17.7147286">
        <ele>51.0872</ele>
        <time>2014-06-24T18:40:28Z</time>
      </trkpt>
      <trkpt lat="59.954723" lon="17.7147353">
        <ele>52.0486</ele>
        <time>2014-06-24T18:40:29Z</time>
      </trkpt>
      <trkpt lat="59.954712" lon="17.7147396">
        <ele>53.0098</ele>
        <time>2014-06-24T18:40:30Z</time>
      </trkpt>
      <trkpt lat="59.9546966" lon="17.7147498">
        <ele>53.0098</ele>
        <time>2014-06-24T18:40:31Z</time>
      </trkpt>
      <trkpt lat="59.9546803" lon="17.7147544">
        <ele>53.0098</ele>
        <time>2014-06-24T18:40:32Z</time>
      </trkpt>
      <trkpt lat="59.9546679" lon="17.7147576">
        <ele>53.0098</ele>
        <time>2014-06-24T18:40:33Z</time>
      </trkpt>
      <trkpt lat="59.954658" lon="17.7147652">
        <ele>53.0098</ele>
        <time>2014-06-24T18:40:34Z</time>
      </trkpt>
      <trkpt lat="59.9546461" lon="17.714769">
        <ele>52.5292</ele>
        <time>2014-06-24T18:40:35Z</time>
      </trkpt>
      <trkpt lat="59.9546295" lon="17.7147727">
        <ele>52.0486</ele>
        <time>2014-06-24T18:40:36Z</time>
      </trkpt>
      <trkpt lat="59.9546123" lon="17.7147758">
        <ele>52.0486</ele>
        <time>2014-06-24T18:40:37Z</time>
      </trkpt>
      <trkpt lat="59.9545948" lon="17.7147784">
        <ele>52.0486</ele>
        <time>2014-06-24T18:40:38Z</time>
      </trkpt>
      <trkpt lat="59.9545741" lon="17.7147723">
        <ele>51.5679</ele>
        <time>2014-06-24T18:40:39Z</time>
      </trkpt>
      <trkpt lat="59.9545469" lon="17.714768">
        <ele>50.126</ele>
        <time>2014-06-24T18:40:40Z</time>
      </trkpt>
      <trkpt lat="59.9545264" lon="17.7147603">
        <ele>50.126</ele>
        <time>2014-06-24T18:40:41Z</time>
      </trkpt>
      <trkpt lat="59.9545097" lon="17.7147586">
        <ele>50.126</ele>
        <time>2014-06-24T18:40:42Z</time>
      </trkpt>
      <trkpt lat="59.9544931" lon="17.7147618">
        <ele>50.126</ele>
        <time>2014-06-24T18:40:43Z</time>
      </trkpt>
      <trkpt lat="59.9544758" lon="17.714766">
        <ele>50.126</ele>
        <time>2014-06-24T18:40:44Z</time>
      </trkpt>
      <trkpt lat="59.9544637" lon="17.7147685">
        <ele>50.6066</ele>
        <time>2014-06-24T18:40:45Z</time>
      </trkpt>
      <trkpt lat="59.954443" lon="17.7147747">
        <ele>49.6453</ele>
        <time>2014-06-24T18:40:46Z</time>
      </trkpt>
      <trkpt lat="59.954428" lon="17.7147865">
        <ele>48.684</ele>
        <time>2014-06-24T18:40:47Z</time>
      </trkpt>
      <trkpt lat="59.9544112" lon="17.7147859">
        <ele>48.2034</ele>
        <time>2014-06-24T18:40:48Z</time>
      </trkpt>
      <trkpt lat="59.9543921" lon="17.7147892">
        <ele>47.7225</ele>
        <time>2014-06-24T18:40:49Z</time>
      </trkpt>
      <trkpt lat="59.9543727" lon="17.7148035">
        <ele>46.7612</ele>
        <time>2014-06-24T18:40:50Z</time>
      </trkpt>
      <trkpt lat="59.9543517" lon="17.7148119">
        <ele>45.3192</ele>
        <time>2014-06-24T18:40:51Z</time>
      </trkpt>
      <trkpt lat="59.9543327" lon="17.7148224">
        <ele>44.358</ele>
        <time>2014-06-24T18:40:52Z</time>
      </trkpt>
      <trkpt lat="59.9543152" lon="17.7148227">
        <ele>44.358</ele>
        <time>2014-06-24T18:40:53Z</time>
      </trkpt>
      <trkpt lat="59.9542942" lon="17.7148183">
        <ele>44.358</ele>
        <time>2014-06-24T18:40:54Z</time>
      </trkpt>
      <trkpt lat="59.9542752" lon="17.7148162">
        <ele>43.8773</ele>
        <time>2014-06-24T18:40:55Z</time>
      </trkpt>
      <trkpt lat="59.9542636" lon="17.714823">
        <ele>43.8773</ele>
        <time>2014-06-24T18:40:56Z</time>
      </trkpt>
      <trkpt lat="59.9542485" lon="17.7148224">
        <ele>45.3192</ele>
        <time>2014-06-24T18:40:57Z</time>
      </trkpt>
      <trkpt lat="59.9542283" lon="17.7148317">
        <ele>45.7999</ele>
        <time>2014-06-24T18:40:58Z</time>
      </trkpt>
      <trkpt lat="59.954201" lon="17.7148357">
        <ele>44.8386</ele>
        <time>2014-06-24T18:40:59Z</time>
      </trkpt>
      <trkpt lat="59.9541812" lon="17.7148385">
        <ele>45.3192</ele>
        <time>2014-06-24T18:41:00Z</time>
      </trkpt>
      <trkpt lat="59.9541608" lon="17.7148427">
        <ele>44.8386</ele>
        <time>2014-06-24T18:41:01Z</time>
      </trkpt>
      <trkpt lat="59.9541429" lon="17.7148409">
        <ele>44.358</ele>
        <time>2014-06-24T18:41:02Z</time>
      </trkpt>
      <trkpt lat="59.9541306" lon="17.714844">
        <ele>45.3192</ele>
        <time>2014-06-24T18:41:03Z</time>
      </trkpt>
      <trkpt lat="59.9541208" lon="17.7148507">
        <ele>46.2806</ele>
        <time>2014-06-24T18:41:04Z</time>
      </trkpt>
      <trkpt lat="59.9541111" lon="17.7148515">
        <ele>47.7225</ele>
        <time>2014-06-24T18:41:05Z</time>
      </trkpt>
      <trkpt lat="59.9541005" lon="17.714855">
        <ele>48.2034</ele>
        <time>2014-06-24T18:41:06Z</time>
      </trkpt>
      <trkpt lat="59.9540964" lon="17.7148671">
        <ele>50.126</ele>
        <time>2014-06-24T18:41:07Z</time>
      </trkpt>
      <trkpt lat="59.9540909" lon="17.7148748">
        <ele>51.5679</ele>
        <time>2014-06-24T18:41:08Z</time>
      </trkpt>
      <trkpt lat="59.9540838" lon="17.7148773">
        <ele>52.5292</ele>
        <time>2014-06-24T18:41:09Z</time>
      </trkpt>
      <trkpt lat="59.9540711" lon="17.7148792">
        <ele>53.0098</ele>
        <time>2014-06-24T18:41:10Z</time>
      </trkpt>
      <trkpt lat="59.9540529" lon="17.7148869">
        <ele>52.5292</ele>
        <time>2014-06-24T18:41:11Z</time>
      </trkpt>
      <trkpt lat="59.95404" lon="17.7149022">
        <ele>53.0098</ele>
        <time>2014-06-24T18:41:12Z</time>
      </trkpt>
      <trkpt lat="59.9540305" lon="17.714914">
        <ele>53.0098</ele>
        <time>2014-06-24T18:41:13Z</time>
      </trkpt>
      <trkpt lat="59.9540084" lon="17.7149161">
        <ele>52.0486</ele>
        <time>2014-06-24T18:41:14Z</time>
      </trkpt>
      <trkpt lat="59.9539814" lon="17.7149204">
        <ele>50.6066</ele>
        <time>2014-06-24T18:41:15Z</time>
      </trkpt>
      <trkpt lat="59.9539592" lon="17.7149134">
        <ele>51.5679</ele>
        <time>2014-06-24T18:41:16Z</time>
      </trkpt>
      <trkpt lat="59.9539365" lon="17.7149032">
        <ele>52.0486</ele>
        <time>2014-06-24T18:41:17Z</time>
      </trkpt>
      <trkpt lat="59.9539179" lon="17.7148959">
        <ele>52.0486</ele>
        <time>2014-06-24T18:41:18Z</time>
      </trkpt>
      <trkpt lat="59.9539002" lon="17.7148935">
        <ele>51.5679</ele>
        <time>2014-06-24T18:41:19Z</time>
      </trkpt>
      <trkpt lat="59.953888" lon="17.7148924">
        <ele>51.5679</ele>
        <time>2014-06-24T18:41:20Z</time>
      </trkpt>
      <trkpt lat="59.9538769" lon="17.7148949">
        <ele>52.0486</ele>
        <time>2014-06-24T18:41:21Z</time>
      </trkpt>
      <trkpt lat="59.9538643" lon="17.7149006">
        <ele>52.0486</ele>
        <time>2014-06-24T18:41:22Z</time>
      </trkpt>
      <trkpt lat="59.9538453" lon="17.7149032">
        <ele>51.5679</ele>
        <time>2014-06-24T18:41:23Z</time>
      </trkpt>
      <trkpt lat="59.9538343" lon="17.71491">
        <ele>50.6066</ele>
        <time>2014-06-24T18:41:24Z</time>
      </trkpt>
      <trkpt lat="59.9538265" lon="17.7149168">
        <ele>50.126</ele>
        <time>2014-06-24T18:41:25Z</time>
      </trkpt>
      <trkpt lat="59.9538085" lon="17.7149193">
        <ele>49.6453</ele>
        <time>2014-06-24T18:41:26Z</time>
      </trkpt>
      <trkpt lat="59.9537898" lon="17.7149204">
        <ele>49.1646</ele>
        <time>2014-06-24T18:41:27Z</time>
      </trkpt>
      <trkpt lat="59.9537716" lon="17.7149256">
        <ele>48.2034</ele>
        <time>2014-06-24T18:41:28Z</time>
      </trkpt>
      <trkpt lat="59.9537564" lon="17.7149331">
        <ele>47.2418</ele>
        <time>2014-06-24T18:41:29Z</time>
      </trkpt>
      <trkpt lat="59.9537375" lon="17.7149483">
        <ele>44.8386</ele>
        <time>2014-06-24T18:41:30Z</time>
      </trkpt>
      <trkpt lat="59.9537147" lon="17.7149571">
        <ele>42.916</ele>
        <time>2014-06-24T18:41:31Z</time>
      </trkpt>
      <trkpt lat="59.9537049" lon="17.7149611">
        <ele>43.3966</ele>
        <time>2014-06-24T18:41:32Z</time>
      </trkpt>
      <trkpt lat="59.953692" lon="17.7149617">
        <ele>42.916</ele>
        <time>2014-06-24T18:41:33Z</time>
      </trkpt>
      <trkpt lat="59.9536844" lon="17.7149648">
        <ele>43.3966</ele>
        <time>2014-06-24T18:41:34Z</time>
      </trkpt>
      <trkpt lat="59.9536805" lon="17.7149726">
        <ele>44.8386</ele>
        <time>2014-06-24T18:41:35Z</time>
      </trkpt>
      <trkpt lat="59.953665" lon="17.7149794">
        <ele>44.358</ele>
        <time>2014-06-24T18:41:36Z</time>
      </trkpt>
      <trkpt lat="59.9536551" lon="17.714984">
        <ele>44.8386</ele>
        <time>2014-06-24T18:41:37Z</time>
      </trkpt>
      <trkpt lat="59.9536464" lon="17.7149898">
        <ele>45.7999</ele>
        <time>2014-06-24T18:41:38Z</time>
      </trkpt>
      <trkpt lat="59.9536365" lon="17.7149994">
        <ele>46.2806</ele>
        <time>2014-06-24T18:41:39Z</time>
      </trkpt>
      <trkpt lat="59.9536161" lon="17.7150072">
        <ele>44.8386</ele>
        <time>2014-06-24T18:41:40Z</time>
      </trkpt>
      <trkpt lat="59.9535957" lon="17.7150186">
        <ele>42.916</ele>
        <time>2014-06-24T18:41:41Z</time>
      </trkpt>
      <trkpt lat="59.9535837" lon="17.7150214">
        <ele>42.4354</ele>
        <time>2014-06-24T18:41:42Z</time>
      </trkpt>
      <trkpt lat="59.9535749" lon="17.7150264">
        <ele>42.916</ele>
        <time>2014-06-24T18:41:43Z</time>
      </trkpt>
      <trkpt lat="59.9535582" lon="17.7150296">
        <ele>41.9547</ele>
        <time>2014-06-24T18:41:44Z</time>
      </trkpt>
      <trkpt lat="59.9535464" lon="17.7150374">
        <ele>41.9547</ele>
        <time>2014-06-24T18:41:45Z</time>
      </trkpt>
      <trkpt lat="59.9535452" lon="17.7150359">
        <ele>43.3966</ele>
        <time>2014-06-24T18:41:46Z</time>
      </trkpt>
      <trkpt lat="59.9535399" lon="17.7150382">
        <ele>44.8386</ele>
        <time>2014-06-24T18:41:47Z</time>
      </trkpt>
      <trkpt lat="59.9535261" lon="17.7150551">
        <ele>44.358</ele>
        <time>2014-06-24T18:41:48Z</time>
      </trkpt>
      <trkpt lat="59.9535143" lon="17.7150774">
        <ele>44.358</ele>
        <time>2014-06-24T18:41:49Z</time>
      </trkpt>
      <trkpt lat="59.9535012" lon="17.715098">
        <ele>43.8773</ele>
        <time>2014-06-24T18:41:50Z</time>
      </trkpt>
      <trkpt lat="59.9534852" lon="17.7151133">
        <ele>43.8773</ele>
        <time>2014-06-24T18:41:51Z</time>
      </trkpt>
      <trkpt lat="59.9534758" lon="17.7151318">
        <ele>43.8773</ele>
        <time>2014-06-24T18:41:52Z</time>
      </trkpt>
      <trkpt lat="59.9534774" lon="17.7151456">
        <ele>46.2806</ele>
        <time>2014-06-24T18:41:53Z</time>
      </trkpt>
      <trkpt lat="59.9534691" lon="17.7151631">
        <ele>45.7999</ele>
        <time>2014-06-24T18:41:54Z</time>
      </trkpt>
      <trkpt lat="59.9534712" lon="17.7151819">
        <ele>48.684</ele>
        <time>2014-06-24T18:41:55Z</time>
      </trkpt>
      <trkpt lat="59.9534693" lon="17.7151959">
        <ele>51.0872</ele>
        <time>2014-06-24T18:41:56Z</time>
      </trkpt>
      <trkpt lat="59.953461" lon="17.7152181">
        <ele>51.5679</ele>
        <time>2014-06-24T18:41:57Z</time>
      </trkpt>
      <trkpt lat="59.9534586" lon="17.7152441">
        <ele>53.9712</ele>
        <time>2014-06-24T18:41:58Z</time>
      </trkpt>
      <trkpt lat="59.9534505" lon="17.7152679">
        <ele>54.9324</ele>
        <time>2014-06-24T18:41:59Z</time>
      </trkpt>
      <trkpt lat="59.9534464" lon="17.7152944">
        <ele>56.8551</ele>
        <time>2014-06-24T18:42:00Z</time>
      </trkpt>
      <trkpt lat="59.9534439" lon="17.7153192">
        <ele>58.7777</ele>
        <time>2014-06-24T18:42:01Z</time>
      </trkpt>
      <trkpt lat="59.9534257" lon="17.715344">
        <ele>56.3745</ele>
        <time>2014-06-24T18:42:02Z</time>
      </trkpt>
      <trkpt lat="59.9534061" lon="17.7153633">
        <ele>53.9712</ele>
        <time>2014-06-24T18:42:03Z</time>
      </trkpt>
      <trkpt lat="59.953393" lon="17.7153794">
        <ele>53.0098</ele>
        <time>2014-06-24T18:42:04Z</time>
      </trkpt>
      <trkpt lat="59.9533789" lon="17.7153947">
        <ele>51.5679</ele>
        <time>2014-06-24T18:42:05Z</time>
      </trkpt>
      <trkpt lat="59.9533635" lon="17.7154119">
        <ele>50.6066</ele>
        <time>2014-06-24T18:42:06Z</time>
      </trkpt>
      <trkpt lat="59.9533536" lon="17.7154279">
        <ele>50.126</ele>
        <time>2014-06-24T18:42:07Z</time>
      </trkpt>
      <trkpt lat="59.9533443" lon="17.715443">
        <ele>49.6453</ele>
        <time>2014-06-24T18:42:08Z</time>
      </trkpt>
      <trkpt lat="59.9533327" lon="17.715463">
        <ele>48.684</ele>
        <time>2014-06-24T18:42:09Z</time>
      </trkpt>
      <trkpt lat="59.9533169" lon="17.7154864">
        <ele>47.7225</ele>
        <time>2014-06-24T18:42:10Z</time>
      </trkpt>
      <trkpt lat="59.9533044" lon="17.7155003">
        <ele>46.7612</ele>
        <time>2014-06-24T18:42:11Z</time>
      </trkpt>
      <trkpt lat="59.9532898" lon="17.7155177">
        <ele>46.2806</ele>
        <time>2014-06-24T18:42:12Z</time>
      </trkpt>
      <trkpt lat="59.9532728" lon="17.7155345">
        <ele>45.7999</ele>
        <time>2014-06-24T18:42:13Z</time>
      </trkpt>
      <trkpt lat="59.9532557" lon="17.7155469">
        <ele>45.7999</ele>
        <time>2014-06-24T18:42:14Z</time>
      </trkpt>
      <trkpt lat="59.9532386" lon="17.7155596">
        <ele>45.3192</ele>
        <time>2014-06-24T18:42:15Z</time>
      </trkpt>
      <trkpt lat="59.9532221" lon="17.7155807">
        <ele>44.8386</ele>
        <time>2014-06-24T18:42:16Z</time>
      </trkpt>
      <trkpt lat="59.9532101" lon="17.7156003">
        <ele>44.358</ele>
        <time>2014-06-24T18:42:17Z</time>
      </trkpt>
      <trkpt lat="59.9531982" lon="17.715617">
        <ele>44.358</ele>
        <time>2014-06-24T18:42:18Z</time>
      </trkpt>
      <trkpt lat="59.9531856" lon="17.715633">
        <ele>44.358</ele>
        <time>2014-06-24T18:42:19Z</time>
      </trkpt>
      <trkpt lat="59.9531754" lon="17.7156443">
        <ele>43.8773</ele>
        <time>2014-06-24T18:42:20Z</time>
      </trkpt>
      <trkpt lat="59.953163" lon="17.7156631">
        <ele>43.8773</ele>
        <time>2014-06-24T18:42:21Z</time>
      </trkpt>
      <trkpt lat="59.9531505" lon="17.7156819">
        <ele>43.8773</ele>
        <time>2014-06-24T18:42:22Z</time>
      </trkpt>
      <trkpt lat="59.9531376" lon="17.715695">
        <ele>44.358</ele>
        <time>2014-06-24T18:42:23Z</time>
      </trkpt>
      <trkpt lat="59.9531318" lon="17.7157189">
        <ele>44.8386</ele>
        <time>2014-06-24T18:42:24Z</time>
      </trkpt>
      <trkpt lat="59.9531227" lon="17.7157372">
        <ele>45.3192</ele>
        <time>2014-06-24T18:42:25Z</time>
      </trkpt>
      <trkpt lat="59.9531128" lon="17.7157543">
        <ele>44.8386</ele>
        <time>2014-06-24T18:42:26Z</time>
      </trkpt>
      <trkpt lat="59.9531019" lon="17.7157745">
        <ele>44.358</ele>
        <time>2014-06-24T18:42:27Z</time>
      </trkpt>
      <trkpt lat="59.9530924" lon="17.7157986">
        <ele>44.358</ele>
        <time>2014-06-24T18:42:28Z</time>
      </trkpt>
      <trkpt lat="59.9530861" lon="17.7158247">
        <ele>44.358</ele>
        <time>2014-06-24T18:42:29Z</time>
      </trkpt>
      <trkpt lat="59.9530806" lon="17.715861">
        <ele>43.3966</ele>
        <time>2014-06-24T18:42:30Z</time>
      </trkpt>
      <trkpt lat="59.9530677" lon="17.7158935">
        <ele>43.3966</ele>
        <time>2014-06-24T18:42:31Z</time>
      </trkpt>
      <trkpt lat="59.9530594" lon="17.7159185">
        <ele>43.3966</ele>
        <time>2014-06-24T18:42:32Z</time>
      </trkpt>
      <trkpt lat="59.9530517" lon="17.7159432">
        <ele>43.3966</ele>
        <time>2014-06-24T18:42:33Z</time>
      </trkpt>
      <trkpt lat="59.953047" lon="17.7159803">
        <ele>44.8386</ele>
        <time>2014-06-24T18:42:34Z</time>
      </trkpt>
      <trkpt lat="59.9530422" lon="17.7160175">
        <ele>45.7999</ele>
        <time>2014-06-24T18:42:35Z</time>
      </trkpt>
      <trkpt lat="59.9530393" lon="17.7160459">
        <ele>46.2806</ele>
        <time>2014-06-24T18:42:36Z</time>
      </trkpt>
      <trkpt lat="59.9530329" lon="17.7160742">
        <ele>46.2806</ele>
        <time>2014-06-24T18:42:37Z</time>
      </trkpt>
      <trkpt lat="59.9530251" lon="17.7161054">
        <ele>46.2806</ele>
        <time>2014-06-24T18:42:38Z</time>
      </trkpt>
      <trkpt lat="59.9530186" lon="17.7161319">
        <ele>46.2806</ele>
        <time>2014-06-24T18:42:39Z</time>
      </trkpt>
      <trkpt lat="59.9530129" lon="17.7161571">
        <ele>46.2806</ele>
        <time>2014-06-24T18:42:40Z</time>
      </trkpt>
      <trkpt lat="59.9530071" lon="17.7161869">
        <ele>45.7999</ele>
        <time>2014-06-24T18:42:41Z</time>
      </trkpt>
      <trkpt lat="59.9530007" lon="17.7162182">
        <ele>45.3192</ele>
        <time>2014-06-24T18:42:42Z</time>
      </trkpt>
      <trkpt lat="59.9529937" lon="17.7162474">
        <ele>45.3192</ele>
        <time>2014-06-24T18:42:43Z</time>
      </trkpt>
      <trkpt lat="59.95299" lon="17.7162779">
        <ele>45.7999</ele>
        <time>2014-06-24T18:42:44Z</time>
      </trkpt>
      <trkpt lat="59.9529805" lon="17.7163038">
        <ele>45.7999</ele>
        <time>2014-06-24T18:42:45Z</time>
      </trkpt>
      <trkpt lat="59.9529734" lon="17.7163372">
        <ele>45.3192</ele>
        <time>2014-06-24T18:42:46Z</time>
      </trkpt>
      <trkpt lat="59.952967" lon="17.7163702">
        <ele>45.3192</ele>
        <time>2014-06-24T18:42:47Z</time>
      </trkpt>
      <trkpt lat="59.9529639" lon="17.7164003">
        <ele>45.7999</ele>
        <time>2014-06-24T18:42:48Z</time>
      </trkpt>
      <trkpt lat="59.952963" lon="17.7164303">
        <ele>46.7612</ele>
        <time>2014-06-24T18:42:49Z</time>
      </trkpt>
      <trkpt lat="59.9529548" lon="17.7164602">
        <ele>47.7225</ele>
        <time>2014-06-24T18:42:50Z</time>
      </trkpt>
      <trkpt lat="59.9529483" lon="17.7164935">
        <ele>48.2034</ele>
        <time>2014-06-24T18:42:51Z</time>
      </trkpt>
      <trkpt lat="59.9529455" lon="17.7165324">
        <ele>49.6453</ele>
        <time>2014-06-24T18:42:52Z</time>
      </trkpt>
      <trkpt lat="59.9529429" lon="17.7165731">
        <ele>51.0872</ele>
        <time>2014-06-24T18:42:53Z</time>
      </trkpt>
      <trkpt lat="59.9529403" lon="17.716609">
        <ele>50.6066</ele>
        <time>2014-06-24T18:42:54Z</time>
      </trkpt>
      <trkpt lat="59.9529422" lon="17.7166453">
        <ele>51.5679</ele>
        <time>2014-06-24T18:42:55Z</time>
      </trkpt>
      <trkpt lat="59.9529408" lon="17.716683">
        <ele>51.0872</ele>
        <time>2014-06-24T18:42:56Z</time>
      </trkpt>
      <trkpt lat="59.9529392" lon="17.7167191">
        <ele>50.6066</ele>
        <time>2014-06-24T18:42:57Z</time>
      </trkpt>
      <trkpt lat="59.9529381" lon="17.7167526">
        <ele>51.0872</ele>
        <time>2014-06-24T18:42:58Z</time>
      </trkpt>
      <trkpt lat="59.9529397" lon="17.7167842">
        <ele>51.5679</ele>
        <time>2014-06-24T18:42:59Z</time>
      </trkpt>
      <trkpt lat="59.9529408" lon="17.7168245">
        <ele>52.0486</ele>
        <time>2014-06-24T18:43:00Z</time>
      </trkpt>
      <trkpt lat="59.9529381" lon="17.716866">
        <ele>52.5292</ele>
        <time>2014-06-24T18:43:01Z</time>
      </trkpt>
      <trkpt lat="59.9529388" lon="17.7169017">
        <ele>51.5679</ele>
        <time>2014-06-24T18:43:02Z</time>
      </trkpt>
      <trkpt lat="59.9529375" lon="17.7169363">
        <ele>51.5679</ele>
        <time>2014-06-24T18:43:03Z</time>
      </trkpt>
      <trkpt lat="59.9529361" lon="17.7169788">
        <ele>53.0098</ele>
        <time>2014-06-24T18:43:04Z</time>
      </trkpt>
      <trkpt lat="59.952931" lon="17.7170209">
        <ele>53.9712</ele>
        <time>2014-06-24T18:43:05Z</time>
      </trkpt>
      <trkpt lat="59.9529277" lon="17.7170638">
        <ele>56.3745</ele>
        <time>2014-06-24T18:43:06Z</time>
      </trkpt>
      <trkpt lat="59.9529252" lon="17.7171005">
        <ele>57.8165</ele>
        <time>2014-06-24T18:43:07Z</time>
      </trkpt>
      <trkpt lat="59.9529178" lon="17.7171327">
        <ele>57.3358</ele>
        <time>2014-06-24T18:43:08Z</time>
      </trkpt>
      <trkpt lat="59.9529095" lon="17.7171686">
        <ele>57.3358</ele>
        <time>2014-06-24T18:43:09Z</time>
      </trkpt>
      <trkpt lat="59.9529024" lon="17.7172014">
        <ele>57.3358</ele>
        <time>2014-06-24T18:43:10Z</time>
      </trkpt>
      <trkpt lat="59.9528927" lon="17.7172332">
        <ele>57.3358</ele>
        <time>2014-06-24T18:43:11Z</time>
      </trkpt>
      <trkpt lat="59.9528811" lon="17.7172638">
        <ele>57.8165</ele>
        <time>2014-06-24T18:43:12Z</time>
      </trkpt>
      <trkpt lat="59.9528727" lon="17.7172896">
        <ele>57.8165</ele>
        <time>2014-06-24T18:43:13Z</time>
      </trkpt>
      <trkpt lat="59.9528651" lon="17.7173159">
        <ele>56.3745</ele>
        <time>2014-06-24T18:43:14Z</time>
      </trkpt>
      <trkpt lat="59.9528631" lon="17.7173424">
        <ele>56.8551</ele>
        <time>2014-06-24T18:43:15Z</time>
      </trkpt>
      <trkpt lat="59.9528577" lon="17.7173679">
        <ele>55.8938</ele>
        <time>2014-06-24T18:43:16Z</time>
      </trkpt>
      <trkpt lat="59.9528542" lon="17.7173998">
        <ele>55.4131</ele>
        <time>2014-06-24T18:43:17Z</time>
      </trkpt>
      <trkpt lat="59.9528496" lon="17.7174342">
        <ele>55.8938</ele>
        <time>2014-06-24T18:43:18Z</time>
      </trkpt>
      <trkpt lat="59.9528439" lon="17.7174649">
        <ele>54.9324</ele>
        <time>2014-06-24T18:43:19Z</time>
      </trkpt>
      <trkpt lat="59.9528382" lon="17.7174953">
        <ele>53.9712</ele>
        <time>2014-06-24T18:43:20Z</time>
      </trkpt>
      <trkpt lat="59.9528304" lon="17.7175171">
        <ele>53.4905</ele>
        <time>2014-06-24T18:43:21Z</time>
      </trkpt>
      <trkpt lat="59.9528201" lon="17.7175357">
        <ele>53.0098</ele>
        <time>2014-06-24T18:43:22Z</time>
      </trkpt>
      <trkpt lat="59.9528092" lon="17.7175526">
        <ele>52.0486</ele>
        <time>2014-06-24T18:43:23Z</time>
      </trkpt>
      <trkpt lat="59.9527997" lon="17.7175756">
        <ele>51.5679</ele>
        <time>2014-06-24T18:43:24Z</time>
      </trkpt>
      <trkpt lat="59.9527782" lon="17.7175916">
        <ele>52.0486</ele>
        <time>2014-06-24T18:43:25Z</time>
      </trkpt>
      <trkpt lat="59.9527679" lon="17.7176134">
        <ele>52.0486</ele>
        <time>2014-06-24T18:43:26Z</time>
      </trkpt>
      <trkpt lat="59.9527526" lon="17.7176334">
        <ele>51.5679</ele>
        <time>2014-06-24T18:43:27Z</time>
      </trkpt>
      <trkpt lat="59.9527424" lon="17.7176576">
        <ele>51.5679</ele>
        <time>2014-06-24T18:43:28Z</time>
      </trkpt>
      <trkpt lat="59.9527342" lon="17.7176812">
        <ele>51.0872</ele>
        <time>2014-06-24T18:43:29Z</time>
      </trkpt>
      <trkpt lat="59.9527246" lon="17.7176985">
        <ele>51.0872</ele>
        <time>2014-06-24T18:43:30Z</time>
      </trkpt>
      <trkpt lat="59.9527101" lon="17.7177114">
        <ele>51.0872</ele>
        <time>2014-06-24T18:43:31Z</time>
      </trkpt>
      <trkpt lat="59.9526952" lon="17.7177195">
        <ele>51.5679</ele>
        <time>2014-06-24T18:43:32Z</time>
      </trkpt>
      <trkpt lat="59.952678" lon="17.7177414">
        <ele>51.5679</ele>
        <time>2014-06-24T18:43:33Z</time>
      </trkpt>
      <trkpt lat="59.9526671" lon="17.7177625">
        <ele>50.6066</ele>
        <time>2014-06-24T18:43:34Z</time>
      </trkpt>
      <trkpt lat="59.9526563" lon="17.7177937">
        <ele>50.126</ele>
        <time>2014-06-24T18:43:35Z</time>
      </trkpt>
      <trkpt lat="59.9526492" lon="17.7178163">
        <ele>50.126</ele>
        <time>2014-06-24T18:43:36Z</time>
      </trkpt>
      <trkpt lat="59.9526419" lon="17.7178419">
        <ele>49.6453</ele>
        <time>2014-06-24T18:43:37Z</time>
      </trkpt>
      <trkpt lat="59.9526408" lon="17.7178771">
        <ele>52.5292</ele>
        <time>2014-06-24T18:43:38Z</time>
      </trkpt>
      <trkpt lat="59.9526324" lon="17.7178915">
        <ele>52.0486</ele>
        <time>2014-06-24T18:43:39Z</time>
      </trkpt>
      <trkpt lat="59.9526272" lon="17.7179119">
        <ele>51.5679</ele>
        <time>2014-06-24T18:43:40Z</time>
      </trkpt>
      <trkpt lat="59.952622" lon="17.7179396">
        <ele>51.0872</ele>
        <time>2014-06-24T18:43:41Z</time>
      </trkpt>
      <trkpt lat="59.9526195" lon="17.7179704">
        <ele>50.6066</ele>
        <time>2014-06-24T18:43:42Z</time>
      </trkpt>
      <trkpt lat="59.952614" lon="17.7180046">
        <ele>50.126</ele>
        <time>2014-06-24T18:43:43Z</time>
      </trkpt>
      <trkpt lat="59.9526072" lon="17.7180383">
        <ele>49.6453</ele>
        <time>2014-06-24T18:43:44Z</time>
      </trkpt>
      <trkpt lat="59.952594" lon="17.7180646">
        <ele>49.6453</ele>
        <time>2014-06-24T18:43:45Z</time>
      </trkpt>
      <trkpt lat="59.9525871" lon="17.7180947">
        <ele>49.1646</ele>
        <time>2014-06-24T18:43:46Z</time>
      </trkpt>
      <trkpt lat="59.9525834" lon="17.7181196">
        <ele>48.684</ele>
        <time>2014-06-24T18:43:47Z</time>
      </trkpt>
      <trkpt lat="59.9525761" lon="17.7181402">
        <ele>47.7225</ele>
        <time>2014-06-24T18:43:48Z</time>
      </trkpt>
      <trkpt lat="59.9525707" lon="17.7181672">
        <ele>47.2418</ele>
        <time>2014-06-24T18:43:49Z</time>
      </trkpt>
      <trkpt lat="59.9525686" lon="17.7181975">
        <ele>46.7612</ele>
        <time>2014-06-24T18:43:50Z</time>
      </trkpt>
      <trkpt lat="59.9525693" lon="17.7182278">
        <ele>46.2806</ele>
        <time>2014-06-24T18:43:51Z</time>
      </trkpt>
      <trkpt lat="59.9525728" lon="17.7182704">
        <ele>47.2418</ele>
        <time>2014-06-24T18:43:52Z</time>
      </trkpt>
      <trkpt lat="59.9525658" lon="17.7182972">
        <ele>46.2806</ele>
        <time>2014-06-24T18:43:53Z</time>
      </trkpt>
      <trkpt lat="59.9525588" lon="17.7183252">
        <ele>46.7612</ele>
        <time>2014-06-24T18:43:54Z</time>
      </trkpt>
      <trkpt lat="59.9525506" lon="17.7183521">
        <ele>46.7612</ele>
        <time>2014-06-24T18:43:55Z</time>
      </trkpt>
      <trkpt lat="59.9525462" lon="17.7183822">
        <ele>46.7612</ele>
        <time>2014-06-24T18:43:56Z</time>
      </trkpt>
      <trkpt lat="59.9525429" lon="17.7184147">
        <ele>46.7612</ele>
        <time>2014-06-24T18:43:57Z</time>
      </trkpt>
      <trkpt lat="59.9525346" lon="17.7184464">
        <ele>45.7999</ele>
        <time>2014-06-24T18:43:58Z</time>
      </trkpt>
      <trkpt lat="59.95253" lon="17.7184739">
        <ele>44.8386</ele>
        <time>2014-06-24T18:43:59Z</time>
      </trkpt>
      <trkpt lat="59.9525285" lon="17.7185024">
        <ele>45.3192</ele>
        <time>2014-06-24T18:44:00Z</time>
      </trkpt>
      <trkpt lat="59.9525252" lon="17.7185322">
        <ele>45.7999</ele>
        <time>2014-06-24T18:44:01Z</time>
      </trkpt>
      <trkpt lat="59.9525228" lon="17.7185613">
        <ele>45.3192</ele>
        <time>2014-06-24T18:44:02Z</time>
      </trkpt>
      <trkpt lat="59.9525195" lon="17.7185899">
        <ele>44.8386</ele>
        <time>2014-06-24T18:44:03Z</time>
      </trkpt>
      <trkpt lat="59.9525164" lon="17.7186146">
        <ele>44.8386</ele>
        <time>2014-06-24T18:44:04Z</time>
      </trkpt>
      <trkpt lat="59.9525132" lon="17.7186468">
        <ele>44.8386</ele>
        <time>2014-06-24T18:44:05Z</time>
      </trkpt>
      <trkpt lat="59.9525128" lon="17.7186781">
        <ele>44.8386</ele>
        <time>2014-06-24T18:44:06Z</time>
      </trkpt>
      <trkpt lat="59.9525091" lon="17.7187125">
        <ele>46.7612</ele>
        <time>2014-06-24T18:44:07Z</time>
      </trkpt>
      <trkpt lat="59.9524959" lon="17.7187386">
        <ele>47.2418</ele>
        <time>2014-06-24T18:44:08Z</time>
      </trkpt>
      <trkpt lat="59.9524865" lon="17.7187723">
        <ele>46.7612</ele>
        <time>2014-06-24T18:44:09Z</time>
      </trkpt>
      <trkpt lat="59.952485" lon="17.718808">
        <ele>46.2806</ele>
        <time>2014-06-24T18:44:10Z</time>
      </trkpt>
      <trkpt lat="59.9524798" lon="17.7188431">
        <ele>46.2806</ele>
        <time>2014-06-24T18:44:11Z</time>
      </trkpt>
      <trkpt lat="59.9524713" lon="17.7188876">
        <ele>50.126</ele>
        <time>2014-06-24T18:44:12Z</time>
      </trkpt>
      <trkpt lat="59.9524599" lon="17.7189129">
        <ele>50.126</ele>
        <time>2014-06-24T18:44:13Z</time>
      </trkpt>
      <trkpt lat="59.9524532" lon="17.718943">
        <ele>50.126</ele>
        <time>2014-06-24T18:44:14Z</time>
      </trkpt>
      <trkpt lat="59.9524524" lon="17.7189718">
        <ele>50.126</ele>
        <time>2014-06-24T18:44:15Z</time>
      </trkpt>
      <trkpt lat="59.9524472" lon="17.7189986">
        <ele>50.6066</ele>
        <time>2014-06-24T18:44:16Z</time>
      </trkpt>
      <trkpt lat="59.9524428" lon="17.7190394">
        <ele>53.0098</ele>
        <time>2014-06-24T18:44:17Z</time>
      </trkpt>
      <trkpt lat="59.9524408" lon="17.7190759">
        <ele>53.4905</ele>
        <time>2014-06-24T18:44:18Z</time>
      </trkpt>
      <trkpt lat="59.9524393" lon="17.7191084">
        <ele>54.9324</ele>
        <time>2014-06-24T18:44:19Z</time>
      </trkpt>
      <trkpt lat="59.9524389" lon="17.7191383">
        <ele>54.9324</ele>
        <time>2014-06-24T18:44:20Z</time>
      </trkpt>
      <trkpt lat="59.9524338" lon="17.7191695">
        <ele>55.4131</ele>
        <time>2014-06-24T18:44:21Z</time>
      </trkpt>
      <trkpt lat="59.9524357" lon="17.7192094">
        <ele>56.3745</ele>
        <time>2014-06-24T18:44:22Z</time>
      </trkpt>
      <trkpt lat="59.952435" lon="17.7192442">
        <ele>56.3745</ele>
        <time>2014-06-24T18:44:23Z</time>
      </trkpt>
      <trkpt lat="59.9524295" lon="17.7192738">
        <ele>56.8551</ele>
        <time>2014-06-24T18:44:24Z</time>
      </trkpt>
      <trkpt lat="59.9524176" lon="17.7193042">
        <ele>56.3745</ele>
        <time>2014-06-24T18:44:25Z</time>
      </trkpt>
      <trkpt lat="59.9524124" lon="17.7193346">
        <ele>56.3745</ele>
        <time>2014-06-24T18:44:26Z</time>
      </trkpt>
      <trkpt lat="59.9524083" lon="17.7193679">
        <ele>56.3745</ele>
        <time>2014-06-24T18:44:27Z</time>
      </trkpt>
      <trkpt lat="59.9524061" lon="17.7194087">
        <ele>56.8551</ele>
        <time>2014-06-24T18:44:28Z</time>
      </trkpt>
      <trkpt lat="59.9524005" lon="17.7194481">
        <ele>56.3745</ele>
        <time>2014-06-24T18:44:29Z</time>
      </trkpt>
      <trkpt lat="59.9523993" lon="17.7194791">
        <ele>55.8938</ele>
        <time>2014-06-24T18:44:30Z</time>
      </trkpt>
      <trkpt lat="59.9523989" lon="17.7195063">
        <ele>54.9324</ele>
        <time>2014-06-24T18:44:31Z</time>
      </trkpt>
      <trkpt lat="59.952398" lon="17.7195369">
        <ele>55.4131</ele>
        <time>2014-06-24T18:44:32Z</time>
      </trkpt>
      <trkpt lat="59.9523999" lon="17.7195632">
        <ele>55.4131</ele>
        <time>2014-06-24T18:44:33Z</time>
      </trkpt>
      <trkpt lat="59.9524088" lon="17.7195834">
        <ele>55.8938</ele>
        <time>2014-06-24T18:44:34Z</time>
      </trkpt>
      <trkpt lat="59.9524172" lon="17.7196077">
        <ele>57.3358</ele>
        <time>2014-06-24T18:44:35Z</time>
      </trkpt>
      <trkpt lat="59.952422" lon="17.7196414">
        <ele>59.2584</ele>
        <time>2014-06-24T18:44:36Z</time>
      </trkpt>
      <trkpt lat="59.9524296" lon="17.7196684">
        <ele>58.7777</ele>
        <time>2014-06-24T18:44:37Z</time>
      </trkpt>
      <trkpt lat="59.9524377" lon="17.7196969">
        <ele>57.8165</ele>
        <time>2014-06-24T18:44:38Z</time>
      </trkpt>
      <trkpt lat="59.9524462" lon="17.7197259">
        <ele>57.8165</ele>
        <time>2014-06-24T18:44:39Z</time>
      </trkpt>
      <trkpt lat="59.9524533" lon="17.7197481">
        <ele>57.3358</ele>
        <time>2014-06-24T18:44:40Z</time>
      </trkpt>
      <trkpt lat="59.952459" lon="17.7197745">
        <ele>57.3358</ele>
        <time>2014-06-24T18:44:41Z</time>
      </trkpt>
      <trkpt lat="59.9524663" lon="17.7198106">
        <ele>57.8165</ele>
        <time>2014-06-24T18:44:42Z</time>
      </trkpt>
      <trkpt lat="59.9524694" lon="17.7198498">
        <ele>60.2197</ele>
        <time>2014-06-24T18:44:43Z</time>
      </trkpt>
      <trkpt lat="59.9524764" lon="17.719887">
        <ele>60.7003</ele>
        <time>2014-06-24T18:44:44Z</time>
      </trkpt>
      <trkpt lat="59.9524816" lon="17.7199269">
        <ele>62.1423</ele>
        <time>2014-06-24T18:44:45Z</time>
      </trkpt>
      <trkpt lat="59.952487" lon="17.7199663">
        <ele>62.1423</ele>
        <time>2014-06-24T18:44:46Z</time>
      </trkpt>
      <trkpt lat="59.9524963" lon="17.720002">
        <ele>62.1423</ele>
        <time>2014-06-24T18:44:47Z</time>
      </trkpt>
      <trkpt lat="59.952498" lon="17.7200309">
        <ele>61.6617</ele>
        <time>2014-06-24T18:44:48Z</time>
      </trkpt>
      <trkpt lat="59.9525054" lon="17.7200606">
        <ele>60.2197</ele>
        <time>2014-06-24T18:44:49Z</time>
      </trkpt>
      <trkpt lat="59.9525087" lon="17.7200867">
        <ele>59.7391</ele>
        <time>2014-06-24T18:44:50Z</time>
      </trkpt>
      <trkpt lat="59.9525148" lon="17.7201347">
        <ele>61.6617</ele>
        <time>2014-06-24T18:44:51Z</time>
      </trkpt>
      <trkpt lat="59.9525196" lon="17.720172">
        <ele>62.6229</ele>
        <time>2014-06-24T18:44:52Z</time>
      </trkpt>
      <trkpt lat="59.9525242" lon="17.7202044">
        <ele>62.6229</ele>
        <time>2014-06-24T18:44:53Z</time>
      </trkpt>
      <trkpt lat="59.9525308" lon="17.7202403">
        <ele>62.6229</ele>
        <time>2014-06-24T18:44:54Z</time>
      </trkpt>
      <trkpt lat="59.9525355" lon="17.7202786">
        <ele>62.6229</ele>
        <time>2014-06-24T18:44:55Z</time>
      </trkpt>
      <trkpt lat="59.9525346" lon="17.7203136">
        <ele>61.6617</ele>
        <time>2014-06-24T18:44:56Z</time>
      </trkpt>
      <trkpt lat="59.9525234" lon="17.7203331">
        <ele>60.7003</ele>
        <time>2014-06-24T18:44:57Z</time>
      </trkpt>
      <trkpt lat="59.9525146" lon="17.7203619">
        <ele>60.2197</ele>
        <time>2014-06-24T18:44:58Z</time>
      </trkpt>
      <trkpt lat="59.9525108" lon="17.7203957">
        <ele>59.2584</ele>
        <time>2014-06-24T18:44:59Z</time>
      </trkpt>
      <trkpt lat="59.9525062" lon="17.7204269">
        <ele>58.7777</ele>
        <time>2014-06-24T18:45:00Z</time>
      </trkpt>
      <trkpt lat="59.9525092" lon="17.7204656">
        <ele>60.2197</ele>
        <time>2014-06-24T18:45:01Z</time>
      </trkpt>
      <trkpt lat="59.9525097" lon="17.7204944">
        <ele>60.2197</ele>
        <time>2014-06-24T18:45:02Z</time>
      </trkpt>
      <trkpt lat="59.9525068" lon="17.7205241">
        <ele>58.7777</ele>
        <time>2014-06-24T18:45:03Z</time>
      </trkpt>
      <trkpt lat="59.9525047" lon="17.7205542">
        <ele>57.8165</ele>
        <time>2014-06-24T18:45:04Z</time>
      </trkpt>
      <trkpt lat="59.9525008" lon="17.7205947">
        <ele>56.8551</ele>
        <time>2014-06-24T18:45:05Z</time>
      </trkpt>
      <trkpt lat="59.9524952" lon="17.7206275">
        <ele>55.4131</ele>
        <time>2014-06-24T18:45:06Z</time>
      </trkpt>
      <trkpt lat="59.9524925" lon="17.7206563">
        <ele>53.4905</ele>
        <time>2014-06-24T18:45:07Z</time>
      </trkpt>
      <trkpt lat="59.95249" lon="17.7206842">
        <ele>53.0098</ele>
        <time>2014-06-24T18:45:08Z</time>
      </trkpt>
      <trkpt lat="59.9524869" lon="17.7207166">
        <ele>52.0486</ele>
        <time>2014-06-24T18:45:09Z</time>
      </trkpt>
      <trkpt lat="59.9524843" lon="17.7207498">
        <ele>51.5679</ele>
        <time>2014-06-24T18:45:10Z</time>
      </trkpt>
      <trkpt lat="59.952486" lon="17.7207822">
        <ele>51.5679</ele>
        <time>2014-06-24T18:45:11Z</time>
      </trkpt>
      <trkpt lat="59.9524897" lon="17.7208158">
        <ele>51.0872</ele>
        <time>2014-06-24T18:45:12Z</time>
      </trkpt>
      <trkpt lat="59.9524901" lon="17.7208514">
        <ele>51.0872</ele>
        <time>2014-06-24T18:45:13Z</time>
      </trkpt>
      <trkpt lat="59.9524894" lon="17.7208879">
        <ele>51.5679</ele>
        <time>2014-06-24T18:45:14Z</time>
      </trkpt>
      <trkpt lat="59.9524904" lon="17.7209246">
        <ele>52.0486</ele>
        <time>2014-06-24T18:45:15Z</time>
      </trkpt>
      <trkpt lat="59.9524942" lon="17.7209566">
        <ele>52.5292</ele>
        <time>2014-06-24T18:45:16Z</time>
      </trkpt>
      <trkpt lat="59.9524982" lon="17.7209795">
        <ele>52.0486</ele>
        <time>2014-06-24T18:45:17Z</time>
      </trkpt>
      <trkpt lat="59.9524997" lon="17.7210039">
        <ele>51.5679</ele>
        <time>2014-06-24T18:45:18Z</time>
      </trkpt>
      <trkpt lat="59.952502" lon="17.7210324">
        <ele>52.0486</ele>
        <time>2014-06-24T18:45:19Z</time>
      </trkpt>
      <trkpt lat="59.9525029" lon="17.7210597">
        <ele>52.5292</ele>
        <time>2014-06-24T18:45:20Z</time>
      </trkpt>
      <trkpt lat="59.9524989" lon="17.7210829">
        <ele>52.5292</ele>
        <time>2014-06-24T18:45:21Z</time>
      </trkpt>
      <trkpt lat="59.9525006" lon="17.7211084">
        <ele>52.0486</ele>
        <time>2014-06-24T18:45:22Z</time>
      </trkpt>
      <trkpt lat="59.952501" lon="17.721139">
        <ele>52.0486</ele>
        <time>2014-06-24T18:45:23Z</time>
      </trkpt>
      <trkpt lat="59.952502" lon="17.7211726">
        <ele>52.0486</ele>
        <time>2014-06-24T18:45:24Z</time>
      </trkpt>
      <trkpt lat="59.9525005" lon="17.7212046">
        <ele>52.0486</ele>
        <time>2014-06-24T18:45:25Z</time>
      </trkpt>
      <trkpt lat="59.9524974" lon="17.7212334">
        <ele>52.5292</ele>
        <time>2014-06-24T18:45:26Z</time>
      </trkpt>
      <trkpt lat="59.9524943" lon="17.7212675">
        <ele>53.0098</ele>
        <time>2014-06-24T18:45:27Z</time>
      </trkpt>
      <trkpt lat="59.9524944" lon="17.7213012">
        <ele>53.0098</ele>
        <time>2014-06-24T18:45:28Z</time>
      </trkpt>
      <trkpt lat="59.9524948" lon="17.7213322">
        <ele>53.4905</ele>
        <time>2014-06-24T18:45:29Z</time>
      </trkpt>
      <trkpt lat="59.9524926" lon="17.7213558">
        <ele>53.4905</ele>
        <time>2014-06-24T18:45:30Z</time>
      </trkpt>
      <trkpt lat="59.9524922" lon="17.7213851">
        <ele>53.0098</ele>
        <time>2014-06-24T18:45:31Z</time>
      </trkpt>
      <trkpt lat="59.952499" lon="17.7214233">
        <ele>53.0098</ele>
        <time>2014-06-24T18:45:32Z</time>
      </trkpt>
      <trkpt lat="59.9525046" lon="17.7214575">
        <ele>53.9712</ele>
        <time>2014-06-24T18:45:33Z</time>
      </trkpt>
      <trkpt lat="59.9525075" lon="17.7214931">
        <ele>54.4518</ele>
        <time>2014-06-24T18:45:34Z</time>
      </trkpt>
      <trkpt lat="59.9525112" lon="17.7215301">
        <ele>54.9324</ele>
        <time>2014-06-24T18:45:35Z</time>
      </trkpt>
      <trkpt lat="59.9525151" lon="17.7215548">
        <ele>54.4518</ele>
        <time>2014-06-24T18:45:36Z</time>
      </trkpt>
      <trkpt lat="59.9525228" lon="17.7215801">
        <ele>54.9324</ele>
        <time>2014-06-24T18:45:37Z</time>
      </trkpt>
      <trkpt lat="59.9525296" lon="17.7216099">
        <ele>54.9324</ele>
        <time>2014-06-24T18:45:38Z</time>
      </trkpt>
      <trkpt lat="59.952535" lon="17.7216446">
        <ele>55.8938</ele>
        <time>2014-06-24T18:45:39Z</time>
      </trkpt>
      <trkpt lat="59.9525357" lon="17.7216787">
        <ele>55.8938</ele>
        <time>2014-06-24T18:45:40Z</time>
      </trkpt>
      <trkpt lat="59.9525397" lon="17.721711">
        <ele>55.4131</ele>
        <time>2014-06-24T18:45:41Z</time>
      </trkpt>
      <trkpt lat="59.9525449" lon="17.7217439">
        <ele>55.8938</ele>
        <time>2014-06-24T18:45:42Z</time>
      </trkpt>
      <trkpt lat="59.9525486" lon="17.7217761">
        <ele>54.9324</ele>
        <time>2014-06-24T18:45:43Z</time>
      </trkpt>
      <trkpt lat="59.9525538" lon="17.7218048">
        <ele>55.8938</ele>
        <time>2014-06-24T18:45:44Z</time>
      </trkpt>
      <trkpt lat="59.9525585" lon="17.7218321">
        <ele>55.4131</ele>
        <time>2014-06-24T18:45:45Z</time>
      </trkpt>
      <trkpt lat="59.9525595" lon="17.721861">
        <ele>55.8938</ele>
        <time>2014-06-24T18:45:46Z</time>
      </trkpt>
      <trkpt lat="59.9525624" lon="17.7218884">
        <ele>55.8938</ele>
        <time>2014-06-24T18:45:47Z</time>
      </trkpt>
      <trkpt lat="59.9525594" lon="17.7219108">
        <ele>55.8938</ele>
        <time>2014-06-24T18:45:48Z</time>
      </trkpt>
      <trkpt lat="59.9525583" lon="17.7219379">
        <ele>56.3745</ele>
        <time>2014-06-24T18:45:49Z</time>
      </trkpt>
      <trkpt lat="59.9525578" lon="17.7219637">
        <ele>56.8551</ele>
        <time>2014-06-24T18:45:50Z</time>
      </trkpt>
      <trkpt lat="59.9525569" lon="17.7219891">
        <ele>57.3358</ele>
        <time>2014-06-24T18:45:51Z</time>
      </trkpt>
      <trkpt lat="59.9525594" lon="17.7220142">
        <ele>56.8551</ele>
        <time>2014-06-24T18:45:52Z</time>
      </trkpt>
      <trkpt lat="59.9525648" lon="17.7220503">
        <ele>56.8551</ele>
        <time>2014-06-24T18:45:53Z</time>
      </trkpt>
      <trkpt lat="59.9525657" lon="17.7220821">
        <ele>56.8551</ele>
        <time>2014-06-24T18:45:54Z</time>
      </trkpt>
      <trkpt lat="59.9525641" lon="17.7221251">
        <ele>57.8165</ele>
        <time>2014-06-24T18:45:55Z</time>
      </trkpt>
      <trkpt lat="59.9525656" lon="17.722164">
        <ele>57.8165</ele>
        <time>2014-06-24T18:45:56Z</time>
      </trkpt>
      <trkpt lat="59.9525666" lon="17.7221952">
        <ele>57.3358</ele>
        <time>2014-06-24T18:45:57Z</time>
      </trkpt>
      <trkpt lat="59.9525632" lon="17.7222218">
        <ele>56.8551</ele>
        <time>2014-06-24T18:45:58Z</time>
      </trkpt>
      <trkpt lat="59.9525594" lon="17.7222477">
        <ele>56.8551</ele>
        <time>2014-06-24T18:45:59Z</time>
      </trkpt>
      <trkpt lat="59.9525539" lon="17.7222753">
        <ele>55.8938</ele>
        <time>2014-06-24T18:46:00Z</time>
      </trkpt>
      <trkpt lat="59.9525487" lon="17.7223069">
        <ele>54.9324</ele>
        <time>2014-06-24T18:46:01Z</time>
      </trkpt>
      <trkpt lat="59.9525445" lon="17.7223408">
        <ele>54.4518</ele>
        <time>2014-06-24T18:46:02Z</time>
      </trkpt>
      <trkpt lat="59.9525382" lon="17.7223713">
        <ele>53.4905</ele>
        <time>2014-06-24T18:46:03Z</time>
      </trkpt>
      <trkpt lat="59.9525304" lon="17.7223978">
        <ele>53.4905</ele>
        <time>2014-06-24T18:46:04Z</time>
      </trkpt>
      <trkpt lat="59.9525231" lon="17.7224206">
        <ele>53.4905</ele>
        <time>2014-06-24T18:46:05Z</time>
      </trkpt>
      <trkpt lat="59.952517" lon="17.7224466">
        <ele>53.0098</ele>
        <time>2014-06-24T18:46:06Z</time>
      </trkpt>
      <trkpt lat="59.9525129" lon="17.7224774">
        <ele>53.4905</ele>
        <time>2014-06-24T18:46:07Z</time>
      </trkpt>
      <trkpt lat="59.9525066" lon="17.7224999">
        <ele>52.5292</ele>
        <time>2014-06-24T18:46:08Z</time>
      </trkpt>
      <trkpt lat="59.9524959" lon="17.722522">
        <ele>51.0872</ele>
        <time>2014-06-24T18:46:09Z</time>
      </trkpt>
      <trkpt lat="59.9524874" lon="17.7225505">
        <ele>50.6066</ele>
        <time>2014-06-24T18:46:10Z</time>
      </trkpt>
      <trkpt lat="59.9524818" lon="17.7225827">
        <ele>50.126</ele>
        <time>2014-06-24T18:46:11Z</time>
      </trkpt>
      <trkpt lat="59.9524759" lon="17.7226143">
        <ele>49.6453</ele>
        <time>2014-06-24T18:46:12Z</time>
      </trkpt>
      <trkpt lat="59.9524735" lon="17.7226514">
        <ele>49.1646</ele>
        <time>2014-06-24T18:46:13Z</time>
      </trkpt>
      <trkpt lat="59.9524724" lon="17.7226858">
        <ele>49.1646</ele>
        <time>2014-06-24T18:46:14Z</time>
      </trkpt>
      <trkpt lat="59.9524725" lon="17.7227169">
        <ele>48.684</ele>
        <time>2014-06-24T18:46:15Z</time>
      </trkpt>
      <trkpt lat="59.9524716" lon="17.7227494">
        <ele>48.2034</ele>
        <time>2014-06-24T18:46:16Z</time>
      </trkpt>
      <trkpt lat="59.9524697" lon="17.7227799">
        <ele>48.2034</ele>
        <time>2014-06-24T18:46:17Z</time>
      </trkpt>
      <trkpt lat="59.9524676" lon="17.7228079">
        <ele>47.7225</ele>
        <time>2014-06-24T18:46:18Z</time>
      </trkpt>
      <trkpt lat="59.9524637" lon="17.7228397">
        <ele>48.2034</ele>
        <time>2014-06-24T18:46:19Z</time>
      </trkpt>
      <trkpt lat="59.9524663" lon="17.7228728">
        <ele>48.2034</ele>
        <time>2014-06-24T18:46:20Z</time>
      </trkpt>
      <trkpt lat="59.9524723" lon="17.7229023">
        <ele>47.7225</ele>
        <time>2014-06-24T18:46:21Z</time>
      </trkpt>
      <trkpt lat="59.9524816" lon="17.7229318">
        <ele>47.2418</ele>
        <time>2014-06-24T18:46:22Z</time>
      </trkpt>
      <trkpt lat="59.9524854" lon="17.7229609">
        <ele>46.2806</ele>
        <time>2014-06-24T18:46:23Z</time>
      </trkpt>
      <trkpt lat="59.9524869" lon="17.7229891">
        <ele>46.7612</ele>
        <time>2014-06-24T18:46:24Z</time>
      </trkpt>
      <trkpt lat="59.9524902" lon="17.7230174">
        <ele>46.7612</ele>
        <time>2014-06-24T18:46:25Z</time>
      </trkpt>
      <trkpt lat="59.9524902" lon="17.7230499">
        <ele>46.7612</ele>
        <time>2014-06-24T18:46:26Z</time>
      </trkpt>
      <trkpt lat="59.9524889" lon="17.723081">
        <ele>46.7612</ele>
        <time>2014-06-24T18:46:27Z</time>
      </trkpt>
      <trkpt lat="59.9524896" lon="17.7231121">
        <ele>46.7612</ele>
        <time>2014-06-24T18:46:28Z</time>
      </trkpt>
      <trkpt lat="59.9524953" lon="17.7231427">
        <ele>46.7612</ele>
        <time>2014-06-24T18:46:29Z</time>
      </trkpt>
      <trkpt lat="59.9524995" lon="17.7231718">
        <ele>47.2418</ele>
        <time>2014-06-24T18:46:30Z</time>
      </trkpt>
      <trkpt lat="59.9525046" lon="17.7232001">
        <ele>47.2418</ele>
        <time>2014-06-24T18:46:31Z</time>
      </trkpt>
      <trkpt lat="59.9525087" lon="17.7232276">
        <ele>48.2034</ele>
        <time>2014-06-24T18:46:32Z</time>
      </trkpt>
      <trkpt lat="59.9525115" lon="17.7232586">
        <ele>49.1646</ele>
        <time>2014-06-24T18:46:33Z</time>
      </trkpt>
      <trkpt lat="59.9525177" lon="17.7232866">
        <ele>50.126</ele>
        <time>2014-06-24T18:46:34Z</time>
      </trkpt>
      <trkpt lat="59.9525253" lon="17.7233163">
        <ele>50.6066</ele>
        <time>2014-06-24T18:46:35Z</time>
      </trkpt>
      <trkpt lat="59.952537" lon="17.7233473">
        <ele>51.5679</ele>
        <time>2014-06-24T18:46:36Z</time>
      </trkpt>
      <trkpt lat="59.9525448" lon="17.7233815">
        <ele>52.5292</ele>
        <time>2014-06-24T18:46:37Z</time>
      </trkpt>
      <trkpt lat="59.9525505" lon="17.72341">
        <ele>53.0098</ele>
        <time>2014-06-24T18:46:38Z</time>
      </trkpt>
      <trkpt lat="59.9525637" lon="17.7234395">
        <ele>53.9712</ele>
        <time>2014-06-24T18:46:39Z</time>
      </trkpt>
      <trkpt lat="59.9525759" lon="17.7234704">
        <ele>54.4518</ele>
        <time>2014-06-24T18:46:40Z</time>
      </trkpt>
      <trkpt lat="59.9525865" lon="17.7235018">
        <ele>55.4131</ele>
        <time>2014-06-24T18:46:41Z</time>
      </trkpt>
      <trkpt lat="59.9525933" lon="17.7235353">
        <ele>55.8938</ele>
        <time>2014-06-24T18:46:42Z</time>
      </trkpt>
      <trkpt lat="59.9526067" lon="17.7235634">
        <ele>57.3358</ele>
        <time>2014-06-24T18:46:43Z</time>
      </trkpt>
      <trkpt lat="59.9526169" lon="17.7235919">
        <ele>57.3358</ele>
        <time>2014-06-24T18:46:44Z</time>
      </trkpt>
      <trkpt lat="59.9526296" lon="17.7236136">
        <ele>57.8165</ele>
        <time>2014-06-24T18:46:45Z</time>
      </trkpt>
      <trkpt lat="59.9526456" lon="17.7236335">
        <ele>57.8165</ele>
        <time>2014-06-24T18:46:46Z</time>
      </trkpt>
      <trkpt lat="59.9526585" lon="17.7236545">
        <ele>57.3358</ele>
        <time>2014-06-24T18:46:47Z</time>
      </trkpt>
      <trkpt lat="59.9526695" lon="17.7236762">
        <ele>56.3745</ele>
        <time>2014-06-24T18:46:48Z</time>
      </trkpt>
      <trkpt lat="59.9526781" lon="17.7237014">
        <ele>57.3358</ele>
        <time>2014-06-24T18:46:49Z</time>
      </trkpt>
      <trkpt lat="59.9526814" lon="17.7237254">
        <ele>57.3358</ele>
        <time>2014-06-24T18:46:50Z</time>
      </trkpt>
      <trkpt lat="59.9526833" lon="17.7237506">
        <ele>55.4131</ele>
        <time>2014-06-24T18:46:51Z</time>
      </trkpt>
      <trkpt lat="59.9526857" lon="17.7237803">
        <ele>54.9324</ele>
        <time>2014-06-24T18:46:52Z</time>
      </trkpt>
      <trkpt lat="59.9526916" lon="17.7238113">
        <ele>54.4518</ele>
        <time>2014-06-24T18:46:53Z</time>
      </trkpt>
      <trkpt lat="59.9526963" lon="17.7238394">
        <ele>54.4518</ele>
        <time>2014-06-24T18:46:54Z</time>
      </trkpt>
      <trkpt lat="59.9526977" lon="17.7238692">
        <ele>53.9712</ele>
        <time>2014-06-24T18:46:55Z</time>
      </trkpt>
      <trkpt lat="59.9526982" lon="17.7239022">
        <ele>53.4905</ele>
        <time>2014-06-24T18:46:56Z</time>
      </trkpt>
      <trkpt lat="59.9526971" lon="17.7239383">
        <ele>53.0098</ele>
        <time>2014-06-24T18:46:57Z</time>
      </trkpt>
      <trkpt lat="59.9526914" lon="17.7239723">
        <ele>52.0486</ele>
        <time>2014-06-24T18:46:58Z</time>
      </trkpt>
      <trkpt lat="59.9526862" lon="17.7240123">
        <ele>52.0486</ele>
        <time>2014-06-24T18:46:59Z</time>
      </trkpt>
      <trkpt lat="59.952679" lon="17.7240476">
        <ele>51.0872</ele>
        <time>2014-06-24T18:47:00Z</time>
      </trkpt>
      <trkpt lat="59.9526751" lon="17.7240768">
        <ele>51.0872</ele>
        <time>2014-06-24T18:47:01Z</time>
      </trkpt>
      <trkpt lat="59.9526683" lon="17.7241067">
        <ele>50.126</ele>
        <time>2014-06-24T18:47:02Z</time>
      </trkpt>
      <trkpt lat="59.95266" lon="17.7241373">
        <ele>50.126</ele>
        <time>2014-06-24T18:47:03Z</time>
      </trkpt>
      <trkpt lat="59.9526522" lon="17.7241645">
        <ele>49.6453</ele>
        <time>2014-06-24T18:47:04Z</time>
      </trkpt>
      <trkpt lat="59.9526403" lon="17.7241876">
        <ele>48.684</ele>
        <time>2014-06-24T18:47:05Z</time>
      </trkpt>
      <trkpt lat="59.9526274" lon="17.7242061">
        <ele>48.2034</ele>
        <time>2014-06-24T18:47:06Z</time>
      </trkpt>
      <trkpt lat="59.9526156" lon="17.7242269">
        <ele>47.7225</ele>
        <time>2014-06-24T18:47:07Z</time>
      </trkpt>
      <trkpt lat="59.9526081" lon="17.7242559">
        <ele>47.2418</ele>
        <time>2014-06-24T18:47:08Z</time>
      </trkpt>
      <trkpt lat="59.9525993" lon="17.7242849">
        <ele>47.2418</ele>
        <time>2014-06-24T18:47:09Z</time>
      </trkpt>
      <trkpt lat="59.9525902" lon="17.7243072">
        <ele>46.2806</ele>
        <time>2014-06-24T18:47:10Z</time>
      </trkpt>
      <trkpt lat="59.9525837" lon="17.7243345">
        <ele>46.2806</ele>
        <time>2014-06-24T18:47:11Z</time>
      </trkpt>
      <trkpt lat="59.9525778" lon="17.72436">
        <ele>46.2806</ele>
        <time>2014-06-24T18:47:12Z</time>
      </trkpt>
      <trkpt lat="59.9525713" lon="17.7243841">
        <ele>45.7999</ele>
        <time>2014-06-24T18:47:13Z</time>
      </trkpt>
      <trkpt lat="59.9525638" lon="17.7244118">
        <ele>45.7999</ele>
        <time>2014-06-24T18:47:14Z</time>
      </trkpt>
      <trkpt lat="59.9525573" lon="17.7244367">
        <ele>45.3192</ele>
        <time>2014-06-24T18:47:15Z</time>
      </trkpt>
      <trkpt lat="59.9525502" lon="17.7244609">
        <ele>44.8386</ele>
        <time>2014-06-24T18:47:16Z</time>
      </trkpt>
      <trkpt lat="59.9525423" lon="17.7244873">
        <ele>44.8386</ele>
        <time>2014-06-24T18:47:17Z</time>
      </trkpt>
      <trkpt lat="59.9525346" lon="17.7245098">
        <ele>44.358</ele>
        <time>2014-06-24T18:47:18Z</time>
      </trkpt>
      <trkpt lat="59.9525264" lon="17.724532">
        <ele>43.8773</ele>
        <time>2014-06-24T18:47:19Z</time>
      </trkpt>
      <trkpt lat="59.9525156" lon="17.7245548">
        <ele>43.3966</ele>
        <time>2014-06-24T18:47:20Z</time>
      </trkpt>
      <trkpt lat="59.9525037" lon="17.7245785">
        <ele>43.8773</ele>
        <time>2014-06-24T18:47:21Z</time>
      </trkpt>
      <trkpt lat="59.9524916" lon="17.7245993">
        <ele>43.3966</ele>
        <time>2014-06-24T18:47:22Z</time>
      </trkpt>
      <trkpt lat="59.9524792" lon="17.7246188">
        <ele>42.916</ele>
        <time>2014-06-24T18:47:23Z</time>
      </trkpt>
      <trkpt lat="59.9524671" lon="17.724637">
        <ele>42.916</ele>
        <time>2014-06-24T18:47:24Z</time>
      </trkpt>
      <trkpt lat="59.952456" lon="17.7246564">
        <ele>42.4354</ele>
        <time>2014-06-24T18:47:25Z</time>
      </trkpt>
      <trkpt lat="59.9524446" lon="17.7246703">
        <ele>41.9547</ele>
        <time>2014-06-24T18:47:26Z</time>
      </trkpt>
      <trkpt lat="59.9524311" lon="17.7246853">
        <ele>41.9547</ele>
        <time>2014-06-24T18:47:27Z</time>
      </trkpt>
      <trkpt lat="59.9524175" lon="17.7246988">
        <ele>41.9547</ele>
        <time>2014-06-24T18:47:28Z</time>
      </trkpt>
      <trkpt lat="59.952398" lon="17.7247107">
        <ele>41.474</ele>
        <time>2014-06-24T18:47:29Z</time>
      </trkpt>
      <trkpt lat="59.9523781" lon="17.7247208">
        <ele>40.9934</ele>
        <time>2014-06-24T18:47:30Z</time>
      </trkpt>
      <trkpt lat="59.9523616" lon="17.7247372">
        <ele>40.5128</ele>
        <time>2014-06-24T18:47:31Z</time>
      </trkpt>
      <trkpt lat="59.9523491" lon="17.7247605">
        <ele>40.9934</ele>
        <time>2014-06-24T18:47:32Z</time>
      </trkpt>
      <trkpt lat="59.9523353" lon="17.7247841">
        <ele>40.5128</ele>
        <time>2014-06-24T18:47:33Z</time>
      </trkpt>
      <trkpt lat="59.9523208" lon="17.7248075">
        <ele>40.5128</ele>
        <time>2014-06-24T18:47:34Z</time>
      </trkpt>
      <trkpt lat="59.9523093" lon="17.7248226">
        <ele>40.0321</ele>
        <time>2014-06-24T18:47:35Z</time>
      </trkpt>
      <trkpt lat="59.9522939" lon="17.7248429">
        <ele>39.5513</ele>
        <time>2014-06-24T18:47:36Z</time>
      </trkpt>
      <trkpt lat="59.9522796" lon="17.7248664">
        <ele>39.5513</ele>
        <time>2014-06-24T18:47:37Z</time>
      </trkpt>
      <trkpt lat="59.9522653" lon="17.7248864">
        <ele>39.5513</ele>
        <time>2014-06-24T18:47:38Z</time>
      </trkpt>
      <trkpt lat="59.952255" lon="17.7249056">
        <ele>39.5513</ele>
        <time>2014-06-24T18:47:39Z</time>
      </trkpt>
      <trkpt lat="59.9522465" lon="17.7249313">
        <ele>40.0321</ele>
        <time>2014-06-24T18:47:40Z</time>
      </trkpt>
      <trkpt lat="59.9522389" lon="17.7249506">
        <ele>39.5513</ele>
        <time>2014-06-24T18:47:41Z</time>
      </trkpt>
      <trkpt lat="59.9522296" lon="17.7249754">
        <ele>40.0321</ele>
        <time>2014-06-24T18:47:42Z</time>
      </trkpt>
      <trkpt lat="59.9522165" lon="17.7249959">
        <ele>39.5513</ele>
        <time>2014-06-24T18:47:43Z</time>
      </trkpt>
      <trkpt lat="59.9522048" lon="17.7250161">
        <ele>39.0707</ele>
        <time>2014-06-24T18:47:44Z</time>
      </trkpt>
      <trkpt lat="59.95219" lon="17.7250364">
        <ele>39.5513</ele>
        <time>2014-06-24T18:47:45Z</time>
      </trkpt>
      <trkpt lat="59.9521736" lon="17.725057">
        <ele>39.5513</ele>
        <time>2014-06-24T18:47:46Z</time>
      </trkpt>
      <trkpt lat="59.9521604" lon="17.7250814">
        <ele>39.0707</ele>
        <time>2014-06-24T18:47:47Z</time>
      </trkpt>
      <trkpt lat="59.9521503" lon="17.7251083">
        <ele>39.5513</ele>
        <time>2014-06-24T18:47:48Z</time>
      </trkpt>
      <trkpt lat="59.95214" lon="17.7251335">
        <ele>39.5513</ele>
        <time>2014-06-24T18:47:49Z</time>
      </trkpt>
      <trkpt lat="59.9521301" lon="17.7251542">
        <ele>39.5513</ele>
        <time>2014-06-24T18:47:50Z</time>
      </trkpt>
      <trkpt lat="59.9521218" lon="17.7251738">
        <ele>39.5513</ele>
        <time>2014-06-24T18:47:51Z</time>
      </trkpt>
      <trkpt lat="59.9521119" lon="17.7251969">
        <ele>39.5513</ele>
        <time>2014-06-24T18:47:52Z</time>
      </trkpt>
      <trkpt lat="59.9521009" lon="17.7252183">
        <ele>39.5513</ele>
        <time>2014-06-24T18:47:53Z</time>
      </trkpt>
      <trkpt lat="59.9520901" lon="17.7252436">
        <ele>40.0321</ele>
        <time>2014-06-24T18:47:54Z</time>
      </trkpt>
      <trkpt lat="59.9520788" lon="17.7252644">
        <ele>40.0321</ele>
        <time>2014-06-24T18:47:55Z</time>
      </trkpt>
      <trkpt lat="59.9520659" lon="17.7252819">
        <ele>40.0321</ele>
        <time>2014-06-24T18:47:56Z</time>
      </trkpt>
      <trkpt lat="59.9520507" lon="17.7253023">
        <ele>40.0321</ele>
        <time>2014-06-24T18:47:57Z</time>
      </trkpt>
      <trkpt lat="59.9520361" lon="17.7253225">
        <ele>40.0321</ele>
        <time>2014-06-24T18:47:58Z</time>
      </trkpt>
      <trkpt lat="59.9520265" lon="17.7253457">
        <ele>40.0321</ele>
        <time>2014-06-24T18:47:59Z</time>
      </trkpt>
      <trkpt lat="59.9520173" lon="17.7253716">
        <ele>40.0321</ele>
        <time>2014-06-24T18:48:00Z</time>
      </trkpt>
      <trkpt lat="59.9520073" lon="17.7253953">
        <ele>40.0321</ele>
        <time>2014-06-24T18:48:01Z</time>
      </trkpt>
      <trkpt lat="59.951996" lon="17.725415">
        <ele>39.5513</ele>
        <time>2014-06-24T18:48:02Z</time>
      </trkpt>
      <trkpt lat="59.9519861" lon="17.7254404">
        <ele>40.0321</ele>
        <time>2014-06-24T18:48:03Z</time>
      </trkpt>
      <trkpt lat="59.9519788" lon="17.7254709">
        <ele>40.5128</ele>
        <time>2014-06-24T18:48:04Z</time>
      </trkpt>
      <trkpt lat="59.9519696" lon="17.7254951">
        <ele>40.5128</ele>
        <time>2014-06-24T18:48:05Z</time>
      </trkpt>
      <trkpt lat="59.9519582" lon="17.7255172">
        <ele>40.5128</ele>
        <time>2014-06-24T18:48:06Z</time>
      </trkpt>
      <trkpt lat="59.9519446" lon="17.725545">
        <ele>40.0321</ele>
        <time>2014-06-24T18:48:07Z</time>
      </trkpt>
      <trkpt lat="59.9519294" lon="17.7255763">
        <ele>40.5128</ele>
        <time>2014-06-24T18:48:08Z</time>
      </trkpt>
      <trkpt lat="59.951918" lon="17.7256001">
        <ele>40.5128</ele>
        <time>2014-06-24T18:48:09Z</time>
      </trkpt>
      <trkpt lat="59.9519036" lon="17.7256172">
        <ele>40.5128</ele>
        <time>2014-06-24T18:48:10Z</time>
      </trkpt>
      <trkpt lat="59.9518871" lon="17.7256414">
        <ele>40.9934</ele>
        <time>2014-06-24T18:48:11Z</time>
      </trkpt>
      <trkpt lat="59.9518777" lon="17.7256683">
        <ele>40.9934</ele>
        <time>2014-06-24T18:48:12Z</time>
      </trkpt>
      <trkpt lat="59.9518681" lon="17.7256984">
        <ele>40.5128</ele>
        <time>2014-06-24T18:48:13Z</time>
      </trkpt>
      <trkpt lat="59.9518611" lon="17.7257214">
        <ele>40.5128</ele>
        <time>2014-06-24T18:48:14Z</time>
      </trkpt>
      <trkpt lat="59.951854" lon="17.725744">
        <ele>40.5128</ele>
        <time>2014-06-24T18:48:15Z</time>
      </trkpt>
      <trkpt lat="59.9518398" lon="17.7257685">
        <ele>40.9934</ele>
        <time>2014-06-24T18:48:16Z</time>
      </trkpt>
      <trkpt lat="59.9518274" lon="17.7257903">
        <ele>40.9934</ele>
        <time>2014-06-24T18:48:17Z</time>
      </trkpt>
      <trkpt lat="59.951816" lon="17.7258038">
        <ele>40.5128</ele>
        <time>2014-06-24T18:48:18Z</time>
      </trkpt>
      <trkpt lat="59.9518059" lon="17.7258167">
        <ele>40.9934</ele>
        <time>2014-06-24T18:48:19Z</time>
      </trkpt>
      <trkpt lat="59.9517963" lon="17.7258332">
        <ele>41.474</ele>
        <time>2014-06-24T18:48:20Z</time>
      </trkpt>
      <trkpt lat="59.9517852" lon="17.7258533">
        <ele>41.9547</ele>
        <time>2014-06-24T18:48:21Z</time>
      </trkpt>
      <trkpt lat="59.9517732" lon="17.7258714">
        <ele>41.9547</ele>
        <time>2014-06-24T18:48:22Z</time>
      </trkpt>
      <trkpt lat="59.9517613" lon="17.7258886">
        <ele>41.9547</ele>
        <time>2014-06-24T18:48:23Z</time>
      </trkpt>
      <trkpt lat="59.9517481" lon="17.7259078">
        <ele>42.4354</ele>
        <time>2014-06-24T18:48:24Z</time>
      </trkpt>
      <trkpt lat="59.9517349" lon="17.7259278">
        <ele>42.4354</ele>
        <time>2014-06-24T18:48:25Z</time>
      </trkpt>
      <trkpt lat="59.951722" lon="17.7259445">
        <ele>42.4354</ele>
        <time>2014-06-24T18:48:26Z</time>
      </trkpt>
      <trkpt lat="59.9517073" lon="17.7259633">
        <ele>42.4354</ele>
        <time>2014-06-24T18:48:27Z</time>
      </trkpt>
      <trkpt lat="59.9516937" lon="17.7259812">
        <ele>42.4354</ele>
        <time>2014-06-24T18:48:28Z</time>
      </trkpt>
      <trkpt lat="59.9516818" lon="17.7260001">
        <ele>42.4354</ele>
        <time>2014-06-24T18:48:29Z</time>
      </trkpt>
      <trkpt lat="59.9516717" lon="17.7260176">
        <ele>42.4354</ele>
        <time>2014-06-24T18:48:30Z</time>
      </trkpt>
      <trkpt lat="59.9516618" lon="17.726035">
        <ele>41.9547</ele>
        <time>2014-06-24T18:48:31Z</time>
      </trkpt>
      <trkpt lat="59.9516505" lon="17.7260611">
        <ele>42.4354</ele>
        <time>2014-06-24T18:48:32Z</time>
      </trkpt>
      <trkpt lat="59.9516414" lon="17.7260894">
        <ele>42.4354</ele>
        <time>2014-06-24T18:48:33Z</time>
      </trkpt>
      <trkpt lat="59.9516364" lon="17.7261181">
        <ele>42.916</ele>
        <time>2014-06-24T18:48:34Z</time>
      </trkpt>
      <trkpt lat="59.9516283" lon="17.7261466">
        <ele>43.3966</ele>
        <time>2014-06-24T18:48:35Z</time>
      </trkpt>
      <trkpt lat="59.9516169" lon="17.7261715">
        <ele>43.3966</ele>
        <time>2014-06-24T18:48:36Z</time>
      </trkpt>
      <trkpt lat="59.9516074" lon="17.7261969">
        <ele>43.8773</ele>
        <time>2014-06-24T18:48:37Z</time>
      </trkpt>
      <trkpt lat="59.9515986" lon="17.7262248">
        <ele>44.358</ele>
        <time>2014-06-24T18:48:38Z</time>
      </trkpt>
      <trkpt lat="59.9515893" lon="17.7262513">
        <ele>44.358</ele>
        <time>2014-06-24T18:48:39Z</time>
      </trkpt>
      <trkpt lat="59.9515784" lon="17.7262792">
        <ele>44.8386</ele>
        <time>2014-06-24T18:48:40Z</time>
      </trkpt>
      <trkpt lat="59.9515705" lon="17.7263016">
        <ele>44.8386</ele>
        <time>2014-06-24T18:48:41Z</time>
      </trkpt>
      <trkpt lat="59.9515639" lon="17.7263246">
        <ele>44.8386</ele>
        <time>2014-06-24T18:48:42Z</time>
      </trkpt>
      <trkpt lat="59.9515565" lon="17.7263506">
        <ele>44.8386</ele>
        <time>2014-06-24T18:48:43Z</time>
      </trkpt>
      <trkpt lat="59.9515467" lon="17.7263728">
        <ele>45.3192</ele>
        <time>2014-06-24T18:48:44Z</time>
      </trkpt>
      <trkpt lat="59.9515366" lon="17.726395">
        <ele>45.3192</ele>
        <time>2014-06-24T18:48:45Z</time>
      </trkpt>
      <trkpt lat="59.9515157" lon="17.7264523">
        <ele>45.7999</ele>
        <time>2014-06-24T18:48:47Z</time>
      </trkpt>
      <trkpt lat="59.951507" lon="17.7264787">
        <ele>45.7999</ele>
        <time>2014-06-24T18:48:48Z</time>
      </trkpt>
      <trkpt lat="59.951501" lon="17.7264989">
        <ele>45.3192</ele>
        <time>2014-06-24T18:48:49Z</time>
      </trkpt>
      <trkpt lat="59.9514904" lon="17.726513">
        <ele>45.3192</ele>
        <time>2014-06-24T18:48:50Z</time>
      </trkpt>
      <trkpt lat="59.9514785" lon="17.726531">
        <ele>44.8386</ele>
        <time>2014-06-24T18:48:51Z</time>
      </trkpt>
      <trkpt lat="59.9514696" lon="17.7265501">
        <ele>44.8386</ele>
        <time>2014-06-24T18:48:52Z</time>
      </trkpt>
      <trkpt lat="59.9514622" lon="17.7265745">
        <ele>44.8386</ele>
        <time>2014-06-24T18:48:53Z</time>
      </trkpt>
      <trkpt lat="59.9514541" lon="17.7266014">
        <ele>44.358</ele>
        <time>2014-06-24T18:48:54Z</time>
      </trkpt>
      <trkpt lat="59.9514484" lon="17.7266517">
        <ele>46.7612</ele>
        <time>2014-06-24T18:48:55Z</time>
      </trkpt>
      <trkpt lat="59.951443" lon="17.7266872">
        <ele>46.2806</ele>
        <time>2014-06-24T18:48:56Z</time>
      </trkpt>
      <trkpt lat="59.9514414" lon="17.7267216">
        <ele>46.7612</ele>
        <time>2014-06-24T18:48:57Z</time>
      </trkpt>
      <trkpt lat="59.9514387" lon="17.7267571">
        <ele>46.7612</ele>
        <time>2014-06-24T18:48:58Z</time>
      </trkpt>
      <trkpt lat="59.9514448" lon="17.7267911">
        <ele>46.7612</ele>
        <time>2014-06-24T18:48:59Z</time>
      </trkpt>
      <trkpt lat="59.9514505" lon="17.7268226">
        <ele>45.7999</ele>
        <time>2014-06-24T18:49:00Z</time>
      </trkpt>
      <trkpt lat="59.9514535" lon="17.7268535">
        <ele>46.2806</ele>
        <time>2014-06-24T18:49:01Z</time>
      </trkpt>
      <trkpt lat="59.9514539" lon="17.7268827">
        <ele>45.7999</ele>
        <time>2014-06-24T18:49:02Z</time>
      </trkpt>
      <trkpt lat="59.9514582" lon="17.7269143">
        <ele>46.7612</ele>
        <time>2014-06-24T18:49:03Z</time>
      </trkpt>
      <trkpt lat="59.9514617" lon="17.726947">
        <ele>47.2418</ele>
        <time>2014-06-24T18:49:04Z</time>
      </trkpt>
      <trkpt lat="59.9514696" lon="17.7269781">
        <ele>47.7225</ele>
        <time>2014-06-24T18:49:05Z</time>
      </trkpt>
      <trkpt lat="59.9514738" lon="17.7270032">
        <ele>48.2034</ele>
        <time>2014-06-24T18:49:06Z</time>
      </trkpt>
      <trkpt lat="59.9514772" lon="17.7270265">
        <ele>48.2034</ele>
        <time>2014-06-24T18:49:07Z</time>
      </trkpt>
      <trkpt lat="59.9514839" lon="17.7270563">
        <ele>48.684</ele>
        <time>2014-06-24T18:49:08Z</time>
      </trkpt>
      <trkpt lat="59.9514946" lon="17.7270918">
        <ele>48.684</ele>
        <time>2014-06-24T18:49:09Z</time>
      </trkpt>
      <trkpt lat="59.9515063" lon="17.7271315">
        <ele>49.1646</ele>
        <time>2014-06-24T18:49:10Z</time>
      </trkpt>
      <trkpt lat="59.9515055" lon="17.7271648">
        <ele>49.6453</ele>
        <time>2014-06-24T18:49:11Z</time>
      </trkpt>
      <trkpt lat="59.9515104" lon="17.7272069">
        <ele>49.1646</ele>
        <time>2014-06-24T18:49:12Z</time>
      </trkpt>
      <trkpt lat="59.9515156" lon="17.7272534">
        <ele>49.1646</ele>
        <time>2014-06-24T18:49:13Z</time>
      </trkpt>
      <trkpt lat="59.9515172" lon="17.7272949">
        <ele>48.684</ele>
        <time>2014-06-24T18:49:14Z</time>
      </trkpt>
      <trkpt lat="59.9515235" lon="17.7273323">
        <ele>49.6453</ele>
        <time>2014-06-24T18:49:15Z</time>
      </trkpt>
      <trkpt lat="59.9515236" lon="17.7273722">
        <ele>50.126</ele>
        <time>2014-06-24T18:49:16Z</time>
      </trkpt>
      <trkpt lat="59.9515236" lon="17.7274137">
        <ele>50.6066</ele>
        <time>2014-06-24T18:49:17Z</time>
      </trkpt>
      <trkpt lat="59.9515245" lon="17.7274535">
        <ele>51.0872</ele>
        <time>2014-06-24T18:49:18Z</time>
      </trkpt>
      <trkpt lat="59.951524" lon="17.7274899">
        <ele>51.5679</ele>
        <time>2014-06-24T18:49:19Z</time>
      </trkpt>
      <trkpt lat="59.9515178" lon="17.7275209">
        <ele>52.5292</ele>
        <time>2014-06-24T18:49:20Z</time>
      </trkpt>
      <trkpt lat="59.9515148" lon="17.7275487">
        <ele>52.5292</ele>
        <time>2014-06-24T18:49:21Z</time>
      </trkpt>
      <trkpt lat="59.9515184" lon="17.7275775">
        <ele>52.0486</ele>
        <time>2014-06-24T18:49:22Z</time>
      </trkpt>
      <trkpt lat="59.9515207" lon="17.7276068">
        <ele>51.5679</ele>
        <time>2014-06-24T18:49:23Z</time>
      </trkpt>
      <trkpt lat="59.9515214" lon="17.7276414">
        <ele>50.6066</ele>
        <time>2014-06-24T18:49:24Z</time>
      </trkpt>
      <trkpt lat="59.951526" lon="17.7276737">
        <ele>50.126</ele>
        <time>2014-06-24T18:49:25Z</time>
      </trkpt>
      <trkpt lat="59.9515281" lon="17.7277006">
        <ele>49.6453</ele>
        <time>2014-06-24T18:49:26Z</time>
      </trkpt>
      <trkpt lat="59.9515317" lon="17.7277238">
        <ele>49.6453</ele>
        <time>2014-06-24T18:49:27Z</time>
      </trkpt>
      <trkpt lat="59.9515395" lon="17.7277483">
        <ele>50.126</ele>
        <time>2014-06-24T18:49:28Z</time>
      </trkpt>
      <trkpt lat="59.9515482" lon="17.7277725">
        <ele>50.126</ele>
        <time>2014-06-24T18:49:29Z</time>
      </trkpt>
      <trkpt lat="59.9515629" lon="17.7277916">
        <ele>50.6066</ele>
        <time>2014-06-24T18:49:30Z</time>
      </trkpt>
      <trkpt lat="59.9515749" lon="17.7278078">
        <ele>50.6066</ele>
        <time>2014-06-24T18:49:31Z</time>
      </trkpt>
      <trkpt lat="59.9515878" lon="17.7278244">
        <ele>50.6066</ele>
        <time>2014-06-24T18:49:32Z</time>
      </trkpt>
      <trkpt lat="59.9516034" lon="17.72784">
        <ele>51.0872</ele>
        <time>2014-06-24T18:49:33Z</time>
      </trkpt>
      <trkpt lat="59.9516179" lon="17.727854">
        <ele>50.6066</ele>
        <time>2014-06-24T18:49:34Z</time>
      </trkpt>
      <trkpt lat="59.9516282" lon="17.7278695">
        <ele>50.126</ele>
        <time>2014-06-24T18:49:35Z</time>
      </trkpt>
      <trkpt lat="59.9516362" lon="17.727882">
        <ele>48.684</ele>
        <time>2014-06-24T18:49:36Z</time>
      </trkpt>
      <trkpt lat="59.9516487" lon="17.7278902">
        <ele>47.7225</ele>
        <time>2014-06-24T18:49:37Z</time>
      </trkpt>
      <trkpt lat="59.9516608" lon="17.727902">
        <ele>47.7225</ele>
        <time>2014-06-24T18:49:38Z</time>
      </trkpt>
      <trkpt lat="59.9516738" lon="17.7279043">
        <ele>47.2418</ele>
        <time>2014-06-24T18:49:39Z</time>
      </trkpt>
      <trkpt lat="59.9516886" lon="17.7279058">
        <ele>46.2806</ele>
        <time>2014-06-24T18:49:40Z</time>
      </trkpt>
      <trkpt lat="59.9516992" lon="17.7279151">
        <ele>46.2806</ele>
        <time>2014-06-24T18:49:41Z</time>
      </trkpt>
      <trkpt lat="59.9517098" lon="17.7279229">
        <ele>45.7999</ele>
        <time>2014-06-24T18:49:42Z</time>
      </trkpt>
      <trkpt lat="59.9517209" lon="17.7279249">
        <ele>44.8386</ele>
        <time>2014-06-24T18:49:43Z</time>
      </trkpt>
      <trkpt lat="59.9517316" lon="17.7279273">
        <ele>44.8386</ele>
        <time>2014-06-24T18:49:44Z</time>
      </trkpt>
      <trkpt lat="59.9517436" lon="17.727927">
        <ele>44.8386</ele>
        <time>2014-06-24T18:49:45Z</time>
      </trkpt>
      <trkpt lat="59.9517576" lon="17.7279203">
        <ele>44.358</ele>
        <time>2014-06-24T18:49:46Z</time>
      </trkpt>
      <trkpt lat="59.951775" lon="17.7279173">
        <ele>45.3192</ele>
        <time>2014-06-24T18:49:47Z</time>
      </trkpt>
      <trkpt lat="59.9517885" lon="17.7279192">
        <ele>45.7999</ele>
        <time>2014-06-24T18:49:48Z</time>
      </trkpt>
      <trkpt lat="59.9518084" lon="17.7279136">
        <ele>46.2806</ele>
        <time>2014-06-24T18:49:49Z</time>
      </trkpt>
      <trkpt lat="59.9518218" lon="17.7279058">
        <ele>46.7612</ele>
        <time>2014-06-24T18:49:50Z</time>
      </trkpt>
      <trkpt lat="59.9518339" lon="17.7278973">
        <ele>46.7612</ele>
        <time>2014-06-24T18:49:51Z</time>
      </trkpt>
      <trkpt lat="59.9518432" lon="17.7278892">
        <ele>46.2806</ele>
        <time>2014-06-24T18:49:52Z</time>
      </trkpt>
      <trkpt lat="59.9518546" lon="17.7278783">
        <ele>46.2806</ele>
        <time>2014-06-24T18:49:53Z</time>
      </trkpt>
      <trkpt lat="59.951872" lon="17.7278616">
        <ele>46.2806</ele>
        <time>2014-06-24T18:49:54Z</time>
      </trkpt>
      <trkpt lat="59.9518855" lon="17.7278457">
        <ele>46.2806</ele>
        <time>2014-06-24T18:49:55Z</time>
      </trkpt>
      <trkpt lat="59.9518991" lon="17.7278256">
        <ele>46.2806</ele>
        <time>2014-06-24T18:49:56Z</time>
      </trkpt>
      <trkpt lat="59.9519063" lon="17.7278033">
        <ele>45.7999</ele>
        <time>2014-06-24T18:49:57Z</time>
      </trkpt>
      <trkpt lat="59.9519172" lon="17.7277752">
        <ele>44.8386</ele>
        <time>2014-06-24T18:49:58Z</time>
      </trkpt>
      <trkpt lat="59.9519292" lon="17.7277473">
        <ele>44.8386</ele>
        <time>2014-06-24T18:49:59Z</time>
      </trkpt>
      <trkpt lat="59.9519441" lon="17.7277218">
        <ele>44.8386</ele>
        <time>2014-06-24T18:50:00Z</time>
      </trkpt>
      <trkpt lat="59.9519545" lon="17.7276956">
        <ele>45.3192</ele>
        <time>2014-06-24T18:50:01Z</time>
      </trkpt>
      <trkpt lat="59.9519685" lon="17.7276671">
        <ele>45.7999</ele>
        <time>2014-06-24T18:50:02Z</time>
      </trkpt>
      <trkpt lat="59.9519757" lon="17.7276394">
        <ele>45.7999</ele>
        <time>2014-06-24T18:50:03Z</time>
      </trkpt>
      <trkpt lat="59.9519828" lon="17.7276183">
        <ele>45.3192</ele>
        <time>2014-06-24T18:50:04Z</time>
      </trkpt>
      <trkpt lat="59.9519898" lon="17.7275924">
        <ele>45.3192</ele>
        <time>2014-06-24T18:50:05Z</time>
      </trkpt>
      <trkpt lat="59.951998" lon="17.7275627">
        <ele>45.3192</ele>
        <time>2014-06-24T18:50:06Z</time>
      </trkpt>
      <trkpt lat="59.9520022" lon="17.7275338">
        <ele>45.3192</ele>
        <time>2014-06-24T18:50:07Z</time>
      </trkpt>
      <trkpt lat="59.9520083" lon="17.7274992">
        <ele>45.3192</ele>
        <time>2014-06-24T18:50:08Z</time>
      </trkpt>
      <trkpt lat="59.9520139" lon="17.7274717">
        <ele>45.7999</ele>
        <time>2014-06-24T18:50:09Z</time>
      </trkpt>
      <trkpt lat="59.9520197" lon="17.7274392">
        <ele>45.3192</ele>
        <time>2014-06-24T18:50:10Z</time>
      </trkpt>
      <trkpt lat="59.9520228" lon="17.7274072">
        <ele>45.7999</ele>
        <time>2014-06-24T18:50:11Z</time>
      </trkpt>
      <trkpt lat="59.952026" lon="17.7273779">
        <ele>45.7999</ele>
        <time>2014-06-24T18:50:12Z</time>
      </trkpt>
      <trkpt lat="59.9520252" lon="17.7273443">
        <ele>45.7999</ele>
        <time>2014-06-24T18:50:13Z</time>
      </trkpt>
      <trkpt lat="59.95203" lon="17.7273147">
        <ele>45.7999</ele>
        <time>2014-06-24T18:50:14Z</time>
      </trkpt>
      <trkpt lat="59.9520353" lon="17.7272858">
        <ele>45.7999</ele>
        <time>2014-06-24T18:50:15Z</time>
      </trkpt>
      <trkpt lat="59.9520394" lon="17.7272544">
        <ele>45.3192</ele>
        <time>2014-06-24T18:50:16Z</time>
      </trkpt>
      <trkpt lat="59.9520457" lon="17.7272236">
        <ele>45.7999</ele>
        <time>2014-06-24T18:50:17Z</time>
      </trkpt>
      <trkpt lat="59.9520539" lon="17.7271987">
        <ele>46.2806</ele>
        <time>2014-06-24T18:50:18Z</time>
      </trkpt>
      <trkpt lat="59.9520596" lon="17.7271666">
        <ele>46.7612</ele>
        <time>2014-06-24T18:50:19Z</time>
      </trkpt>
      <trkpt lat="59.9520655" lon="17.7271304">
        <ele>46.7612</ele>
        <time>2014-06-24T18:50:20Z</time>
      </trkpt>
      <trkpt lat="59.9520711" lon="17.7270985">
        <ele>47.2418</ele>
        <time>2014-06-24T18:50:21Z</time>
      </trkpt>
      <trkpt lat="59.9520742" lon="17.727068">
        <ele>47.2418</ele>
        <time>2014-06-24T18:50:22Z</time>
      </trkpt>
      <trkpt lat="59.9520758" lon="17.7270424">
        <ele>46.7612</ele>
        <time>2014-06-24T18:50:23Z</time>
      </trkpt>
      <trkpt lat="59.9520747" lon="17.7270133">
        <ele>46.7612</ele>
        <time>2014-06-24T18:50:24Z</time>
      </trkpt>
      <trkpt lat="59.9520783" lon="17.7269848">
        <ele>47.7225</ele>
        <time>2014-06-24T18:50:25Z</time>
      </trkpt>
      <trkpt lat="59.9520796" lon="17.7269578">
        <ele>47.7225</ele>
        <time>2014-06-24T18:50:26Z</time>
      </trkpt>
      <trkpt lat="59.9520855" lon="17.7269325">
        <ele>47.7225</ele>
        <time>2014-06-24T18:50:27Z</time>
      </trkpt>
      <trkpt lat="59.95209" lon="17.7269059">
        <ele>48.2034</ele>
        <time>2014-06-24T18:50:28Z</time>
      </trkpt>
      <trkpt lat="59.9520954" lon="17.7268789">
        <ele>48.684</ele>
        <time>2014-06-24T18:50:29Z</time>
      </trkpt>
      <trkpt lat="59.952101" lon="17.7268514">
        <ele>49.1646</ele>
        <time>2014-06-24T18:50:30Z</time>
      </trkpt>
      <trkpt lat="59.9521104" lon="17.7268232">
        <ele>49.1646</ele>
        <time>2014-06-24T18:50:31Z</time>
      </trkpt>
      <trkpt lat="59.9521209" lon="17.7267941">
        <ele>49.6453</ele>
        <time>2014-06-24T18:50:32Z</time>
      </trkpt>
      <trkpt lat="59.9521316" lon="17.7267676">
        <ele>50.126</ele>
        <time>2014-06-24T18:50:33Z</time>
      </trkpt>
      <trkpt lat="59.9521372" lon="17.7267371">
        <ele>50.126</ele>
        <time>2014-06-24T18:50:34Z</time>
      </trkpt>
      <trkpt lat="59.9521418" lon="17.7267077">
        <ele>50.6066</ele>
        <time>2014-06-24T18:50:35Z</time>
      </trkpt>
      <trkpt lat="59.9521489" lon="17.7266801">
        <ele>51.0872</ele>
        <time>2014-06-24T18:50:36Z</time>
      </trkpt>
      <trkpt lat="59.9521606" lon="17.7266531">
        <ele>51.5679</ele>
        <time>2014-06-24T18:50:37Z</time>
      </trkpt>
      <trkpt lat="59.9521679" lon="17.726628">
        <ele>52.0486</ele>
        <time>2014-06-24T18:50:38Z</time>
      </trkpt>
      <trkpt lat="59.9521768" lon="17.7266059">
        <ele>52.5292</ele>
        <time>2014-06-24T18:50:39Z</time>
      </trkpt>
      <trkpt lat="59.9521882" lon="17.7265765">
        <ele>53.0098</ele>
        <time>2014-06-24T18:50:40Z</time>
      </trkpt>
      <trkpt lat="59.9522017" lon="17.7265411">
        <ele>54.4518</ele>
        <time>2014-06-24T18:50:41Z</time>
      </trkpt>
      <trkpt lat="59.9522155" lon="17.7265072">
        <ele>53.9712</ele>
        <time>2014-06-24T18:50:42Z</time>
      </trkpt>
      <trkpt lat="59.9522244" lon="17.7264797">
        <ele>53.9712</ele>
        <time>2014-06-24T18:50:43Z</time>
      </trkpt>
      <trkpt lat="59.9522275" lon="17.7264553">
        <ele>53.4905</ele>
        <time>2014-06-24T18:50:44Z</time>
      </trkpt>
      <trkpt lat="59.9522364" lon="17.7264279">
        <ele>53.4905</ele>
        <time>2014-06-24T18:50:45Z</time>
      </trkpt>
      <trkpt lat="59.9522447" lon="17.7263998">
        <ele>53.0098</ele>
        <time>2014-06-24T18:50:46Z</time>
      </trkpt>
      <trkpt lat="59.9522525" lon="17.7263797">
        <ele>52.5292</ele>
        <time>2014-06-24T18:50:47Z</time>
      </trkpt>
      <trkpt lat="59.9522617" lon="17.7263558">
        <ele>52.0486</ele>
        <time>2014-06-24T18:50:48Z</time>
      </trkpt>
      <trkpt lat="59.9522727" lon="17.7263332">
        <ele>52.0486</ele>
        <time>2014-06-24T18:50:49Z</time>
      </trkpt>
      <trkpt lat="59.9522865" lon="17.7263104">
        <ele>52.0486</ele>
        <time>2014-06-24T18:50:50Z</time>
      </trkpt>
      <trkpt lat="59.9522923" lon="17.7262842">
        <ele>52.0486</ele>
        <time>2014-06-24T18:50:51Z</time>
      </trkpt>
      <trkpt lat="59.9523006" lon="17.7262602">
        <ele>52.0486</ele>
        <time>2014-06-24T18:50:52Z</time>
      </trkpt>
      <trkpt lat="59.9523083" lon="17.726232">
        <ele>51.5679</ele>
        <time>2014-06-24T18:50:53Z</time>
      </trkpt>
      <trkpt lat="59.9523186" lon="17.7262099">
        <ele>52.0486</ele>
        <time>2014-06-24T18:50:54Z</time>
      </trkpt>
      <trkpt lat="59.9523335" lon="17.7261899">
        <ele>52.0486</ele>
        <time>2014-06-24T18:50:55Z</time>
      </trkpt>
      <trkpt lat="59.9523482" lon="17.7261689">
        <ele>52.0486</ele>
        <time>2014-06-24T18:50:56Z</time>
      </trkpt>
      <trkpt lat="59.952362" lon="17.7261524">
        <ele>52.0486</ele>
        <time>2014-06-24T18:50:57Z</time>
      </trkpt>
      <trkpt lat="59.9523746" lon="17.7261376">
        <ele>52.0486</ele>
        <time>2014-06-24T18:50:58Z</time>
      </trkpt>
      <trkpt lat="59.9523843" lon="17.7261112">
        <ele>52.0486</ele>
        <time>2014-06-24T18:50:59Z</time>
      </trkpt>
      <trkpt lat="59.9523965" lon="17.7260776">
        <ele>52.0486</ele>
        <time>2014-06-24T18:51:00Z</time>
      </trkpt>
      <trkpt lat="59.9524057" lon="17.7260501">
        <ele>52.0486</ele>
        <time>2014-06-24T18:51:01Z</time>
      </trkpt>
      <trkpt lat="59.9524145" lon="17.7260238">
        <ele>51.5679</ele>
        <time>2014-06-24T18:51:02Z</time>
      </trkpt>
      <trkpt lat="59.9524208" lon="17.7259964">
        <ele>51.0872</ele>
        <time>2014-06-24T18:51:03Z</time>
      </trkpt>
      <trkpt lat="59.952426" lon="17.7259627">
        <ele>50.126</ele>
        <time>2014-06-24T18:51:04Z</time>
      </trkpt>
      <trkpt lat="59.9524383" lon="17.7259288">
        <ele>50.126</ele>
        <time>2014-06-24T18:51:05Z</time>
      </trkpt>
      <trkpt lat="59.9524497" lon="17.7259029">
        <ele>49.1646</ele>
        <time>2014-06-24T18:51:06Z</time>
      </trkpt>
      <trkpt lat="59.9524615" lon="17.7258762">
        <ele>49.1646</ele>
        <time>2014-06-24T18:51:07Z</time>
      </trkpt>
      <trkpt lat="59.9524747" lon="17.7258476">
        <ele>48.684</ele>
        <time>2014-06-24T18:51:08Z</time>
      </trkpt>
      <trkpt lat="59.9524896" lon="17.7258232">
        <ele>48.684</ele>
        <time>2014-06-24T18:51:09Z</time>
      </trkpt>
      <trkpt lat="59.9525029" lon="17.7258007">
        <ele>48.2034</ele>
        <time>2014-06-24T18:51:10Z</time>
      </trkpt>
      <trkpt lat="59.9525124" lon="17.7257838">
        <ele>47.2418</ele>
        <time>2014-06-24T18:51:11Z</time>
      </trkpt>
      <trkpt lat="59.9525217" lon="17.7257735">
        <ele>46.2806</ele>
        <time>2014-06-24T18:51:12Z</time>
      </trkpt>
      <trkpt lat="59.9525322" lon="17.7257475">
        <ele>46.2806</ele>
        <time>2014-06-24T18:51:13Z</time>
      </trkpt>
      <trkpt lat="59.9525451" lon="17.7257206">
        <ele>46.2806</ele>
        <time>2014-06-24T18:51:14Z</time>
      </trkpt>
      <trkpt lat="59.9525541" lon="17.7256938">
        <ele>46.7612</ele>
        <time>2014-06-24T18:51:15Z</time>
      </trkpt>
      <trkpt lat="59.9525652" lon="17.7256691">
        <ele>45.7999</ele>
        <time>2014-06-24T18:51:16Z</time>
      </trkpt>
      <trkpt lat="59.9525755" lon="17.7256502">
        <ele>45.3192</ele>
        <time>2014-06-24T18:51:17Z</time>
      </trkpt>
      <trkpt lat="59.9525848" lon="17.7256296">
        <ele>45.3192</ele>
        <time>2014-06-24T18:51:18Z</time>
      </trkpt>
      <trkpt lat="59.9525967" lon="17.7256116">
        <ele>45.3192</ele>
        <time>2014-06-24T18:51:19Z</time>
      </trkpt>
      <trkpt lat="59.9526111" lon="17.7255932">
        <ele>45.3192</ele>
        <time>2014-06-24T18:51:20Z</time>
      </trkpt>
      <trkpt lat="59.9526284" lon="17.7255795">
        <ele>45.7999</ele>
        <time>2014-06-24T18:51:21Z</time>
      </trkpt>
      <trkpt lat="59.9526396" lon="17.725565">
        <ele>45.7999</ele>
        <time>2014-06-24T18:51:22Z</time>
      </trkpt>
      <trkpt lat="59.9526495" lon="17.7255457">
        <ele>45.3192</ele>
        <time>2014-06-24T18:51:23Z</time>
      </trkpt>
      <trkpt lat="59.95266" lon="17.7255279">
        <ele>45.3192</ele>
        <time>2014-06-24T18:51:24Z</time>
      </trkpt>
      <trkpt lat="59.9526707" lon="17.7255083">
        <ele>44.358</ele>
        <time>2014-06-24T18:51:25Z</time>
      </trkpt>
      <trkpt lat="59.9526834" lon="17.7254892">
        <ele>44.8386</ele>
        <time>2014-06-24T18:51:26Z</time>
      </trkpt>
      <trkpt lat="59.9527004" lon="17.7254723">
        <ele>45.3192</ele>
        <time>2014-06-24T18:51:27Z</time>
      </trkpt>
      <trkpt lat="59.9527174" lon="17.725456">
        <ele>45.7999</ele>
        <time>2014-06-24T18:51:28Z</time>
      </trkpt>
      <trkpt lat="59.9527256" lon="17.7254316">
        <ele>45.7999</ele>
        <time>2014-06-24T18:51:29Z</time>
      </trkpt>
      <trkpt lat="59.9527367" lon="17.7254033">
        <ele>46.7612</ele>
        <time>2014-06-24T18:51:30Z</time>
      </trkpt>
      <trkpt lat="59.9527507" lon="17.7253844">
        <ele>46.7612</ele>
        <time>2014-06-24T18:51:31Z</time>
      </trkpt>
      <trkpt lat="59.9527667" lon="17.7253658">
        <ele>46.2806</ele>
        <time>2014-06-24T18:51:32Z</time>
      </trkpt>
      <trkpt lat="59.95278" lon="17.7253468">
        <ele>46.2806</ele>
        <time>2014-06-24T18:51:33Z</time>
      </trkpt>
      <trkpt lat="59.9527992" lon="17.7253282">
        <ele>46.7612</ele>
        <time>2014-06-24T18:51:34Z</time>
      </trkpt>
      <trkpt lat="59.9528119" lon="17.7252986">
        <ele>46.7612</ele>
        <time>2014-06-24T18:51:35Z</time>
      </trkpt>
      <trkpt lat="59.9528267" lon="17.72527">
        <ele>47.2418</ele>
        <time>2014-06-24T18:51:36Z</time>
      </trkpt>
      <trkpt lat="59.952846" lon="17.7252489">
        <ele>47.2418</ele>
        <time>2014-06-24T18:51:37Z</time>
      </trkpt>
      <trkpt lat="59.9528662" lon="17.7252384">
        <ele>47.2418</ele>
        <time>2014-06-24T18:51:38Z</time>
      </trkpt>
      <trkpt lat="59.9528802" lon="17.7252193">
        <ele>47.2418</ele>
        <time>2014-06-24T18:51:39Z</time>
      </trkpt>
      <trkpt lat="59.9529008" lon="17.7252029">
        <ele>47.2418</ele>
        <time>2014-06-24T18:51:40Z</time>
      </trkpt>
      <trkpt lat="59.9529169" lon="17.7251908">
        <ele>47.2418</ele>
        <time>2014-06-24T18:51:41Z</time>
      </trkpt>
      <trkpt lat="59.9529349" lon="17.7251865">
        <ele>47.7225</ele>
        <time>2014-06-24T18:51:42Z</time>
      </trkpt>
      <trkpt lat="59.9529475" lon="17.7251697">
        <ele>48.2034</ele>
        <time>2014-06-24T18:51:43Z</time>
      </trkpt>
      <trkpt lat="59.9529624" lon="17.7251479">
        <ele>48.2034</ele>
        <time>2014-06-24T18:51:44Z</time>
      </trkpt>
      <trkpt lat="59.9529698" lon="17.725123">
        <ele>47.7225</ele>
        <time>2014-06-24T18:51:45Z</time>
      </trkpt>
      <trkpt lat="59.952979" lon="17.7250997">
        <ele>47.7225</ele>
        <time>2014-06-24T18:51:46Z</time>
      </trkpt>
      <trkpt lat="59.9529929" lon="17.7250821">
        <ele>48.2034</ele>
        <time>2014-06-24T18:51:47Z</time>
      </trkpt>
      <trkpt lat="59.9530009" lon="17.7250641">
        <ele>48.684</ele>
        <time>2014-06-24T18:51:48Z</time>
      </trkpt>
      <trkpt lat="59.9530147" lon="17.7250391">
        <ele>49.1646</ele>
        <time>2014-06-24T18:51:49Z</time>
      </trkpt>
      <trkpt lat="59.9530242" lon="17.7250085">
        <ele>49.1646</ele>
        <time>2014-06-24T18:51:50Z</time>
      </trkpt>
      <trkpt lat="59.9530365" lon="17.7249878">
        <ele>49.6453</ele>
        <time>2014-06-24T18:51:51Z</time>
      </trkpt>
      <trkpt lat="59.9530465" lon="17.7249679">
        <ele>50.126</ele>
        <time>2014-06-24T18:51:52Z</time>
      </trkpt>
      <trkpt lat="59.9530578" lon="17.7249493">
        <ele>50.6066</ele>
        <time>2014-06-24T18:51:53Z</time>
      </trkpt>
      <trkpt lat="59.9530667" lon="17.7249251">
        <ele>50.6066</ele>
        <time>2014-06-24T18:51:54Z</time>
      </trkpt>
      <trkpt lat="59.9530712" lon="17.7249007">
        <ele>50.126</ele>
        <time>2014-06-24T18:51:55Z</time>
      </trkpt>
      <trkpt lat="59.9530815" lon="17.7248796">
        <ele>50.6066</ele>
        <time>2014-06-24T18:51:56Z</time>
      </trkpt>
      <trkpt lat="59.9530879" lon="17.7248577">
        <ele>50.6066</ele>
        <time>2014-06-24T18:51:57Z</time>
      </trkpt>
      <trkpt lat="59.9530944" lon="17.7248327">
        <ele>52.0486</ele>
        <time>2014-06-24T18:51:58Z</time>
      </trkpt>
      <trkpt lat="59.9531071" lon="17.7248122">
        <ele>52.5292</ele>
        <time>2014-06-24T18:51:59Z</time>
      </trkpt>
      <trkpt lat="59.9531206" lon="17.7247919">
        <ele>53.4905</ele>
        <time>2014-06-24T18:52:00Z</time>
      </trkpt>
      <trkpt lat="59.9531354" lon="17.7247742">
        <ele>53.4905</ele>
        <time>2014-06-24T18:52:01Z</time>
      </trkpt>
      <trkpt lat="59.9531548" lon="17.7247545">
        <ele>53.9712</ele>
        <time>2014-06-24T18:52:02Z</time>
      </trkpt>
      <trkpt lat="59.9531749" lon="17.7247474">
        <ele>54.4518</ele>
        <time>2014-06-24T18:52:03Z</time>
      </trkpt>
      <trkpt lat="59.9531859" lon="17.7247279">
        <ele>54.9324</ele>
        <time>2014-06-24T18:52:04Z</time>
      </trkpt>
      <trkpt lat="59.9531985" lon="17.724694">
        <ele>54.9324</ele>
        <time>2014-06-24T18:52:05Z</time>
      </trkpt>
      <trkpt lat="59.9532134" lon="17.7246593">
        <ele>55.4131</ele>
        <time>2014-06-24T18:52:06Z</time>
      </trkpt>
      <trkpt lat="59.9532272" lon="17.7246272">
        <ele>56.3745</ele>
        <time>2014-06-24T18:52:07Z</time>
      </trkpt>
      <trkpt lat="59.9532333" lon="17.7246012">
        <ele>55.8938</ele>
        <time>2014-06-24T18:52:08Z</time>
      </trkpt>
      <trkpt lat="59.953238" lon="17.7245745">
        <ele>55.4131</ele>
        <time>2014-06-24T18:52:09Z</time>
      </trkpt>
      <trkpt lat="59.9532474" lon="17.7245515">
        <ele>54.9324</ele>
        <time>2014-06-24T18:52:10Z</time>
      </trkpt>
      <trkpt lat="59.9532567" lon="17.7245299">
        <ele>53.9712</ele>
        <time>2014-06-24T18:52:11Z</time>
      </trkpt>
      <trkpt lat="59.953266" lon="17.7245101">
        <ele>53.4905</ele>
        <time>2014-06-24T18:52:12Z</time>
      </trkpt>
      <trkpt lat="59.9532764" lon="17.7245008">
        <ele>52.5292</ele>
        <time>2014-06-24T18:52:13Z</time>
      </trkpt>
      <trkpt lat="59.9532884" lon="17.7244875">
        <ele>52.5292</ele>
        <time>2014-06-24T18:52:14Z</time>
      </trkpt>
      <trkpt lat="59.9533018" lon="17.7244719">
        <ele>53.0098</ele>
        <time>2014-06-24T18:52:15Z</time>
      </trkpt>
      <trkpt lat="59.9533127" lon="17.7244589">
        <ele>52.0486</ele>
        <time>2014-06-24T18:52:16Z</time>
      </trkpt>
      <trkpt lat="59.9533221" lon="17.7244376">
        <ele>51.0872</ele>
        <time>2014-06-24T18:52:17Z</time>
      </trkpt>
      <trkpt lat="59.9533282" lon="17.7244249">
        <ele>50.6066</ele>
        <time>2014-06-24T18:52:18Z</time>
      </trkpt>
      <trkpt lat="59.9533374" lon="17.7243956">
        <ele>51.0872</ele>
        <time>2014-06-24T18:52:19Z</time>
      </trkpt>
      <trkpt lat="59.9533472" lon="17.7243484">
        <ele>50.6066</ele>
        <time>2014-06-24T18:52:20Z</time>
      </trkpt>
      <trkpt lat="59.9533567" lon="17.7242933">
        <ele>50.6066</ele>
        <time>2014-06-24T18:52:21Z</time>
      </trkpt>
      <trkpt lat="59.9533654" lon="17.7242492">
        <ele>50.6066</ele>
        <time>2014-06-24T18:52:22Z</time>
      </trkpt>
      <trkpt lat="59.9533707" lon="17.7242129">
        <ele>50.126</ele>
        <time>2014-06-24T18:52:23Z</time>
      </trkpt>
      <trkpt lat="59.9533806" lon="17.7241972">
        <ele>49.1646</ele>
        <time>2014-06-24T18:52:24Z</time>
      </trkpt>
      <trkpt lat="59.9533842" lon="17.7242004">
        <ele>48.684</ele>
        <time>2014-06-24T18:52:25Z</time>
      </trkpt>
      <trkpt lat="59.9533926" lon="17.7241834">
        <ele>48.684</ele>
        <time>2014-06-24T18:52:26Z</time>
      </trkpt>
      <trkpt lat="59.9534034" lon="17.7241682">
        <ele>48.684</ele>
        <time>2014-06-24T18:52:27Z</time>
      </trkpt>
      <trkpt lat="59.9534146" lon="17.7241538">
        <ele>49.1646</ele>
        <time>2014-06-24T18:52:28Z</time>
      </trkpt>
      <trkpt lat="59.9534277" lon="17.7241449">
        <ele>49.6453</ele>
        <time>2014-06-24T18:52:29Z</time>
      </trkpt>
      <trkpt lat="59.9534406" lon="17.7241254">
        <ele>50.126</ele>
        <time>2014-06-24T18:52:30Z</time>
      </trkpt>
      <trkpt lat="59.9534524" lon="17.7241088">
        <ele>50.6066</ele>
        <time>2014-06-24T18:52:31Z</time>
      </trkpt>
      <trkpt lat="59.9534636" lon="17.7240838">
        <ele>50.126</ele>
        <time>2014-06-24T18:52:32Z</time>
      </trkpt>
      <trkpt lat="59.9534721" lon="17.7240645">
        <ele>51.0872</ele>
        <time>2014-06-24T18:52:33Z</time>
      </trkpt>
      <trkpt lat="59.9534805" lon="17.72404">
        <ele>52.5292</ele>
        <time>2014-06-24T18:52:34Z</time>
      </trkpt>
      <trkpt lat="59.9534904" lon="17.7240336">
        <ele>54.4518</ele>
        <time>2014-06-24T18:52:35Z</time>
      </trkpt>
      <trkpt lat="59.9534959" lon="17.7240198">
        <ele>55.8938</ele>
        <time>2014-06-24T18:52:36Z</time>
      </trkpt>
      <trkpt lat="59.9535066" lon="17.7240062">
        <ele>55.8938</ele>
        <time>2014-06-24T18:52:37Z</time>
      </trkpt>
      <trkpt lat="59.9535266" lon="17.7239786">
        <ele>56.3745</ele>
        <time>2014-06-24T18:52:38Z</time>
      </trkpt>
      <trkpt lat="59.9535443" lon="17.7239635">
        <ele>57.3358</ele>
        <time>2014-06-24T18:52:39Z</time>
      </trkpt>
      <trkpt lat="59.953557" lon="17.7239456">
        <ele>59.2584</ele>
        <time>2014-06-24T18:52:40Z</time>
      </trkpt>
      <trkpt lat="59.9535684" lon="17.7239345">
        <ele>60.7003</ele>
        <time>2014-06-24T18:52:41Z</time>
      </trkpt>
      <trkpt lat="59.9535914" lon="17.7239253">
        <ele>63.1036</ele>
        <time>2014-06-24T18:52:42Z</time>
      </trkpt>
      <trkpt lat="59.9536107" lon="17.7239029">
        <ele>64.0651</ele>
        <time>2014-06-24T18:52:43Z</time>
      </trkpt>
      <trkpt lat="59.9536235" lon="17.7238772">
        <ele>64.5457</ele>
        <time>2014-06-24T18:52:44Z</time>
      </trkpt>
      <trkpt lat="59.953635" lon="17.7238571">
        <ele>64.5457</ele>
        <time>2014-06-24T18:52:45Z</time>
      </trkpt>
      <trkpt lat="59.9536463" lon="17.7238257">
        <ele>64.0651</ele>
        <time>2014-06-24T18:52:46Z</time>
      </trkpt>
      <trkpt lat="59.9536508" lon="17.7237952">
        <ele>62.1423</ele>
        <time>2014-06-24T18:52:47Z</time>
      </trkpt>
      <trkpt lat="59.9536546" lon="17.7237747">
        <ele>60.7003</ele>
        <time>2014-06-24T18:52:48Z</time>
      </trkpt>
      <trkpt lat="59.9536629" lon="17.7237291">
        <ele>60.2197</ele>
        <time>2014-06-24T18:52:49Z</time>
      </trkpt>
      <trkpt lat="59.9536749" lon="17.7236945">
        <ele>60.2197</ele>
        <time>2014-06-24T18:52:50Z</time>
      </trkpt>
      <trkpt lat="59.9536899" lon="17.72367">
        <ele>59.7391</ele>
        <time>2014-06-24T18:52:51Z</time>
      </trkpt>
      <trkpt lat="59.9536945" lon="17.7236389">
        <ele>58.2971</ele>
        <time>2014-06-24T18:52:52Z</time>
      </trkpt>
      <trkpt lat="59.9537055" lon="17.7236085">
        <ele>57.3358</ele>
        <time>2014-06-24T18:52:53Z</time>
      </trkpt>
      <trkpt lat="59.9537269" lon="17.7235821">
        <ele>57.8165</ele>
        <time>2014-06-24T18:52:54Z</time>
      </trkpt>
      <trkpt lat="59.9537493" lon="17.7235544">
        <ele>58.2971</ele>
        <time>2014-06-24T18:52:55Z</time>
      </trkpt>
      <trkpt lat="59.9537639" lon="17.7235348">
        <ele>58.2971</ele>
        <time>2014-06-24T18:52:56Z</time>
      </trkpt>
      <trkpt lat="59.953787" lon="17.723532">
        <ele>58.7777</ele>
        <time>2014-06-24T18:52:57Z</time>
      </trkpt>
      <trkpt lat="59.9538042" lon="17.723526">
        <ele>58.7777</ele>
        <time>2014-06-24T18:52:58Z</time>
      </trkpt>
      <trkpt lat="59.9538264" lon="17.7235178">
        <ele>59.7391</ele>
        <time>2014-06-24T18:52:59Z</time>
      </trkpt>
      <trkpt lat="59.95385" lon="17.7235118">
        <ele>61.181</ele>
        <time>2014-06-24T18:53:00Z</time>
      </trkpt>
      <trkpt lat="59.9538678" lon="17.7235027">
        <ele>62.6229</ele>
        <time>2014-06-24T18:53:01Z</time>
      </trkpt>
      <trkpt lat="59.9538825" lon="17.7234865">
        <ele>62.6229</ele>
        <time>2014-06-24T18:53:02Z</time>
      </trkpt>
      <trkpt lat="59.9539028" lon="17.7234779">
        <ele>64.0651</ele>
        <time>2014-06-24T18:53:03Z</time>
      </trkpt>
      <trkpt lat="59.9539253" lon="17.7234503">
        <ele>65.0264</ele>
        <time>2014-06-24T18:53:04Z</time>
      </trkpt>
      <trkpt lat="59.9539427" lon="17.7234265">
        <ele>65.9877</ele>
        <time>2014-06-24T18:53:05Z</time>
      </trkpt>
      <trkpt lat="59.9539504" lon="17.7234089">
        <ele>65.0264</ele>
        <time>2014-06-24T18:53:06Z</time>
      </trkpt>
      <trkpt lat="59.9539642" lon="17.7233956">
        <ele>65.5071</ele>
        <time>2014-06-24T18:53:07Z</time>
      </trkpt>
      <trkpt lat="59.9539784" lon="17.7233862">
        <ele>65.9877</ele>
        <time>2014-06-24T18:53:08Z</time>
      </trkpt>
      <trkpt lat="59.9539956" lon="17.7233778">
        <ele>65.9877</ele>
        <time>2014-06-24T18:53:09Z</time>
      </trkpt>
      <trkpt lat="59.954009" lon="17.7233607">
        <ele>66.4683</ele>
        <time>2014-06-24T18:53:10Z</time>
      </trkpt>
      <trkpt lat="59.954017" lon="17.7233296">
        <ele>67.4297</ele>
        <time>2014-06-24T18:53:11Z</time>
      </trkpt>
      <trkpt lat="59.9540208" lon="17.7232963">
        <ele>66.4683</ele>
        <time>2014-06-24T18:53:12Z</time>
      </trkpt>
      <trkpt lat="59.9540211" lon="17.7232653">
        <ele>64.5457</ele>
        <time>2014-06-24T18:53:13Z</time>
      </trkpt>
      <trkpt lat="59.954027" lon="17.7232326">
        <ele>63.5844</ele>
        <time>2014-06-24T18:53:14Z</time>
      </trkpt>
      <trkpt lat="59.9540427" lon="17.7232088">
        <ele>64.0651</ele>
        <time>2014-06-24T18:53:15Z</time>
      </trkpt>
      <trkpt lat="59.9540487" lon="17.7231933">
        <ele>62.6229</ele>
        <time>2014-06-24T18:53:16Z</time>
      </trkpt>
      <trkpt lat="59.9540519" lon="17.7231829">
        <ele>62.1423</ele>
        <time>2014-06-24T18:53:17Z</time>
      </trkpt>
      <trkpt lat="59.9540569" lon="17.7231784">
        <ele>60.2197</ele>
        <time>2014-06-24T18:53:18Z</time>
      </trkpt>
      <trkpt lat="59.9540633" lon="17.7231687">
        <ele>59.2584</ele>
        <time>2014-06-24T18:53:19Z</time>
      </trkpt>
      <trkpt lat="59.9540831" lon="17.7231742">
        <ele>57.8165</ele>
        <time>2014-06-24T18:53:20Z</time>
      </trkpt>
      <trkpt lat="59.9541001" lon="17.7231746">
        <ele>55.8938</ele>
        <time>2014-06-24T18:53:21Z</time>
      </trkpt>
      <trkpt lat="59.9541203" lon="17.7231825">
        <ele>54.9324</ele>
        <time>2014-06-24T18:53:22Z</time>
      </trkpt>
      <trkpt lat="59.9541348" lon="17.7231798">
        <ele>55.4131</ele>
        <time>2014-06-24T18:53:23Z</time>
      </trkpt>
      <trkpt lat="59.9541395" lon="17.7231725">
        <ele>55.4131</ele>
        <time>2014-06-24T18:53:24Z</time>
      </trkpt>
      <trkpt lat="59.9541546" lon="17.7231738">
        <ele>55.4131</ele>
        <time>2014-06-24T18:53:25Z</time>
      </trkpt>
      <trkpt lat="59.9541752" lon="17.7231738">
        <ele>54.4518</ele>
        <time>2014-06-24T18:53:26Z</time>
      </trkpt>
      <trkpt lat="59.954199" lon="17.7231803">
        <ele>53.9712</ele>
        <time>2014-06-24T18:53:27Z</time>
      </trkpt>
      <trkpt lat="59.9542195" lon="17.7231873">
        <ele>54.9324</ele>
        <time>2014-06-24T18:53:28Z</time>
      </trkpt>
      <trkpt lat="59.9542413" lon="17.7232062">
        <ele>55.8938</ele>
        <time>2014-06-24T18:53:29Z</time>
      </trkpt>
      <trkpt lat="59.9542576" lon="17.7232238">
        <ele>57.3358</ele>
        <time>2014-06-24T18:53:30Z</time>
      </trkpt>
      <trkpt lat="59.9542827" lon="17.7232365">
        <ele>59.2584</ele>
        <time>2014-06-24T18:53:31Z</time>
      </trkpt>
      <trkpt lat="59.9543061" lon="17.7232406">
        <ele>59.2584</ele>
        <time>2014-06-24T18:53:32Z</time>
      </trkpt>
      <trkpt lat="59.9543254" lon="17.7232518">
        <ele>59.2584</ele>
        <time>2014-06-24T18:53:33Z</time>
      </trkpt>
      <trkpt lat="59.9543426" lon="17.7232654">
        <ele>60.7003</ele>
        <time>2014-06-24T18:53:34Z</time>
      </trkpt>
      <trkpt lat="59.9543607" lon="17.7232769">
        <ele>61.181</ele>
        <time>2014-06-24T18:53:35Z</time>
      </trkpt>
      <trkpt lat="59.9543772" lon="17.7232901">
        <ele>61.181</ele>
        <time>2014-06-24T18:53:36Z</time>
      </trkpt>
      <trkpt lat="59.9543936" lon="17.7233082">
        <ele>62.1423</ele>
        <time>2014-06-24T18:53:37Z</time>
      </trkpt>
      <trkpt lat="59.9544145" lon="17.7233218">
        <ele>62.6229</ele>
        <time>2014-06-24T18:53:38Z</time>
      </trkpt>
      <trkpt lat="59.9544384" lon="17.7233348">
        <ele>63.1036</ele>
        <time>2014-06-24T18:53:39Z</time>
      </trkpt>
      <trkpt lat="59.954455" lon="17.7233469">
        <ele>62.6229</ele>
        <time>2014-06-24T18:53:40Z</time>
      </trkpt>
      <trkpt lat="59.9544668" lon="17.7233696">
        <ele>63.1036</ele>
        <time>2014-06-24T18:53:41Z</time>
      </trkpt>
      <trkpt lat="59.9544757" lon="17.7233768">
        <ele>62.1423</ele>
        <time>2014-06-24T18:53:42Z</time>
      </trkpt>
      <trkpt lat="59.9544827" lon="17.7233789">
        <ele>60.7003</ele>
        <time>2014-06-24T18:53:43Z</time>
      </trkpt>
      <trkpt lat="59.9544978" lon="17.7233758">
        <ele>61.181</ele>
        <time>2014-06-24T18:53:44Z</time>
      </trkpt>
      <trkpt lat="59.9545129" lon="17.7233829">
        <ele>61.6617</ele>
        <time>2014-06-24T18:53:45Z</time>
      </trkpt>
      <trkpt lat="59.9545274" lon="17.7233911">
        <ele>61.6617</ele>
        <time>2014-06-24T18:53:46Z</time>
      </trkpt>
      <trkpt lat="59.9545457" lon="17.723397">
        <ele>62.1423</ele>
        <time>2014-06-24T18:53:47Z</time>
      </trkpt>
      <trkpt lat="59.9545637" lon="17.7234101">
        <ele>62.6229</ele>
        <time>2014-06-24T18:53:48Z</time>
      </trkpt>
      <trkpt lat="59.9545741" lon="17.7234219">
        <ele>62.6229</ele>
        <time>2014-06-24T18:53:49Z</time>
      </trkpt>
      <trkpt lat="59.9545881" lon="17.7234386">
        <ele>63.5844</ele>
        <time>2014-06-24T18:53:50Z</time>
      </trkpt>
      <trkpt lat="59.954601" lon="17.7234492">
        <ele>65.0264</ele>
        <time>2014-06-24T18:53:51Z</time>
      </trkpt>
      <trkpt lat="59.9546087" lon="17.7234588">
        <ele>65.5071</ele>
        <time>2014-06-24T18:53:52Z</time>
      </trkpt>
      <trkpt lat="59.9546255" lon="17.7234664">
        <ele>65.0264</ele>
        <time>2014-06-24T18:53:53Z</time>
      </trkpt>
      <trkpt lat="59.954644" lon="17.7234823">
        <ele>65.0264</ele>
        <time>2014-06-24T18:53:54Z</time>
      </trkpt>
      <trkpt lat="59.9546615" lon="17.7235007">
        <ele>65.0264</ele>
        <time>2014-06-24T18:53:55Z</time>
      </trkpt>
      <trkpt lat="59.9546838" lon="17.7235176">
        <ele>65.0264</ele>
        <time>2014-06-24T18:53:56Z</time>
      </trkpt>
      <trkpt lat="59.9547049" lon="17.7235291">
        <ele>65.0264</ele>
        <time>2014-06-24T18:53:57Z</time>
      </trkpt>
      <trkpt lat="59.9547241" lon="17.7235432">
        <ele>65.9877</ele>
        <time>2014-06-24T18:53:58Z</time>
      </trkpt>
      <trkpt lat="59.9547443" lon="17.7235622">
        <ele>67.4297</ele>
        <time>2014-06-24T18:53:59Z</time>
      </trkpt>
      <trkpt lat="59.9547625" lon="17.7235814">
        <ele>69.3523</ele>
        <time>2014-06-24T18:54:00Z</time>
      </trkpt>
      <trkpt lat="59.9547777" lon="17.7235969">
        <ele>69.3523</ele>
        <time>2014-06-24T18:54:01Z</time>
      </trkpt>
      <trkpt lat="59.9547916" lon="17.7236068">
        <ele>68.3909</ele>
        <time>2014-06-24T18:54:02Z</time>
      </trkpt>
      <trkpt lat="59.9548035" lon="17.7236247">
        <ele>67.9103</ele>
        <time>2014-06-24T18:54:03Z</time>
      </trkpt>
      <trkpt lat="59.954818" lon="17.7236335">
        <ele>68.8716</ele>
        <time>2014-06-24T18:54:04Z</time>
      </trkpt>
      <trkpt lat="59.9548284" lon="17.7236457">
        <ele>68.8716</ele>
        <time>2014-06-24T18:54:05Z</time>
      </trkpt>
      <trkpt lat="59.9548441" lon="17.7236605">
        <ele>68.8716</ele>
        <time>2014-06-24T18:54:06Z</time>
      </trkpt>
      <trkpt lat="59.9548627" lon="17.723671">
        <ele>69.3523</ele>
        <time>2014-06-24T18:54:07Z</time>
      </trkpt>
      <trkpt lat="59.9548796" lon="17.7236798">
        <ele>69.3523</ele>
        <time>2014-06-24T18:54:08Z</time>
      </trkpt>
      <trkpt lat="59.9548893" lon="17.7236861">
        <ele>68.3909</ele>
        <time>2014-06-24T18:54:09Z</time>
      </trkpt>
      <trkpt lat="59.9548958" lon="17.7237004">
        <ele>66.949</ele>
        <time>2014-06-24T18:54:10Z</time>
      </trkpt>
      <trkpt lat="59.9549018" lon="17.7237038">
        <ele>65.9877</ele>
        <time>2014-06-24T18:54:11Z</time>
      </trkpt>
      <trkpt lat="59.9549346" lon="17.7237084">
        <ele>66.4683</ele>
        <time>2014-06-24T18:54:13Z</time>
      </trkpt>
      <trkpt lat="59.9549523" lon="17.7237161">
        <ele>65.5071</ele>
        <time>2014-06-24T18:54:14Z</time>
      </trkpt>
      <trkpt lat="59.9549662" lon="17.7237173">
        <ele>65.0264</ele>
        <time>2014-06-24T18:54:15Z</time>
      </trkpt>
      <trkpt lat="59.9549789" lon="17.723715">
        <ele>64.0651</ele>
        <time>2014-06-24T18:54:16Z</time>
      </trkpt>
      <trkpt lat="59.954991" lon="17.7237141">
        <ele>62.1423</ele>
        <time>2014-06-24T18:54:17Z</time>
      </trkpt>
      <trkpt lat="59.9550038" lon="17.7237042">
        <ele>60.7003</ele>
        <time>2014-06-24T18:54:18Z</time>
      </trkpt>
      <trkpt lat="59.9550184" lon="17.723689">
        <ele>60.2197</ele>
        <time>2014-06-24T18:54:19Z</time>
      </trkpt>
      <trkpt lat="59.9550285" lon="17.723676">
        <ele>59.7391</ele>
        <time>2014-06-24T18:54:20Z</time>
      </trkpt>
      <trkpt lat="59.9550444" lon="17.7236693">
        <ele>59.7391</ele>
        <time>2014-06-24T18:54:21Z</time>
      </trkpt>
      <trkpt lat="59.9550584" lon="17.7236628">
        <ele>58.7777</ele>
        <time>2014-06-24T18:54:22Z</time>
      </trkpt>
      <trkpt lat="59.9550781" lon="17.7236404">
        <ele>58.7777</ele>
        <time>2014-06-24T18:54:23Z</time>
      </trkpt>
      <trkpt lat="59.9551035" lon="17.7236405">
        <ele>60.2197</ele>
        <time>2014-06-24T18:54:24Z</time>
      </trkpt>
      <trkpt lat="59.9551108" lon="17.7236379">
        <ele>59.2584</ele>
        <time>2014-06-24T18:54:25Z</time>
      </trkpt>
      <trkpt lat="59.9551154" lon="17.723625">
        <ele>58.7777</ele>
        <time>2014-06-24T18:54:26Z</time>
      </trkpt>
      <trkpt lat="59.9551255" lon="17.7236152">
        <ele>58.7777</ele>
        <time>2014-06-24T18:54:27Z</time>
      </trkpt>
      <trkpt lat="59.9551435" lon="17.7236058">
        <ele>59.7391</ele>
        <time>2014-06-24T18:54:28Z</time>
      </trkpt>
      <trkpt lat="59.955161" lon="17.7236028">
        <ele>60.7003</ele>
        <time>2014-06-24T18:54:29Z</time>
      </trkpt>
      <trkpt lat="59.9551802" lon="17.7235878">
        <ele>61.6617</ele>
        <time>2014-06-24T18:54:30Z</time>
      </trkpt>
      <trkpt lat="59.9551939" lon="17.7235699">
        <ele>62.1423</ele>
        <time>2014-06-24T18:54:31Z</time>
      </trkpt>
      <trkpt lat="59.9552065" lon="17.7235421">
        <ele>61.6617</ele>
        <time>2014-06-24T18:54:32Z</time>
      </trkpt>
      <trkpt lat="59.9552164" lon="17.7235167">
        <ele>61.6617</ele>
        <time>2014-06-24T18:54:33Z</time>
      </trkpt>
      <trkpt lat="59.9552299" lon="17.7235002">
        <ele>62.1423</ele>
        <time>2014-06-24T18:54:34Z</time>
      </trkpt>
      <trkpt lat="59.9552467" lon="17.7234763">
        <ele>61.6617</ele>
        <time>2014-06-24T18:54:35Z</time>
      </trkpt>
      <trkpt lat="59.9552615" lon="17.7234659">
        <ele>61.181</ele>
        <time>2014-06-24T18:54:36Z</time>
      </trkpt>
      <trkpt lat="59.9552725" lon="17.7234576">
        <ele>60.7003</ele>
        <time>2014-06-24T18:54:37Z</time>
      </trkpt>
      <trkpt lat="59.9552837" lon="17.7234419">
        <ele>60.7003</ele>
        <time>2014-06-24T18:54:38Z</time>
      </trkpt>
      <trkpt lat="59.955293" lon="17.7234286">
        <ele>61.181</ele>
        <time>2014-06-24T18:54:39Z</time>
      </trkpt>
      <trkpt lat="59.9553076" lon="17.7234234">
        <ele>62.6229</ele>
        <time>2014-06-24T18:54:40Z</time>
      </trkpt>
      <trkpt lat="59.9553257" lon="17.7234139">
        <ele>63.5844</ele>
        <time>2014-06-24T18:54:41Z</time>
      </trkpt>
      <trkpt lat="59.9553392" lon="17.7234013">
        <ele>64.0651</ele>
        <time>2014-06-24T18:54:42Z</time>
      </trkpt>
      <trkpt lat="59.9553529" lon="17.7233899">
        <ele>64.0651</ele>
        <time>2014-06-24T18:54:43Z</time>
      </trkpt>
      <trkpt lat="59.9553629" lon="17.7233888">
        <ele>65.0264</ele>
        <time>2014-06-24T18:54:44Z</time>
      </trkpt>
      <trkpt lat="59.9553771" lon="17.7233877">
        <ele>65.0264</ele>
        <time>2014-06-24T18:54:45Z</time>
      </trkpt>
      <trkpt lat="59.9553955" lon="17.7233961">
        <ele>65.9877</ele>
        <time>2014-06-24T18:54:46Z</time>
      </trkpt>
      <trkpt lat="59.955406" lon="17.7234026">
        <ele>65.9877</ele>
        <time>2014-06-24T18:54:47Z</time>
      </trkpt>
      <trkpt lat="59.9554164" lon="17.7234012">
        <ele>65.9877</ele>
        <time>2014-06-24T18:54:48Z</time>
      </trkpt>
      <trkpt lat="59.955426" lon="17.7233986">
        <ele>64.5457</ele>
        <time>2014-06-24T18:54:49Z</time>
      </trkpt>
      <trkpt lat="59.9554345" lon="17.7234039">
        <ele>63.5844</ele>
        <time>2014-06-24T18:54:50Z</time>
      </trkpt>
      <trkpt lat="59.9554465" lon="17.7234166">
        <ele>63.1036</ele>
        <time>2014-06-24T18:54:51Z</time>
      </trkpt>
      <trkpt lat="59.955462" lon="17.7234277">
        <ele>62.1423</ele>
        <time>2014-06-24T18:54:52Z</time>
      </trkpt>
      <trkpt lat="59.9554801" lon="17.7234355">
        <ele>61.181</ele>
        <time>2014-06-24T18:54:53Z</time>
      </trkpt>
      <trkpt lat="59.9554946" lon="17.7234386">
        <ele>61.6617</ele>
        <time>2014-06-24T18:54:54Z</time>
      </trkpt>
      <trkpt lat="59.9555109" lon="17.7234457">
        <ele>62.1423</ele>
        <time>2014-06-24T18:54:55Z</time>
      </trkpt>
      <trkpt lat="59.9555251" lon="17.7234596">
        <ele>61.181</ele>
        <time>2014-06-24T18:54:56Z</time>
      </trkpt>
      <trkpt lat="59.9555391" lon="17.723474">
        <ele>59.7391</ele>
        <time>2014-06-24T18:54:57Z</time>
      </trkpt>
      <trkpt lat="59.9555579" lon="17.7234893">
        <ele>59.2584</ele>
        <time>2014-06-24T18:54:58Z</time>
      </trkpt>
      <trkpt lat="59.9555762" lon="17.7235025">
        <ele>59.2584</ele>
        <time>2014-06-24T18:54:59Z</time>
      </trkpt>
      <trkpt lat="59.9555939" lon="17.723517">
        <ele>60.2197</ele>
        <time>2014-06-24T18:55:00Z</time>
      </trkpt>
      <trkpt lat="59.9556137" lon="17.7235337">
        <ele>61.181</ele>
        <time>2014-06-24T18:55:01Z</time>
      </trkpt>
      <trkpt lat="59.9556297" lon="17.7235497">
        <ele>61.181</ele>
        <time>2014-06-24T18:55:02Z</time>
      </trkpt>
      <trkpt lat="59.9556453" lon="17.7235669">
        <ele>61.181</ele>
        <time>2014-06-24T18:55:03Z</time>
      </trkpt>
      <trkpt lat="59.9556598" lon="17.7235804">
        <ele>61.6617</ele>
        <time>2014-06-24T18:55:04Z</time>
      </trkpt>
      <trkpt lat="59.955679" lon="17.7235958">
        <ele>61.6617</ele>
        <time>2014-06-24T18:55:05Z</time>
      </trkpt>
      <trkpt lat="59.9556935" lon="17.7236088">
        <ele>61.6617</ele>
        <time>2014-06-24T18:55:06Z</time>
      </trkpt>
      <trkpt lat="59.9557216" lon="17.7236187">
        <ele>64.0651</ele>
        <time>2014-06-24T18:55:07Z</time>
      </trkpt>
      <trkpt lat="59.9557475" lon="17.723631">
        <ele>65.5071</ele>
        <time>2014-06-24T18:55:08Z</time>
      </trkpt>
      <trkpt lat="59.9557629" lon="17.7236463">
        <ele>66.4683</ele>
        <time>2014-06-24T18:55:09Z</time>
      </trkpt>
      <trkpt lat="59.9557808" lon="17.7236617">
        <ele>66.949</ele>
        <time>2014-06-24T18:55:10Z</time>
      </trkpt>
      <trkpt lat="59.9557979" lon="17.7236743">
        <ele>66.949</ele>
        <time>2014-06-24T18:55:11Z</time>
      </trkpt>
      <trkpt lat="59.9558142" lon="17.7236985">
        <ele>67.4297</ele>
        <time>2014-06-24T18:55:12Z</time>
      </trkpt>
      <trkpt lat="59.9558292" lon="17.7237187">
        <ele>67.4297</ele>
        <time>2014-06-24T18:55:13Z</time>
      </trkpt>
      <trkpt lat="59.9558468" lon="17.7237389">
        <ele>68.8716</ele>
        <time>2014-06-24T18:55:14Z</time>
      </trkpt>
      <trkpt lat="59.9558649" lon="17.7237525">
        <ele>68.8716</ele>
        <time>2014-06-24T18:55:15Z</time>
      </trkpt>
      <trkpt lat="59.9558808" lon="17.7237652">
        <ele>68.3909</ele>
        <time>2014-06-24T18:55:16Z</time>
      </trkpt>
      <trkpt lat="59.9558912" lon="17.7237788">
        <ele>67.9103</ele>
        <time>2014-06-24T18:55:17Z</time>
      </trkpt>
      <trkpt lat="59.9558986" lon="17.7237776">
        <ele>66.4683</ele>
        <time>2014-06-24T18:55:18Z</time>
      </trkpt>
      <trkpt lat="59.95591" lon="17.7237649">
        <ele>65.0264</ele>
        <time>2014-06-24T18:55:19Z</time>
      </trkpt>
      <trkpt lat="59.9559162" lon="17.7237543">
        <ele>64.0651</ele>
        <time>2014-06-24T18:55:20Z</time>
      </trkpt>
      <trkpt lat="59.9559261" lon="17.7237342">
        <ele>64.0651</ele>
        <time>2014-06-24T18:55:21Z</time>
      </trkpt>
      <trkpt lat="59.955939" lon="17.7237063">
        <ele>64.5457</ele>
        <time>2014-06-24T18:55:22Z</time>
      </trkpt>
      <trkpt lat="59.9559476" lon="17.7236629">
        <ele>63.1036</ele>
        <time>2014-06-24T18:55:23Z</time>
      </trkpt>
      <trkpt lat="59.9559544" lon="17.7236279">
        <ele>62.1423</ele>
        <time>2014-06-24T18:55:24Z</time>
      </trkpt>
      <trkpt lat="59.9559576" lon="17.7235955">
        <ele>61.181</ele>
        <time>2014-06-24T18:55:25Z</time>
      </trkpt>
      <trkpt lat="59.9559607" lon="17.7235628">
        <ele>59.7391</ele>
        <time>2014-06-24T18:55:26Z</time>
      </trkpt>
      <trkpt lat="59.955972" lon="17.7235291">
        <ele>59.2584</ele>
        <time>2014-06-24T18:55:27Z</time>
      </trkpt>
      <trkpt lat="59.9559825" lon="17.723497">
        <ele>58.2971</ele>
        <time>2014-06-24T18:55:28Z</time>
      </trkpt>
      <trkpt lat="59.955999" lon="17.7234748">
        <ele>58.7777</ele>
        <time>2014-06-24T18:55:29Z</time>
      </trkpt>
      <trkpt lat="59.9560094" lon="17.7234554">
        <ele>59.2584</ele>
        <time>2014-06-24T18:55:30Z</time>
      </trkpt>
      <trkpt lat="59.9560187" lon="17.7234312">
        <ele>58.7777</ele>
        <time>2014-06-24T18:55:31Z</time>
      </trkpt>
      <trkpt lat="59.9560251" lon="17.7234016">
        <ele>57.8165</ele>
        <time>2014-06-24T18:55:32Z</time>
      </trkpt>
      <trkpt lat="59.9560331" lon="17.7233733">
        <ele>56.8551</ele>
        <time>2014-06-24T18:55:33Z</time>
      </trkpt>
      <trkpt lat="59.9560463" lon="17.7233473">
        <ele>56.3745</ele>
        <time>2014-06-24T18:55:34Z</time>
      </trkpt>
      <trkpt lat="59.9560552" lon="17.7233198">
        <ele>55.4131</ele>
        <time>2014-06-24T18:55:35Z</time>
      </trkpt>
      <trkpt lat="59.9560565" lon="17.7232861">
        <ele>55.4131</ele>
        <time>2014-06-24T18:55:36Z</time>
      </trkpt>
      <trkpt lat="59.9560576" lon="17.7232569">
        <ele>55.4131</ele>
        <time>2014-06-24T18:55:37Z</time>
      </trkpt>
      <trkpt lat="59.9560596" lon="17.7232231">
        <ele>55.4131</ele>
        <time>2014-06-24T18:55:38Z</time>
      </trkpt>
      <trkpt lat="59.9560614" lon="17.7231934">
        <ele>54.9324</ele>
        <time>2014-06-24T18:55:39Z</time>
      </trkpt>
      <trkpt lat="59.9560525" lon="17.7231502">
        <ele>53.9712</ele>
        <time>2014-06-24T18:55:40Z</time>
      </trkpt>
      <trkpt lat="59.9560528" lon="17.7231142">
        <ele>53.9712</ele>
        <time>2014-06-24T18:55:41Z</time>
      </trkpt>
      <trkpt lat="59.9560524" lon="17.7230861">
        <ele>53.9712</ele>
        <time>2014-06-24T18:55:42Z</time>
      </trkpt>
      <trkpt lat="59.9560492" lon="17.7230572">
        <ele>54.4518</ele>
        <time>2014-06-24T18:55:43Z</time>
      </trkpt>
      <trkpt lat="59.9560481" lon="17.7230252">
        <ele>54.9324</ele>
        <time>2014-06-24T18:55:44Z</time>
      </trkpt>
      <trkpt lat="59.9560473" lon="17.7229956">
        <ele>54.4518</ele>
        <time>2014-06-24T18:55:45Z</time>
      </trkpt>
      <trkpt lat="59.9560429" lon="17.722965">
        <ele>53.9712</ele>
        <time>2014-06-24T18:55:46Z</time>
      </trkpt>
      <trkpt lat="59.9560373" lon="17.7229334">
        <ele>53.9712</ele>
        <time>2014-06-24T18:55:47Z</time>
      </trkpt>
      <trkpt lat="59.9560354" lon="17.7229057">
        <ele>53.4905</ele>
        <time>2014-06-24T18:55:48Z</time>
      </trkpt>
      <trkpt lat="59.9560311" lon="17.7228731">
        <ele>53.0098</ele>
        <time>2014-06-24T18:55:49Z</time>
      </trkpt>
      <trkpt lat="59.9560271" lon="17.7228432">
        <ele>53.0098</ele>
        <time>2014-06-24T18:55:50Z</time>
      </trkpt>
      <trkpt lat="59.9560264" lon="17.7228199">
        <ele>52.5292</ele>
        <time>2014-06-24T18:55:51Z</time>
      </trkpt>
      <trkpt lat="59.956024" lon="17.7227956">
        <ele>52.5292</ele>
        <time>2014-06-24T18:55:52Z</time>
      </trkpt>
      <trkpt lat="59.9560253" lon="17.7227693">
        <ele>52.5292</ele>
        <time>2014-06-24T18:55:53Z</time>
      </trkpt>
      <trkpt lat="59.9560246" lon="17.7227444">
        <ele>52.5292</ele>
        <time>2014-06-24T18:55:54Z</time>
      </trkpt>
      <trkpt lat="59.9560212" lon="17.7227195">
        <ele>53.0098</ele>
        <time>2014-06-24T18:55:55Z</time>
      </trkpt>
      <trkpt lat="59.9560167" lon="17.7226872">
        <ele>53.0098</ele>
        <time>2014-06-24T18:55:56Z</time>
      </trkpt>
      <trkpt lat="59.9560135" lon="17.7226525">
        <ele>53.0098</ele>
        <time>2014-06-24T18:55:57Z</time>
      </trkpt>
      <trkpt lat="59.9560079" lon="17.7226178">
        <ele>53.0098</ele>
        <time>2014-06-24T18:55:58Z</time>
      </trkpt>
      <trkpt lat="59.956" lon="17.7225812">
        <ele>53.9712</ele>
        <time>2014-06-24T18:55:59Z</time>
      </trkpt>
      <trkpt lat="59.9559845" lon="17.7225412">
        <ele>53.0098</ele>
        <time>2014-06-24T18:56:00Z</time>
      </trkpt>
      <trkpt lat="59.9559752" lon="17.7225087">
        <ele>53.4905</ele>
        <time>2014-06-24T18:56:01Z</time>
      </trkpt>
      <trkpt lat="59.9559732" lon="17.7224831">
        <ele>53.4905</ele>
        <time>2014-06-24T18:56:02Z</time>
      </trkpt>
      <trkpt lat="59.9559684" lon="17.7224589">
        <ele>54.4518</ele>
        <time>2014-06-24T18:56:03Z</time>
      </trkpt>
      <trkpt lat="59.9559645" lon="17.7224377">
        <ele>54.4518</ele>
        <time>2014-06-24T18:56:04Z</time>
      </trkpt>
      <trkpt lat="59.9559603" lon="17.7224124">
        <ele>55.4131</ele>
        <time>2014-06-24T18:56:05Z</time>
      </trkpt>
      <trkpt lat="59.9559606" lon="17.7223937">
        <ele>55.4131</ele>
        <time>2014-06-24T18:56:06Z</time>
      </trkpt>
      <trkpt lat="59.955954" lon="17.7223651">
        <ele>55.4131</ele>
        <time>2014-06-24T18:56:07Z</time>
      </trkpt>
      <trkpt lat="59.9559519" lon="17.7223377">
        <ele>55.4131</ele>
        <time>2014-06-24T18:56:08Z</time>
      </trkpt>
      <trkpt lat="59.9559472" lon="17.7223113">
        <ele>54.9324</ele>
        <time>2014-06-24T18:56:09Z</time>
      </trkpt>
      <trkpt lat="59.955943" lon="17.7222753">
        <ele>55.4131</ele>
        <time>2014-06-24T18:56:10Z</time>
      </trkpt>
      <trkpt lat="59.9559332" lon="17.7222387">
        <ele>55.8938</ele>
        <time>2014-06-24T18:56:11Z</time>
      </trkpt>
      <trkpt lat="59.9559147" lon="17.7222029">
        <ele>55.4131</ele>
        <time>2014-06-24T18:56:12Z</time>
      </trkpt>
      <trkpt lat="59.9558937" lon="17.7221624">
        <ele>55.4131</ele>
        <time>2014-06-24T18:56:13Z</time>
      </trkpt>
      <trkpt lat="59.9558711" lon="17.7221238">
        <ele>55.4131</ele>
        <time>2014-06-24T18:56:14Z</time>
      </trkpt>
      <trkpt lat="59.9558634" lon="17.7220847">
        <ele>54.4518</ele>
        <time>2014-06-24T18:56:15Z</time>
      </trkpt>
      <trkpt lat="59.9558614" lon="17.7220491">
        <ele>53.0098</ele>
        <time>2014-06-24T18:56:16Z</time>
      </trkpt>
      <trkpt lat="59.9558604" lon="17.7220207">
        <ele>52.5292</ele>
        <time>2014-06-24T18:56:17Z</time>
      </trkpt>
      <trkpt lat="59.9558655" lon="17.7219927">
        <ele>53.0098</ele>
        <time>2014-06-24T18:56:18Z</time>
      </trkpt>
      <trkpt lat="59.9558701" lon="17.7219616">
        <ele>53.0098</ele>
        <time>2014-06-24T18:56:19Z</time>
      </trkpt>
      <trkpt lat="59.9558751" lon="17.7219259">
        <ele>53.0098</ele>
        <time>2014-06-24T18:56:20Z</time>
      </trkpt>
      <trkpt lat="59.9558772" lon="17.7218915">
        <ele>53.0098</ele>
        <time>2014-06-24T18:56:21Z</time>
      </trkpt>
      <trkpt lat="59.9558804" lon="17.7218656">
        <ele>52.5292</ele>
        <time>2014-06-24T18:56:22Z</time>
      </trkpt>
      <trkpt lat="59.9558783" lon="17.7218358">
        <ele>52.5292</ele>
        <time>2014-06-24T18:56:23Z</time>
      </trkpt>
      <trkpt lat="59.9558739" lon="17.7218091">
        <ele>52.0486</ele>
        <time>2014-06-24T18:56:24Z</time>
      </trkpt>
      <trkpt lat="59.9558728" lon="17.7217762">
        <ele>50.6066</ele>
        <time>2014-06-24T18:56:25Z</time>
      </trkpt>
      <trkpt lat="59.9558743" lon="17.7217471">
        <ele>49.6453</ele>
        <time>2014-06-24T18:56:26Z</time>
      </trkpt>
      <trkpt lat="59.9558775" lon="17.7217172">
        <ele>49.1646</ele>
        <time>2014-06-24T18:56:27Z</time>
      </trkpt>
      <trkpt lat="59.9558779" lon="17.7216924">
        <ele>49.1646</ele>
        <time>2014-06-24T18:56:28Z</time>
      </trkpt>
      <trkpt lat="59.9558788" lon="17.7216667">
        <ele>48.2034</ele>
        <time>2014-06-24T18:56:29Z</time>
      </trkpt>
      <trkpt lat="59.9558842" lon="17.7216312">
        <ele>48.2034</ele>
        <time>2014-06-24T18:56:30Z</time>
      </trkpt>
      <trkpt lat="59.9558894" lon="17.7215998">
        <ele>47.7225</ele>
        <time>2014-06-24T18:56:31Z</time>
      </trkpt>
      <trkpt lat="59.9558938" lon="17.7215667">
        <ele>47.2418</ele>
        <time>2014-06-24T18:56:32Z</time>
      </trkpt>
      <trkpt lat="59.955898" lon="17.7215347">
        <ele>46.7612</ele>
        <time>2014-06-24T18:56:33Z</time>
      </trkpt>
      <trkpt lat="59.9559017" lon="17.7214997">
        <ele>46.2806</ele>
        <time>2014-06-24T18:56:34Z</time>
      </trkpt>
      <trkpt lat="59.9559038" lon="17.7214621">
        <ele>45.7999</ele>
        <time>2014-06-24T18:56:35Z</time>
      </trkpt>
      <trkpt lat="59.9559012" lon="17.721431">
        <ele>45.3192</ele>
        <time>2014-06-24T18:56:36Z</time>
      </trkpt>
      <trkpt lat="59.9558971" lon="17.7213997">
        <ele>45.3192</ele>
        <time>2014-06-24T18:56:37Z</time>
      </trkpt>
      <trkpt lat="59.9558906" lon="17.7213676">
        <ele>45.3192</ele>
        <time>2014-06-24T18:56:38Z</time>
      </trkpt>
      <trkpt lat="59.9558813" lon="17.7213405">
        <ele>45.3192</ele>
        <time>2014-06-24T18:56:39Z</time>
      </trkpt>
      <trkpt lat="59.955869" lon="17.7213146">
        <ele>45.3192</ele>
        <time>2014-06-24T18:56:40Z</time>
      </trkpt>
      <trkpt lat="59.9558577" lon="17.7212908">
        <ele>45.3192</ele>
        <time>2014-06-24T18:56:41Z</time>
      </trkpt>
      <trkpt lat="59.9558456" lon="17.7212649">
        <ele>44.8386</ele>
        <time>2014-06-24T18:56:42Z</time>
      </trkpt>
      <trkpt lat="59.9558386" lon="17.7212434">
        <ele>45.7999</ele>
        <time>2014-06-24T18:56:43Z</time>
      </trkpt>
      <trkpt lat="59.9558355" lon="17.7212287">
        <ele>46.7612</ele>
        <time>2014-06-24T18:56:44Z</time>
      </trkpt>
      <trkpt lat="59.9558328" lon="17.7212265">
        <ele>47.2418</ele>
        <time>2014-06-24T18:56:45Z</time>
      </trkpt>
      <trkpt lat="59.9558282" lon="17.7212311">
        <ele>47.7225</ele>
        <time>2014-06-24T18:56:46Z</time>
      </trkpt>
      <trkpt lat="59.9558302" lon="17.7212303">
        <ele>49.6453</ele>
        <time>2014-06-24T18:56:47Z</time>
      </trkpt>
      <trkpt lat="59.9558214" lon="17.721236">
        <ele>49.6453</ele>
        <time>2014-06-24T18:56:48Z</time>
      </trkpt>
      <trkpt lat="59.955812" lon="17.7212419">
        <ele>50.126</ele>
        <time>2014-06-24T18:56:49Z</time>
      </trkpt>
      <trkpt lat="59.9558029" lon="17.7212441">
        <ele>50.126</ele>
        <time>2014-06-24T18:56:50Z</time>
      </trkpt>
      <trkpt lat="59.9557894" lon="17.7212473">
        <ele>49.6453</ele>
        <time>2014-06-24T18:56:51Z</time>
      </trkpt>
      <trkpt lat="59.9557765" lon="17.7212512">
        <ele>50.126</ele>
        <time>2014-06-24T18:56:52Z</time>
      </trkpt>
      <trkpt lat="59.9557634" lon="17.7212508">
        <ele>49.6453</ele>
        <time>2014-06-24T18:56:53Z</time>
      </trkpt>
      <trkpt lat="59.9557493" lon="17.7212523">
        <ele>49.1646</ele>
        <time>2014-06-24T18:56:54Z</time>
      </trkpt>
      <trkpt lat="59.9557344" lon="17.7212567">
        <ele>49.6453</ele>
        <time>2014-06-24T18:56:55Z</time>
      </trkpt>
      <trkpt lat="59.9557159" lon="17.7212557">
        <ele>50.126</ele>
        <time>2014-06-24T18:56:56Z</time>
      </trkpt>
      <trkpt lat="59.9557057" lon="17.7212705">
        <ele>50.6066</ele>
        <time>2014-06-24T18:56:57Z</time>
      </trkpt>
      <trkpt lat="59.9556977" lon="17.7212811">
        <ele>51.0872</ele>
        <time>2014-06-24T18:56:58Z</time>
      </trkpt>
      <trkpt lat="59.9556836" lon="17.7212854">
        <ele>51.0872</ele>
        <time>2014-06-24T18:56:59Z</time>
      </trkpt>
      <trkpt lat="59.9556759" lon="17.7212917">
        <ele>51.5679</ele>
        <time>2014-06-24T18:57:00Z</time>
      </trkpt>
      <trkpt lat="59.9556667" lon="17.7213043">
        <ele>52.0486</ele>
        <time>2014-06-24T18:57:01Z</time>
      </trkpt>
      <trkpt lat="59.955657" lon="17.7213167">
        <ele>53.4905</ele>
        <time>2014-06-24T18:57:02Z</time>
      </trkpt>
      <trkpt lat="59.955649" lon="17.7213342">
        <ele>53.9712</ele>
        <time>2014-06-24T18:57:03Z</time>
      </trkpt>
      <trkpt lat="59.9556408" lon="17.7213447">
        <ele>54.4518</ele>
        <time>2014-06-24T18:57:04Z</time>
      </trkpt>
      <trkpt lat="59.9556321" lon="17.7213527">
        <ele>54.4518</ele>
        <time>2014-06-24T18:57:05Z</time>
      </trkpt>
      <trkpt lat="59.9556095" lon="17.7213576">
        <ele>56.3745</ele>
        <time>2014-06-24T18:57:06Z</time>
      </trkpt>
      <trkpt lat="59.955592" lon="17.7213732">
        <ele>55.8938</ele>
        <time>2014-06-24T18:57:07Z</time>
      </trkpt>
      <trkpt lat="59.955578" lon="17.7213957">
        <ele>55.4131</ele>
        <time>2014-06-24T18:57:08Z</time>
      </trkpt>
      <trkpt lat="59.9555654" lon="17.7214027">
        <ele>56.3745</ele>
        <time>2014-06-24T18:57:09Z</time>
      </trkpt>
      <trkpt lat="59.955556" lon="17.7214099">
        <ele>56.8551</ele>
        <time>2014-06-24T18:57:10Z</time>
      </trkpt>
      <trkpt lat="59.9555485" lon="17.7214159">
        <ele>57.8165</ele>
        <time>2014-06-24T18:57:11Z</time>
      </trkpt>
      <trkpt lat="59.9555396" lon="17.7214161">
        <ele>58.2971</ele>
        <time>2014-06-24T18:57:12Z</time>
      </trkpt>
      <trkpt lat="59.9555312" lon="17.7214187">
        <ele>58.7777</ele>
        <time>2014-06-24T18:57:13Z</time>
      </trkpt>
      <trkpt lat="59.95552" lon="17.7214242">
        <ele>58.7777</ele>
        <time>2014-06-24T18:57:14Z</time>
      </trkpt>
      <trkpt lat="59.9555105" lon="17.7214312">
        <ele>58.7777</ele>
        <time>2014-06-24T18:57:15Z</time>
      </trkpt>
      <trkpt lat="59.9554964" lon="17.7214269">
        <ele>58.7777</ele>
        <time>2014-06-24T18:57:16Z</time>
      </trkpt>
      <trkpt lat="59.9554771" lon="17.721417">
        <ele>58.7777</ele>
        <time>2014-06-24T18:57:17Z</time>
      </trkpt>
      <trkpt lat="59.9554624" lon="17.7214111">
        <ele>58.7777</ele>
        <time>2014-06-24T18:57:18Z</time>
      </trkpt>
      <trkpt lat="59.9554537" lon="17.7214031">
        <ele>58.7777</ele>
        <time>2014-06-24T18:57:19Z</time>
      </trkpt>
      <trkpt lat="59.95544" lon="17.7213923">
        <ele>58.7777</ele>
        <time>2014-06-24T18:57:20Z</time>
      </trkpt>
      <trkpt lat="59.9554211" lon="17.7213849">
        <ele>58.2971</ele>
        <time>2014-06-24T18:57:21Z</time>
      </trkpt>
      <trkpt lat="59.9554054" lon="17.7213771">
        <ele>58.2971</ele>
        <time>2014-06-24T18:57:22Z</time>
      </trkpt>
      <trkpt lat="59.9553894" lon="17.7213778">
        <ele>58.2971</ele>
        <time>2014-06-24T18:57:23Z</time>
      </trkpt>
      <trkpt lat="59.9553755" lon="17.7213706">
        <ele>57.8165</ele>
        <time>2014-06-24T18:57:24Z</time>
      </trkpt>
      <trkpt lat="59.9553628" lon="17.7213658">
        <ele>57.8165</ele>
        <time>2014-06-24T18:57:25Z</time>
      </trkpt>
      <trkpt lat="59.955349" lon="17.7213525">
        <ele>58.2971</ele>
        <time>2014-06-24T18:57:26Z</time>
      </trkpt>
      <trkpt lat="59.9553375" lon="17.7213421">
        <ele>58.2971</ele>
        <time>2014-06-24T18:57:27Z</time>
      </trkpt>
      <trkpt lat="59.9553205" lon="17.7213398">
        <ele>58.7777</ele>
        <time>2014-06-24T18:57:28Z</time>
      </trkpt>
      <trkpt lat="59.9553013" lon="17.72134">
        <ele>58.7777</ele>
        <time>2014-06-24T18:57:29Z</time>
      </trkpt>
      <trkpt lat="59.9552837" lon="17.7213503">
        <ele>58.7777</ele>
        <time>2014-06-24T18:57:30Z</time>
      </trkpt>
      <trkpt lat="59.9552764" lon="17.721361">
        <ele>59.2584</ele>
        <time>2014-06-24T18:57:31Z</time>
      </trkpt>
      <trkpt lat="59.9552641" lon="17.7213597">
        <ele>58.7777</ele>
        <time>2014-06-24T18:57:32Z</time>
      </trkpt>
      <trkpt lat="59.9552553" lon="17.7213637">
        <ele>59.2584</ele>
        <time>2014-06-24T18:57:33Z</time>
      </trkpt>
      <trkpt lat="59.9552397" lon="17.7213623">
        <ele>59.2584</ele>
        <time>2014-06-24T18:57:34Z</time>
      </trkpt>
      <trkpt lat="59.9552214" lon="17.7213628">
        <ele>58.7777</ele>
        <time>2014-06-24T18:57:35Z</time>
      </trkpt>
      <trkpt lat="59.9552038" lon="17.7213669">
        <ele>58.2971</ele>
        <time>2014-06-24T18:57:36Z</time>
      </trkpt>
      <trkpt lat="59.9551879" lon="17.7213735">
        <ele>57.8165</ele>
        <time>2014-06-24T18:57:37Z</time>
      </trkpt>
      <trkpt lat="59.9551711" lon="17.7213729">
        <ele>57.8165</ele>
        <time>2014-06-24T18:57:38Z</time>
      </trkpt>
      <trkpt lat="59.9551528" lon="17.7213665">
        <ele>57.8165</ele>
        <time>2014-06-24T18:57:39Z</time>
      </trkpt>
      <trkpt lat="59.9551314" lon="17.7213597">
        <ele>57.8165</ele>
        <time>2014-06-24T18:57:40Z</time>
      </trkpt>
      <trkpt lat="59.9551081" lon="17.7213419">
        <ele>57.8165</ele>
        <time>2014-06-24T18:57:41Z</time>
      </trkpt>
      <trkpt lat="59.9550906" lon="17.7213368">
        <ele>57.8165</ele>
        <time>2014-06-24T18:57:42Z</time>
      </trkpt>
      <trkpt lat="59.9550791" lon="17.7213396">
        <ele>57.8165</ele>
        <time>2014-06-24T18:57:43Z</time>
      </trkpt>
      <trkpt lat="59.9550636" lon="17.7213408">
        <ele>57.8165</ele>
        <time>2014-06-24T18:57:44Z</time>
      </trkpt>
      <trkpt lat="59.9550304" lon="17.7213235">
        <ele>58.7777</ele>
        <time>2014-06-24T18:57:45Z</time>
      </trkpt>
      <trkpt lat="59.9550096" lon="17.7213079">
        <ele>58.2971</ele>
        <time>2014-06-24T18:57:46Z</time>
      </trkpt>
      <trkpt lat="59.9549893" lon="17.7212919">
        <ele>57.8165</ele>
        <time>2014-06-24T18:57:47Z</time>
      </trkpt>
      <trkpt lat="59.9549729" lon="17.7212766">
        <ele>57.3358</ele>
        <time>2014-06-24T18:57:48Z</time>
      </trkpt>
      <trkpt lat="59.9549562" lon="17.7212623">
        <ele>56.8551</ele>
        <time>2014-06-24T18:57:49Z</time>
      </trkpt>
      <trkpt lat="59.9549474" lon="17.7212546">
        <ele>56.8551</ele>
        <time>2014-06-24T18:57:50Z</time>
      </trkpt>
      <trkpt lat="59.9549412" lon="17.7212524">
        <ele>56.3745</ele>
        <time>2014-06-24T18:57:51Z</time>
      </trkpt>
      <trkpt lat="59.9549346" lon="17.7212487">
        <ele>55.8938</ele>
        <time>2014-06-24T18:57:52Z</time>
      </trkpt>
      <trkpt lat="59.9549245" lon="17.7212338">
        <ele>56.3745</ele>
        <time>2014-06-24T18:57:53Z</time>
      </trkpt>
      <trkpt lat="59.9549119" lon="17.7212182">
        <ele>56.3745</ele>
        <time>2014-06-24T18:57:54Z</time>
      </trkpt>
      <trkpt lat="59.9548983" lon="17.7212085">
        <ele>55.8938</ele>
        <time>2014-06-24T18:57:55Z</time>
      </trkpt>
      <trkpt lat="59.9548657" lon="17.7211748">
        <ele>56.3745</ele>
        <time>2014-06-24T18:57:56Z</time>
      </trkpt>
      <trkpt lat="59.9548538" lon="17.7211494">
        <ele>56.8551</ele>
        <time>2014-06-24T18:57:57Z</time>
      </trkpt>
      <trkpt lat="59.9548427" lon="17.7211203">
        <ele>56.3745</ele>
        <time>2014-06-24T18:57:58Z</time>
      </trkpt>
      <trkpt lat="59.9548204" lon="17.721081">
        <ele>57.3358</ele>
        <time>2014-06-24T18:57:59Z</time>
      </trkpt>
      <trkpt lat="59.9548071" lon="17.7210461">
        <ele>57.3358</ele>
        <time>2014-06-24T18:58:00Z</time>
      </trkpt>
      <trkpt lat="59.9548076" lon="17.7210163">
        <ele>57.8165</ele>
        <time>2014-06-24T18:58:01Z</time>
      </trkpt>
      <trkpt lat="59.9547962" lon="17.7209744">
        <ele>58.7777</ele>
        <time>2014-06-24T18:58:02Z</time>
      </trkpt>
      <trkpt lat="59.9547915" lon="17.7209452">
        <ele>59.2584</ele>
        <time>2014-06-24T18:58:03Z</time>
      </trkpt>
      <trkpt lat="59.954789" lon="17.7209038">
        <ele>59.7391</ele>
        <time>2014-06-24T18:58:04Z</time>
      </trkpt>
      <trkpt lat="59.954792" lon="17.7208668">
        <ele>59.7391</ele>
        <time>2014-06-24T18:58:05Z</time>
      </trkpt>
      <trkpt lat="59.9547919" lon="17.7208292">
        <ele>59.7391</ele>
        <time>2014-06-24T18:58:06Z</time>
      </trkpt>
      <trkpt lat="59.9547905" lon="17.7207965">
        <ele>59.7391</ele>
        <time>2014-06-24T18:58:07Z</time>
      </trkpt>
      <trkpt lat="59.954789" lon="17.720762">
        <ele>60.2197</ele>
        <time>2014-06-24T18:58:08Z</time>
      </trkpt>
      <trkpt lat="59.954792" lon="17.7207406">
        <ele>60.2197</ele>
        <time>2014-06-24T18:58:09Z</time>
      </trkpt>
      <trkpt lat="59.9547982" lon="17.7207209">
        <ele>60.2197</ele>
        <time>2014-06-24T18:58:10Z</time>
      </trkpt>
      <trkpt lat="59.9548035" lon="17.7206909">
        <ele>60.7003</ele>
        <time>2014-06-24T18:58:11Z</time>
      </trkpt>
      <trkpt lat="59.9548154" lon="17.720646">
        <ele>59.7391</ele>
        <time>2014-06-24T18:58:12Z</time>
      </trkpt>
      <trkpt lat="59.9548299" lon="17.7206089">
        <ele>59.7391</ele>
        <time>2014-06-24T18:58:13Z</time>
      </trkpt>
      <trkpt lat="59.9548401" lon="17.7205835">
        <ele>60.7003</ele>
        <time>2014-06-24T18:58:14Z</time>
      </trkpt>
      <trkpt lat="59.9548394" lon="17.7205552">
        <ele>60.7003</ele>
        <time>2014-06-24T18:58:15Z</time>
      </trkpt>
      <trkpt lat="59.9548419" lon="17.7205369">
        <ele>61.181</ele>
        <time>2014-06-24T18:58:16Z</time>
      </trkpt>
      <trkpt lat="59.9548466" lon="17.7205172">
        <ele>60.7003</ele>
        <time>2014-06-24T18:58:17Z</time>
      </trkpt>
      <trkpt lat="59.9548567" lon="17.7204926">
        <ele>60.2197</ele>
        <time>2014-06-24T18:58:18Z</time>
      </trkpt>
      <trkpt lat="59.9548642" lon="17.7204687">
        <ele>59.7391</ele>
        <time>2014-06-24T18:58:19Z</time>
      </trkpt>
      <trkpt lat="59.9548772" lon="17.7204507">
        <ele>59.7391</ele>
        <time>2014-06-24T18:58:20Z</time>
      </trkpt>
      <trkpt lat="59.9548943" lon="17.72044">
        <ele>59.7391</ele>
        <time>2014-06-24T18:58:21Z</time>
      </trkpt>
      <trkpt lat="59.9549123" lon="17.7204274">
        <ele>59.2584</ele>
        <time>2014-06-24T18:58:22Z</time>
      </trkpt>
      <trkpt lat="59.9549319" lon="17.7204163">
        <ele>60.2197</ele>
        <time>2014-06-24T18:58:23Z</time>
      </trkpt>
      <trkpt lat="59.9549445" lon="17.7204024">
        <ele>59.7391</ele>
        <time>2014-06-24T18:58:24Z</time>
      </trkpt>
      <trkpt lat="59.9549559" lon="17.7203895">
        <ele>59.2584</ele>
        <time>2014-06-24T18:58:25Z</time>
      </trkpt>
      <trkpt lat="59.9549698" lon="17.7203742">
        <ele>58.7777</ele>
        <time>2014-06-24T18:58:26Z</time>
      </trkpt>
      <trkpt lat="59.9549805" lon="17.7203567">
        <ele>57.3358</ele>
        <time>2014-06-24T18:58:27Z</time>
      </trkpt>
      <trkpt lat="59.9549911" lon="17.720339">
        <ele>57.3358</ele>
        <time>2014-06-24T18:58:28Z</time>
      </trkpt>
      <trkpt lat="59.9550025" lon="17.7203221">
        <ele>56.8551</ele>
        <time>2014-06-24T18:58:29Z</time>
      </trkpt>
      <trkpt lat="59.9550133" lon="17.7203105">
        <ele>56.8551</ele>
        <time>2014-06-24T18:58:30Z</time>
      </trkpt>
      <trkpt lat="59.9550245" lon="17.7202996">
        <ele>56.8551</ele>
        <time>2014-06-24T18:58:31Z</time>
      </trkpt>
      <trkpt lat="59.9550351" lon="17.7202812">
        <ele>56.3745</ele>
        <time>2014-06-24T18:58:32Z</time>
      </trkpt>
      <trkpt lat="59.9550448" lon="17.7202587">
        <ele>55.8938</ele>
        <time>2014-06-24T18:58:33Z</time>
      </trkpt>
      <trkpt lat="59.9550548" lon="17.7202419">
        <ele>55.8938</ele>
        <time>2014-06-24T18:58:34Z</time>
      </trkpt>
      <trkpt lat="59.9550662" lon="17.7202283">
        <ele>55.8938</ele>
        <time>2014-06-24T18:58:35Z</time>
      </trkpt>
      <trkpt lat="59.9550789" lon="17.7202102">
        <ele>56.3745</ele>
        <time>2014-06-24T18:58:36Z</time>
      </trkpt>
      <trkpt lat="59.9550905" lon="17.7201938">
        <ele>55.8938</ele>
        <time>2014-06-24T18:58:37Z</time>
      </trkpt>
      <trkpt lat="59.9551029" lon="17.7201794">
        <ele>55.8938</ele>
        <time>2014-06-24T18:58:38Z</time>
      </trkpt>
      <trkpt lat="59.955116" lon="17.7201647">
        <ele>56.3745</ele>
        <time>2014-06-24T18:58:39Z</time>
      </trkpt>
      <trkpt lat="59.955131" lon="17.7201516">
        <ele>56.8551</ele>
        <time>2014-06-24T18:58:40Z</time>
      </trkpt>
      <trkpt lat="59.9551434" lon="17.7201414">
        <ele>56.8551</ele>
        <time>2014-06-24T18:58:41Z</time>
      </trkpt>
      <trkpt lat="59.9551567" lon="17.7201336">
        <ele>56.3745</ele>
        <time>2014-06-24T18:58:42Z</time>
      </trkpt>
      <trkpt lat="59.9551716" lon="17.7201179">
        <ele>56.8551</ele>
        <time>2014-06-24T18:58:43Z</time>
      </trkpt>
      <trkpt lat="59.9551828" lon="17.7201008">
        <ele>56.8551</ele>
        <time>2014-06-24T18:58:44Z</time>
      </trkpt>
      <trkpt lat="59.9551958" lon="17.7200842">
        <ele>56.8551</ele>
        <time>2014-06-24T18:58:45Z</time>
      </trkpt>
      <trkpt lat="59.9552124" lon="17.7200686">
        <ele>58.2971</ele>
        <time>2014-06-24T18:58:46Z</time>
      </trkpt>
      <trkpt lat="59.9552331" lon="17.7200635">
        <ele>60.2197</ele>
        <time>2014-06-24T18:58:47Z</time>
      </trkpt>
      <trkpt lat="59.9552504" lon="17.7200522">
        <ele>60.7003</ele>
        <time>2014-06-24T18:58:48Z</time>
      </trkpt>
      <trkpt lat="59.9552641" lon="17.7200409">
        <ele>60.7003</ele>
        <time>2014-06-24T18:58:49Z</time>
      </trkpt>
      <trkpt lat="59.9552817" lon="17.7200321">
        <ele>61.6617</ele>
        <time>2014-06-24T18:58:50Z</time>
      </trkpt>
      <trkpt lat="59.9552945" lon="17.7200178">
        <ele>61.6617</ele>
        <time>2014-06-24T18:58:51Z</time>
      </trkpt>
      <trkpt lat="59.9553089" lon="17.7200066">
        <ele>61.6617</ele>
        <time>2014-06-24T18:58:52Z</time>
      </trkpt>
      <trkpt lat="59.9553222" lon="17.719992">
        <ele>61.181</ele>
        <time>2014-06-24T18:58:53Z</time>
      </trkpt>
      <trkpt lat="59.9553338" lon="17.7199749">
        <ele>60.7003</ele>
        <time>2014-06-24T18:58:54Z</time>
      </trkpt>
      <trkpt lat="59.9553469" lon="17.7199595">
        <ele>60.7003</ele>
        <time>2014-06-24T18:58:55Z</time>
      </trkpt>
      <trkpt lat="59.9553617" lon="17.7199463">
        <ele>60.7003</ele>
        <time>2014-06-24T18:58:56Z</time>
      </trkpt>
      <trkpt lat="59.9553735" lon="17.7199346">
        <ele>60.7003</ele>
        <time>2014-06-24T18:58:57Z</time>
      </trkpt>
      <trkpt lat="59.9553832" lon="17.7199282">
        <ele>60.7003</ele>
        <time>2014-06-24T18:58:58Z</time>
      </trkpt>
      <trkpt lat="59.9553937" lon="17.7199226">
        <ele>61.181</ele>
        <time>2014-06-24T18:58:59Z</time>
      </trkpt>
      <trkpt lat="59.9554135" lon="17.7199186">
        <ele>61.181</ele>
        <time>2014-06-24T18:59:00Z</time>
      </trkpt>
      <trkpt lat="59.955431" lon="17.7199112">
        <ele>60.7003</ele>
        <time>2014-06-24T18:59:01Z</time>
      </trkpt>
      <trkpt lat="59.9554489" lon="17.719904">
        <ele>60.7003</ele>
        <time>2014-06-24T18:59:02Z</time>
      </trkpt>
      <trkpt lat="59.9554638" lon="17.7199003">
        <ele>60.7003</ele>
        <time>2014-06-24T18:59:03Z</time>
      </trkpt>
      <trkpt lat="59.9554776" lon="17.7198979">
        <ele>60.2197</ele>
        <time>2014-06-24T18:59:04Z</time>
      </trkpt>
      <trkpt lat="59.9554903" lon="17.7198896">
        <ele>59.2584</ele>
        <time>2014-06-24T18:59:05Z</time>
      </trkpt>
      <trkpt lat="59.9555003" lon="17.7198849">
        <ele>58.2971</ele>
        <time>2014-06-24T18:59:06Z</time>
      </trkpt>
      <trkpt lat="59.9555137" lon="17.7198813">
        <ele>58.2971</ele>
        <time>2014-06-24T18:59:07Z</time>
      </trkpt>
      <trkpt lat="59.9555291" lon="17.719873">
        <ele>57.8165</ele>
        <time>2014-06-24T18:59:08Z</time>
      </trkpt>
      <trkpt lat="59.9555439" lon="17.7198666">
        <ele>57.3358</ele>
        <time>2014-06-24T18:59:09Z</time>
      </trkpt>
      <trkpt lat="59.9555598" lon="17.7198606">
        <ele>57.3358</ele>
        <time>2014-06-24T18:59:10Z</time>
      </trkpt>
      <trkpt lat="59.9555703" lon="17.7198481">
        <ele>56.3745</ele>
        <time>2014-06-24T18:59:11Z</time>
      </trkpt>
      <trkpt lat="59.9555816" lon="17.7198334">
        <ele>56.8551</ele>
        <time>2014-06-24T18:59:12Z</time>
      </trkpt>
      <trkpt lat="59.955591" lon="17.7198165">
        <ele>56.3745</ele>
        <time>2014-06-24T18:59:13Z</time>
      </trkpt>
      <trkpt lat="59.9556049" lon="17.7198031">
        <ele>55.8938</ele>
        <time>2014-06-24T18:59:14Z</time>
      </trkpt>
      <trkpt lat="59.9556204" lon="17.7197891">
        <ele>54.4518</ele>
        <time>2014-06-24T18:59:15Z</time>
      </trkpt>
      <trkpt lat="59.9556378" lon="17.7197818">
        <ele>54.4518</ele>
        <time>2014-06-24T18:59:16Z</time>
      </trkpt>
      <trkpt lat="59.955652" lon="17.7197689">
        <ele>55.4131</ele>
        <time>2014-06-24T18:59:17Z</time>
      </trkpt>
      <trkpt lat="59.9556623" lon="17.7197575">
        <ele>54.9324</ele>
        <time>2014-06-24T18:59:18Z</time>
      </trkpt>
      <trkpt lat="59.9556816" lon="17.71974">
        <ele>54.4518</ele>
        <time>2014-06-24T18:59:19Z</time>
      </trkpt>
      <trkpt lat="59.9556993" lon="17.7197213">
        <ele>53.9712</ele>
        <time>2014-06-24T18:59:20Z</time>
      </trkpt>
      <trkpt lat="59.9557161" lon="17.7196991">
        <ele>53.4905</ele>
        <time>2014-06-24T18:59:21Z</time>
      </trkpt>
      <trkpt lat="59.9557271" lon="17.7196796">
        <ele>53.4905</ele>
        <time>2014-06-24T18:59:22Z</time>
      </trkpt>
      <trkpt lat="59.955736" lon="17.7196656">
        <ele>53.0098</ele>
        <time>2014-06-24T18:59:23Z</time>
      </trkpt>
      <trkpt lat="59.9557475" lon="17.7196487">
        <ele>53.0098</ele>
        <time>2014-06-24T18:59:24Z</time>
      </trkpt>
      <trkpt lat="59.9557618" lon="17.7196301">
        <ele>53.4905</ele>
        <time>2014-06-24T18:59:25Z</time>
      </trkpt>
      <trkpt lat="59.9557762" lon="17.7196172">
        <ele>53.4905</ele>
        <time>2014-06-24T18:59:26Z</time>
      </trkpt>
      <trkpt lat="59.955791" lon="17.7196029">
        <ele>53.4905</ele>
        <time>2014-06-24T18:59:27Z</time>
      </trkpt>
      <trkpt lat="59.9558038" lon="17.7195827">
        <ele>53.4905</ele>
        <time>2014-06-24T18:59:28Z</time>
      </trkpt>
      <trkpt lat="59.9558132" lon="17.7195615">
        <ele>53.9712</ele>
        <time>2014-06-24T18:59:29Z</time>
      </trkpt>
      <trkpt lat="59.955824" lon="17.719546">
        <ele>53.0098</ele>
        <time>2014-06-24T18:59:30Z</time>
      </trkpt>
      <trkpt lat="59.9558406" lon="17.7195368">
        <ele>52.5292</ele>
        <time>2014-06-24T18:59:31Z</time>
      </trkpt>
      <trkpt lat="59.9558546" lon="17.7195285">
        <ele>52.0486</ele>
        <time>2014-06-24T18:59:32Z</time>
      </trkpt>
      <trkpt lat="59.9558675" lon="17.7195176">
        <ele>52.0486</ele>
        <time>2014-06-24T18:59:33Z</time>
      </trkpt>
      <trkpt lat="59.955881" lon="17.7194983">
        <ele>52.0486</ele>
        <time>2014-06-24T18:59:34Z</time>
      </trkpt>
      <trkpt lat="59.955894" lon="17.7194786">
        <ele>51.5679</ele>
        <time>2014-06-24T18:59:35Z</time>
      </trkpt>
      <trkpt lat="59.955909" lon="17.7194611">
        <ele>51.5679</ele>
        <time>2014-06-24T18:59:36Z</time>
      </trkpt>
      <trkpt lat="59.9559238" lon="17.7194441">
        <ele>52.0486</ele>
        <time>2014-06-24T18:59:37Z</time>
      </trkpt>
      <trkpt lat="59.9559379" lon="17.7194177">
        <ele>52.0486</ele>
        <time>2014-06-24T18:59:38Z</time>
      </trkpt>
      <trkpt lat="59.95595" lon="17.7193912">
        <ele>52.0486</ele>
        <time>2014-06-24T18:59:39Z</time>
      </trkpt>
      <trkpt lat="59.9559597" lon="17.7193706">
        <ele>52.5292</ele>
        <time>2014-06-24T18:59:40Z</time>
      </trkpt>
      <trkpt lat="59.9559744" lon="17.7193548">
        <ele>52.5292</ele>
        <time>2014-06-24T18:59:41Z</time>
      </trkpt>
      <trkpt lat="59.9559948" lon="17.7193369">
        <ele>53.4905</ele>
        <time>2014-06-24T18:59:42Z</time>
      </trkpt>
      <trkpt lat="59.9560099" lon="17.7193177">
        <ele>53.4905</ele>
        <time>2014-06-24T18:59:43Z</time>
      </trkpt>
      <trkpt lat="59.9560298" lon="17.7192958">
        <ele>54.4518</ele>
        <time>2014-06-24T18:59:44Z</time>
      </trkpt>
      <trkpt lat="59.9560499" lon="17.7192746">
        <ele>54.9324</ele>
        <time>2014-06-24T18:59:45Z</time>
      </trkpt>
      <trkpt lat="59.9560602" lon="17.7192369">
        <ele>54.9324</ele>
        <time>2014-06-24T18:59:46Z</time>
      </trkpt>
      <trkpt lat="59.9560697" lon="17.7192">
        <ele>54.9324</ele>
        <time>2014-06-24T18:59:47Z</time>
      </trkpt>
      <trkpt lat="59.956081" lon="17.7191698">
        <ele>54.9324</ele>
        <time>2014-06-24T18:59:48Z</time>
      </trkpt>
      <trkpt lat="59.9560932" lon="17.7191422">
        <ele>54.9324</ele>
        <time>2014-06-24T18:59:49Z</time>
      </trkpt>
      <trkpt lat="59.9560995" lon="17.7191183">
        <ele>54.4518</ele>
        <time>2014-06-24T18:59:50Z</time>
      </trkpt>
      <trkpt lat="59.9561049" lon="17.7190968">
        <ele>54.4518</ele>
        <time>2014-06-24T18:59:51Z</time>
      </trkpt>
      <trkpt lat="59.9561163" lon="17.7190681">
        <ele>53.9712</ele>
        <time>2014-06-24T18:59:52Z</time>
      </trkpt>
      <trkpt lat="59.9561215" lon="17.7190443">
        <ele>53.4905</ele>
        <time>2014-06-24T18:59:53Z</time>
      </trkpt>
      <trkpt lat="59.9561261" lon="17.7190193">
        <ele>53.4905</ele>
        <time>2014-06-24T18:59:54Z</time>
      </trkpt>
      <trkpt lat="59.9561328" lon="17.718997">
        <ele>53.4905</ele>
        <time>2014-06-24T18:59:55Z</time>
      </trkpt>
      <trkpt lat="59.9561388" lon="17.7189716">
        <ele>53.0098</ele>
        <time>2014-06-24T18:59:56Z</time>
      </trkpt>
      <trkpt lat="59.9561482" lon="17.7189442">
        <ele>53.0098</ele>
        <time>2014-06-24T18:59:57Z</time>
      </trkpt>
      <trkpt lat="59.956155" lon="17.7189158">
        <ele>52.5292</ele>
        <time>2014-06-24T18:59:58Z</time>
      </trkpt>
      <trkpt lat="59.9561595" lon="17.7188872">
        <ele>52.5292</ele>
        <time>2014-06-24T18:59:59Z</time>
      </trkpt>
      <trkpt lat="59.9561602" lon="17.7188568">
        <ele>52.5292</ele>
        <time>2014-06-24T19:00:00Z</time>
      </trkpt>
      <trkpt lat="59.9561616" lon="17.7188266">
        <ele>52.0486</ele>
        <time>2014-06-24T19:00:01Z</time>
      </trkpt>
      <trkpt lat="59.9561614" lon="17.7187948">
        <ele>52.0486</ele>
        <time>2014-06-24T19:00:02Z</time>
      </trkpt>
      <trkpt lat="59.9561582" lon="17.7187619">
        <ele>52.0486</ele>
        <time>2014-06-24T19:00:03Z</time>
      </trkpt>
      <trkpt lat="59.9561566" lon="17.7187265">
        <ele>51.5679</ele>
        <time>2014-06-24T19:00:04Z</time>
      </trkpt>
      <trkpt lat="59.9561471" lon="17.718676">
        <ele>51.0872</ele>
        <time>2014-06-24T19:00:05Z</time>
      </trkpt>
      <trkpt lat="59.9561412" lon="17.7186263">
        <ele>50.6066</ele>
        <time>2014-06-24T19:00:06Z</time>
      </trkpt>
      <trkpt lat="59.9561338" lon="17.7185832">
        <ele>50.126</ele>
        <time>2014-06-24T19:00:07Z</time>
      </trkpt>
      <trkpt lat="59.956126" lon="17.7185495">
        <ele>50.126</ele>
        <time>2014-06-24T19:00:08Z</time>
      </trkpt>
      <trkpt lat="59.9561338" lon="17.7185256">
        <ele>50.6066</ele>
        <time>2014-06-24T19:00:09Z</time>
      </trkpt>
      <trkpt lat="59.9561306" lon="17.7184904">
        <ele>51.0872</ele>
        <time>2014-06-24T19:00:10Z</time>
      </trkpt>
      <trkpt lat="59.9561245" lon="17.7184607">
        <ele>51.0872</ele>
        <time>2014-06-24T19:00:11Z</time>
      </trkpt>
      <trkpt lat="59.9561084" lon="17.7184377">
        <ele>50.6066</ele>
        <time>2014-06-24T19:00:12Z</time>
      </trkpt>
      <trkpt lat="59.9560908" lon="17.7184206">
        <ele>50.6066</ele>
        <time>2014-06-24T19:00:13Z</time>
      </trkpt>
      <trkpt lat="59.9560867" lon="17.7184081">
        <ele>50.6066</ele>
        <time>2014-06-24T19:00:14Z</time>
      </trkpt>
      <trkpt lat="59.9560873" lon="17.7183924">
        <ele>50.126</ele>
        <time>2014-06-24T19:00:15Z</time>
      </trkpt>
      <trkpt lat="59.956089" lon="17.7183738">
        <ele>50.126</ele>
        <time>2014-06-24T19:00:16Z</time>
      </trkpt>
      <trkpt lat="59.9560865" lon="17.718354">
        <ele>50.6066</ele>
        <time>2014-06-24T19:00:17Z</time>
      </trkpt>
      <trkpt lat="59.9560833" lon="17.7183369">
        <ele>50.6066</ele>
        <time>2014-06-24T19:00:18Z</time>
      </trkpt>
      <trkpt lat="59.9560768" lon="17.7183127">
        <ele>50.6066</ele>
        <time>2014-06-24T19:00:19Z</time>
      </trkpt>
      <trkpt lat="59.9560721" lon="17.7182843">
        <ele>50.6066</ele>
        <time>2014-06-24T19:00:20Z</time>
      </trkpt>
      <trkpt lat="59.9560665" lon="17.7182532">
        <ele>50.126</ele>
        <time>2014-06-24T19:00:21Z</time>
      </trkpt>
      <trkpt lat="59.9560587" lon="17.718223">
        <ele>50.126</ele>
        <time>2014-06-24T19:00:22Z</time>
      </trkpt>
      <trkpt lat="59.9560556" lon="17.7181936">
        <ele>50.126</ele>
        <time>2014-06-24T19:00:23Z</time>
      </trkpt>
      <trkpt lat="59.9560531" lon="17.7181774">
        <ele>50.126</ele>
        <time>2014-06-24T19:00:24Z</time>
      </trkpt>
      <trkpt lat="59.9560471" lon="17.7181558">
        <ele>50.126</ele>
        <time>2014-06-24T19:00:25Z</time>
      </trkpt>
      <trkpt lat="59.9560414" lon="17.7181283">
        <ele>50.6066</ele>
        <time>2014-06-24T19:00:26Z</time>
      </trkpt>
      <trkpt lat="59.9560373" lon="17.7181053">
        <ele>50.6066</ele>
        <time>2014-06-24T19:00:27Z</time>
      </trkpt>
      <trkpt lat="59.9560347" lon="17.7180849">
        <ele>50.126</ele>
        <time>2014-06-24T19:00:28Z</time>
      </trkpt>
      <trkpt lat="59.9560393" lon="17.7180682">
        <ele>50.6066</ele>
        <time>2014-06-24T19:00:29Z</time>
      </trkpt>
      <trkpt lat="59.9560359" lon="17.718047">
        <ele>50.126</ele>
        <time>2014-06-24T19:00:30Z</time>
      </trkpt>
      <trkpt lat="59.9560323" lon="17.718032">
        <ele>50.126</ele>
        <time>2014-06-24T19:00:31Z</time>
      </trkpt>
      <trkpt lat="59.9560255" lon="17.7180216">
        <ele>50.6066</ele>
        <time>2014-06-24T19:00:32Z</time>
      </trkpt>
      <trkpt lat="59.9560188" lon="17.7180082">
        <ele>50.126</ele>
        <time>2014-06-24T19:00:33Z</time>
      </trkpt>
      <trkpt lat="59.9560127" lon="17.7179859">
        <ele>50.126</ele>
        <time>2014-06-24T19:00:34Z</time>
      </trkpt>
      <trkpt lat="59.956" lon="17.7179543">
        <ele>49.6453</ele>
        <time>2014-06-24T19:00:35Z</time>
      </trkpt>
      <trkpt lat="59.9559852" lon="17.7179233">
        <ele>49.1646</ele>
        <time>2014-06-24T19:00:36Z</time>
      </trkpt>
      <trkpt lat="59.9559714" lon="17.717901">
        <ele>49.1646</ele>
        <time>2014-06-24T19:00:37Z</time>
      </trkpt>
      <trkpt lat="59.9559623" lon="17.7178844">
        <ele>48.684</ele>
        <time>2014-06-24T19:00:38Z</time>
      </trkpt>
      <trkpt lat="59.9559485" lon="17.717863">
        <ele>48.684</ele>
        <time>2014-06-24T19:00:39Z</time>
      </trkpt>
      <trkpt lat="59.9559338" lon="17.7178387">
        <ele>48.2034</ele>
        <time>2014-06-24T19:00:40Z</time>
      </trkpt>
      <trkpt lat="59.9559169" lon="17.7178077">
        <ele>49.1646</ele>
        <time>2014-06-24T19:00:41Z</time>
      </trkpt>
      <trkpt lat="59.9558964" lon="17.7177662">
        <ele>49.6453</ele>
        <time>2014-06-24T19:00:42Z</time>
      </trkpt>
      <trkpt lat="59.9558894" lon="17.7177382">
        <ele>49.6453</ele>
        <time>2014-06-24T19:00:43Z</time>
      </trkpt>
      <trkpt lat="59.9558852" lon="17.7177186">
        <ele>49.6453</ele>
        <time>2014-06-24T19:00:44Z</time>
      </trkpt>
      <trkpt lat="59.9558804" lon="17.7176958">
        <ele>50.126</ele>
        <time>2014-06-24T19:00:45Z</time>
      </trkpt>
      <trkpt lat="59.9558756" lon="17.7176697">
        <ele>49.6453</ele>
        <time>2014-06-24T19:00:46Z</time>
      </trkpt>
      <trkpt lat="59.9558758" lon="17.7176506">
        <ele>49.6453</ele>
        <time>2014-06-24T19:00:47Z</time>
      </trkpt>
      <trkpt lat="59.9558681" lon="17.7176248">
        <ele>49.6453</ele>
        <time>2014-06-24T19:00:48Z</time>
      </trkpt>
      <trkpt lat="59.9558571" lon="17.7176031">
        <ele>49.6453</ele>
        <time>2014-06-24T19:00:49Z</time>
      </trkpt>
      <trkpt lat="59.9558433" lon="17.7175832">
        <ele>49.1646</ele>
        <time>2014-06-24T19:00:50Z</time>
      </trkpt>
      <trkpt lat="59.955839" lon="17.7175679">
        <ele>49.6453</ele>
        <time>2014-06-24T19:00:51Z</time>
      </trkpt>
      <trkpt lat="59.9558278" lon="17.7175526">
        <ele>49.1646</ele>
        <time>2014-06-24T19:00:52Z</time>
      </trkpt>
      <trkpt lat="59.9558184" lon="17.7175368">
        <ele>49.6453</ele>
        <time>2014-06-24T19:00:53Z</time>
      </trkpt>
      <trkpt lat="59.9557982" lon="17.7175112">
        <ele>50.126</ele>
        <time>2014-06-24T19:00:54Z</time>
      </trkpt>
      <trkpt lat="59.9557929" lon="17.7174817">
        <ele>50.126</ele>
        <time>2014-06-24T19:00:55Z</time>
      </trkpt>
      <trkpt lat="59.9557935" lon="17.7174543">
        <ele>50.6066</ele>
        <time>2014-06-24T19:00:56Z</time>
      </trkpt>
      <trkpt lat="59.9557862" lon="17.7174224">
        <ele>50.6066</ele>
        <time>2014-06-24T19:00:57Z</time>
      </trkpt>
      <trkpt lat="59.955779" lon="17.7173981">
        <ele>50.126</ele>
        <time>2014-06-24T19:00:58Z</time>
      </trkpt>
      <trkpt lat="59.9557708" lon="17.7173758">
        <ele>49.6453</ele>
        <time>2014-06-24T19:00:59Z</time>
      </trkpt>
      <trkpt lat="59.9557655" lon="17.7173472">
        <ele>50.126</ele>
        <time>2014-06-24T19:01:00Z</time>
      </trkpt>
      <trkpt lat="59.9557602" lon="17.7173167">
        <ele>50.6066</ele>
        <time>2014-06-24T19:01:01Z</time>
      </trkpt>
      <trkpt lat="59.9557514" lon="17.7172846">
        <ele>51.0872</ele>
        <time>2014-06-24T19:01:02Z</time>
      </trkpt>
      <trkpt lat="59.9557421" lon="17.7172571">
        <ele>51.5679</ele>
        <time>2014-06-24T19:01:03Z</time>
      </trkpt>
      <trkpt lat="59.9557246" lon="17.7172281">
        <ele>52.0486</ele>
        <time>2014-06-24T19:01:04Z</time>
      </trkpt>
      <trkpt lat="59.9556992" lon="17.7171963">
        <ele>53.0098</ele>
        <time>2014-06-24T19:01:05Z</time>
      </trkpt>
      <trkpt lat="59.9556765" lon="17.7171587">
        <ele>53.4905</ele>
        <time>2014-06-24T19:01:06Z</time>
      </trkpt>
      <trkpt lat="59.9556674" lon="17.7171244">
        <ele>53.9712</ele>
        <time>2014-06-24T19:01:07Z</time>
      </trkpt>
      <trkpt lat="59.9556589" lon="17.7170923">
        <ele>53.4905</ele>
        <time>2014-06-24T19:01:08Z</time>
      </trkpt>
      <trkpt lat="59.9556515" lon="17.7170586">
        <ele>52.0486</ele>
        <time>2014-06-24T19:01:09Z</time>
      </trkpt>
      <trkpt lat="59.9556435" lon="17.7170222">
        <ele>51.0872</ele>
        <time>2014-06-24T19:01:10Z</time>
      </trkpt>
      <trkpt lat="59.9556418" lon="17.7169799">
        <ele>50.126</ele>
        <time>2014-06-24T19:01:11Z</time>
      </trkpt>
      <trkpt lat="59.9556173" lon="17.7169311">
        <ele>48.684</ele>
        <time>2014-06-24T19:01:12Z</time>
      </trkpt>
      <trkpt lat="59.9555996" lon="17.7168944">
        <ele>48.2034</ele>
        <time>2014-06-24T19:01:13Z</time>
      </trkpt>
      <trkpt lat="59.955582" lon="17.71684">
        <ele>47.2418</ele>
        <time>2014-06-24T19:01:14Z</time>
      </trkpt>
      <trkpt lat="59.9555727" lon="17.7167981">
        <ele>46.2806</ele>
        <time>2014-06-24T19:01:15Z</time>
      </trkpt>
      <trkpt lat="59.9555609" lon="17.7167621">
        <ele>46.2806</ele>
        <time>2014-06-24T19:01:16Z</time>
      </trkpt>
      <trkpt lat="59.9555505" lon="17.716721">
        <ele>46.7612</ele>
        <time>2014-06-24T19:01:17Z</time>
      </trkpt>
      <trkpt lat="59.955539" lon="17.7166753">
        <ele>46.2806</ele>
        <time>2014-06-24T19:01:18Z</time>
      </trkpt>
      <trkpt lat="59.9555285" lon="17.7166266">
        <ele>46.2806</ele>
        <time>2014-06-24T19:01:19Z</time>
      </trkpt>
      <trkpt lat="59.9555201" lon="17.7165852">
        <ele>45.7999</ele>
        <time>2014-06-24T19:01:20Z</time>
      </trkpt>
      <trkpt lat="59.9555228" lon="17.7165432">
        <ele>46.7612</ele>
        <time>2014-06-24T19:01:21Z</time>
      </trkpt>
      <trkpt lat="59.9555229" lon="17.7165079">
        <ele>47.7225</ele>
        <time>2014-06-24T19:01:22Z</time>
      </trkpt>
      <trkpt lat="59.9555132" lon="17.7164622">
        <ele>47.7225</ele>
        <time>2014-06-24T19:01:23Z</time>
      </trkpt>
      <trkpt lat="59.9555104" lon="17.7164268">
        <ele>47.2418</ele>
        <time>2014-06-24T19:01:24Z</time>
      </trkpt>
      <trkpt lat="59.9554951" lon="17.7163933">
        <ele>47.2418</ele>
        <time>2014-06-24T19:01:25Z</time>
      </trkpt>
      <trkpt lat="59.9554771" lon="17.7163675">
        <ele>46.2806</ele>
        <time>2014-06-24T19:01:26Z</time>
      </trkpt>
      <trkpt lat="59.9554707" lon="17.7163371">
        <ele>46.2806</ele>
        <time>2014-06-24T19:01:27Z</time>
      </trkpt>
      <trkpt lat="59.9554594" lon="17.7163107">
        <ele>46.2806</ele>
        <time>2014-06-24T19:01:28Z</time>
      </trkpt>
      <trkpt lat="59.9554718" lon="17.7162907">
        <ele>46.2806</ele>
        <time>2014-06-24T19:01:29Z</time>
      </trkpt>
      <trkpt lat="59.9554914" lon="17.7162635">
        <ele>47.2418</ele>
        <time>2014-06-24T19:01:30Z</time>
      </trkpt>
      <trkpt lat="59.9554945" lon="17.7162208">
        <ele>46.7612</ele>
        <time>2014-06-24T19:01:31Z</time>
      </trkpt>
      <trkpt lat="59.9554998" lon="17.7161795">
        <ele>46.2806</ele>
        <time>2014-06-24T19:01:32Z</time>
      </trkpt>
      <trkpt lat="59.9555203" lon="17.7161692">
        <ele>46.7612</ele>
        <time>2014-06-24T19:01:33Z</time>
      </trkpt>
      <trkpt lat="59.95554" lon="17.71618">
        <ele>46.7612</ele>
        <time>2014-06-24T19:01:34Z</time>
      </trkpt>
      <trkpt lat="59.9555464" lon="17.7161677">
        <ele>46.2806</ele>
        <time>2014-06-24T19:01:35Z</time>
      </trkpt>
      <trkpt lat="59.955554" lon="17.7161398">
        <ele>46.2806</ele>
        <time>2014-06-24T19:01:36Z</time>
      </trkpt>
      <trkpt lat="59.9555422" lon="17.7160957">
        <ele>46.2806</ele>
        <time>2014-06-24T19:01:37Z</time>
      </trkpt>
      <trkpt lat="59.9555308" lon="17.7160522">
        <ele>47.2418</ele>
        <time>2014-06-24T19:01:38Z</time>
      </trkpt>
      <trkpt lat="59.9555022" lon="17.7160022">
        <ele>47.2418</ele>
        <time>2014-06-24T19:01:39Z</time>
      </trkpt>
      <trkpt lat="59.9554776" lon="17.7159566">
        <ele>48.2034</ele>
        <time>2014-06-24T19:01:40Z</time>
      </trkpt>
      <trkpt lat="59.9554835" lon="17.7159364">
        <ele>48.2034</ele>
        <time>2014-06-24T19:01:41Z</time>
      </trkpt>
      <trkpt lat="59.9554897" lon="17.7159246">
        <ele>48.2034</ele>
        <time>2014-06-24T19:01:42Z</time>
      </trkpt>
      <trkpt lat="59.9554942" lon="17.7159197">
        <ele>48.2034</ele>
        <time>2014-06-24T19:01:43Z</time>
      </trkpt>
      <trkpt lat="59.9554938" lon="17.7159097">
        <ele>48.2034</ele>
        <time>2014-06-24T19:01:44Z</time>
      </trkpt>
      <trkpt lat="59.9554949" lon="17.7158877">
        <ele>47.7225</ele>
        <time>2014-06-24T19:01:45Z</time>
      </trkpt>
      <trkpt lat="59.9554981" lon="17.7158717">
        <ele>47.2418</ele>
        <time>2014-06-24T19:01:46Z</time>
      </trkpt>
      <trkpt lat="59.9554971" lon="17.7158465">
        <ele>46.2806</ele>
        <time>2014-06-24T19:01:47Z</time>
      </trkpt>
      <trkpt lat="59.9554964" lon="17.7158137">
        <ele>45.7999</ele>
        <time>2014-06-24T19:01:48Z</time>
      </trkpt>
      <trkpt lat="59.9555013" lon="17.7157808">
        <ele>44.8386</ele>
        <time>2014-06-24T19:01:49Z</time>
      </trkpt>
      <trkpt lat="59.9555019" lon="17.7157484">
        <ele>44.358</ele>
        <time>2014-06-24T19:01:50Z</time>
      </trkpt>
      <trkpt lat="59.9554949" lon="17.715707">
        <ele>43.3966</ele>
        <time>2014-06-24T19:01:51Z</time>
      </trkpt>
      <trkpt lat="59.9554941" lon="17.7156762">
        <ele>42.916</ele>
        <time>2014-06-24T19:01:52Z</time>
      </trkpt>
      <trkpt lat="59.9554972" lon="17.7156407">
        <ele>42.4354</ele>
        <time>2014-06-24T19:01:53Z</time>
      </trkpt>
      <trkpt lat="59.955499" lon="17.7156023">
        <ele>42.4354</ele>
        <time>2014-06-24T19:01:54Z</time>
      </trkpt>
      <trkpt lat="59.9554933" lon="17.7155606">
        <ele>41.9547</ele>
        <time>2014-06-24T19:01:55Z</time>
      </trkpt>
      <trkpt lat="59.9554882" lon="17.7155177">
        <ele>41.9547</ele>
        <time>2014-06-24T19:01:56Z</time>
      </trkpt>
      <trkpt lat="59.9554848" lon="17.7154787">
        <ele>41.9547</ele>
        <time>2014-06-24T19:01:57Z</time>
      </trkpt>
      <trkpt lat="59.9554765" lon="17.7154387">
        <ele>42.4354</ele>
        <time>2014-06-24T19:01:58Z</time>
      </trkpt>
      <trkpt lat="59.9554784" lon="17.7154132">
        <ele>43.3966</ele>
        <time>2014-06-24T19:01:59Z</time>
      </trkpt>
      <trkpt lat="59.9554723" lon="17.7153744">
        <ele>43.8773</ele>
        <time>2014-06-24T19:02:00Z</time>
      </trkpt>
      <trkpt lat="59.9554452" lon="17.7153114">
        <ele>44.8386</ele>
        <time>2014-06-24T19:02:01Z</time>
      </trkpt>
      <trkpt lat="59.9554319" lon="17.7152679">
        <ele>45.7999</ele>
        <time>2014-06-24T19:02:02Z</time>
      </trkpt>
      <trkpt lat="59.9554351" lon="17.7152434">
        <ele>47.2418</ele>
        <time>2014-06-24T19:02:03Z</time>
      </trkpt>
      <trkpt lat="59.9554298" lon="17.7152198">
        <ele>48.2034</ele>
        <time>2014-06-24T19:02:04Z</time>
      </trkpt>
      <trkpt lat="59.9554199" lon="17.7151772">
        <ele>48.684</ele>
        <time>2014-06-24T19:02:05Z</time>
      </trkpt>
      <trkpt lat="59.9554099" lon="17.7151342">
        <ele>49.1646</ele>
        <time>2014-06-24T19:02:06Z</time>
      </trkpt>
      <trkpt lat="59.9553998" lon="17.7150947">
        <ele>49.1646</ele>
        <time>2014-06-24T19:02:07Z</time>
      </trkpt>
      <trkpt lat="59.9553848" lon="17.7150511">
        <ele>50.126</ele>
        <time>2014-06-24T19:02:08Z</time>
      </trkpt>
      <trkpt lat="59.9553765" lon="17.7150207">
        <ele>50.126</ele>
        <time>2014-06-24T19:02:09Z</time>
      </trkpt>
      <trkpt lat="59.9553822" lon="17.7149971">
        <ele>50.6066</ele>
        <time>2014-06-24T19:02:10Z</time>
      </trkpt>
      <trkpt lat="59.9553723" lon="17.7149643">
        <ele>50.6066</ele>
        <time>2014-06-24T19:02:11Z</time>
      </trkpt>
      <trkpt lat="59.9553599" lon="17.7149295">
        <ele>51.0872</ele>
        <time>2014-06-24T19:02:12Z</time>
      </trkpt>
      <trkpt lat="59.9553402" lon="17.7148919">
        <ele>51.5679</ele>
        <time>2014-06-24T19:02:13Z</time>
      </trkpt>
      <trkpt lat="59.95532" lon="17.7148567">
        <ele>51.5679</ele>
        <time>2014-06-24T19:02:14Z</time>
      </trkpt>
      <trkpt lat="59.9553037" lon="17.7148263">
        <ele>51.0872</ele>
        <time>2014-06-24T19:02:15Z</time>
      </trkpt>
      <trkpt lat="59.9552842" lon="17.7147924">
        <ele>51.5679</ele>
        <time>2014-06-24T19:02:16Z</time>
      </trkpt>
      <trkpt lat="59.9552806" lon="17.7147727">
        <ele>51.5679</ele>
        <time>2014-06-24T19:02:17Z</time>
      </trkpt>
      <trkpt lat="59.9552827" lon="17.7147551">
        <ele>51.5679</ele>
        <time>2014-06-24T19:02:18Z</time>
      </trkpt>
      <trkpt lat="59.9552818" lon="17.7147368">
        <ele>51.0872</ele>
        <time>2014-06-24T19:02:19Z</time>
      </trkpt>
      <trkpt lat="59.955284" lon="17.7147153">
        <ele>51.0872</ele>
        <time>2014-06-24T19:02:20Z</time>
      </trkpt>
      <trkpt lat="59.9552945" lon="17.7146976">
        <ele>51.5679</ele>
        <time>2014-06-24T19:02:21Z</time>
      </trkpt>
      <trkpt lat="59.9553004" lon="17.7146811">
        <ele>50.6066</ele>
        <time>2014-06-24T19:02:22Z</time>
      </trkpt>
      <trkpt lat="59.9553039" lon="17.7146643">
        <ele>51.0872</ele>
        <time>2014-06-24T19:02:23Z</time>
      </trkpt>
      <trkpt lat="59.9553035" lon="17.7146432">
        <ele>50.126</ele>
        <time>2014-06-24T19:02:24Z</time>
      </trkpt>
      <trkpt lat="59.9553003" lon="17.7146126">
        <ele>49.6453</ele>
        <time>2014-06-24T19:02:25Z</time>
      </trkpt>
      <trkpt lat="59.9552961" lon="17.7145846">
        <ele>49.1646</ele>
        <time>2014-06-24T19:02:26Z</time>
      </trkpt>
      <trkpt lat="59.9552956" lon="17.7145603">
        <ele>49.1646</ele>
        <time>2014-06-24T19:02:27Z</time>
      </trkpt>
      <trkpt lat="59.9552992" lon="17.7145409">
        <ele>48.684</ele>
        <time>2014-06-24T19:02:28Z</time>
      </trkpt>
      <trkpt lat="59.9553043" lon="17.7145199">
        <ele>48.2034</ele>
        <time>2014-06-24T19:02:29Z</time>
      </trkpt>
      <trkpt lat="59.955302" lon="17.7144898">
        <ele>48.2034</ele>
        <time>2014-06-24T19:02:30Z</time>
      </trkpt>
      <trkpt lat="59.9553024" lon="17.7144645">
        <ele>48.2034</ele>
        <time>2014-06-24T19:02:31Z</time>
      </trkpt>
      <trkpt lat="59.9552925" lon="17.7144365">
        <ele>48.684</ele>
        <time>2014-06-24T19:02:32Z</time>
      </trkpt>
      <trkpt lat="59.9552923" lon="17.7144169">
        <ele>48.684</ele>
        <time>2014-06-24T19:02:33Z</time>
      </trkpt>
      <trkpt lat="59.9552921" lon="17.7143926">
        <ele>48.2034</ele>
        <time>2014-06-24T19:02:34Z</time>
      </trkpt>
      <trkpt lat="59.9552868" lon="17.7143656">
        <ele>47.2418</ele>
        <time>2014-06-24T19:02:35Z</time>
      </trkpt>
      <trkpt lat="59.9552763" lon="17.7143375">
        <ele>47.2418</ele>
        <time>2014-06-24T19:02:36Z</time>
      </trkpt>
      <trkpt lat="59.9552677" lon="17.7143115">
        <ele>47.7225</ele>
        <time>2014-06-24T19:02:37Z</time>
      </trkpt>
      <trkpt lat="59.9552608" lon="17.7142862">
        <ele>47.7225</ele>
        <time>2014-06-24T19:02:38Z</time>
      </trkpt>
      <trkpt lat="59.9552593" lon="17.7142667">
        <ele>47.7225</ele>
        <time>2014-06-24T19:02:39Z</time>
      </trkpt>
      <trkpt lat="59.9552602" lon="17.7142544">
        <ele>47.2418</ele>
        <time>2014-06-24T19:02:40Z</time>
      </trkpt>
      <trkpt lat="59.9552574" lon="17.7142459">
        <ele>47.2418</ele>
        <time>2014-06-24T19:02:41Z</time>
      </trkpt>
      <trkpt lat="59.955249" lon="17.7142329">
        <ele>46.7612</ele>
        <time>2014-06-24T19:02:42Z</time>
      </trkpt>
      <trkpt lat="59.9552314" lon="17.7142127">
        <ele>46.2806</ele>
        <time>2014-06-24T19:02:43Z</time>
      </trkpt>
      <trkpt lat="59.9552147" lon="17.714204">
        <ele>46.2806</ele>
        <time>2014-06-24T19:02:44Z</time>
      </trkpt>
      <trkpt lat="59.9551977" lon="17.7142137">
        <ele>45.7999</ele>
        <time>2014-06-24T19:02:45Z</time>
      </trkpt>
      <trkpt lat="59.9551833" lon="17.7142302">
        <ele>45.3192</ele>
        <time>2014-06-24T19:02:46Z</time>
      </trkpt>
      <trkpt lat="59.9551683" lon="17.7142421">
        <ele>45.3192</ele>
        <time>2014-06-24T19:02:47Z</time>
      </trkpt>
      <trkpt lat="59.9551561" lon="17.7142597">
        <ele>44.358</ele>
        <time>2014-06-24T19:02:48Z</time>
      </trkpt>
      <trkpt lat="59.9551476" lon="17.7142871">
        <ele>44.358</ele>
        <time>2014-06-24T19:02:49Z</time>
      </trkpt>
      <trkpt lat="59.9551427" lon="17.7143133">
        <ele>43.3966</ele>
        <time>2014-06-24T19:02:50Z</time>
      </trkpt>
      <trkpt lat="59.9551362" lon="17.7143389">
        <ele>42.916</ele>
        <time>2014-06-24T19:02:51Z</time>
      </trkpt>
      <trkpt lat="59.9551267" lon="17.7143643">
        <ele>42.916</ele>
        <time>2014-06-24T19:02:52Z</time>
      </trkpt>
      <trkpt lat="59.9551134" lon="17.7143747">
        <ele>42.916</ele>
        <time>2014-06-24T19:02:53Z</time>
      </trkpt>
      <trkpt lat="59.9550983" lon="17.7143803">
        <ele>43.3966</ele>
        <time>2014-06-24T19:02:54Z</time>
      </trkpt>
      <trkpt lat="59.9550841" lon="17.7143951">
        <ele>42.916</ele>
        <time>2014-06-24T19:02:55Z</time>
      </trkpt>
      <trkpt lat="59.9550703" lon="17.7144127">
        <ele>42.916</ele>
        <time>2014-06-24T19:02:56Z</time>
      </trkpt>
      <trkpt lat="59.9550575" lon="17.7144323">
        <ele>42.916</ele>
        <time>2014-06-24T19:02:57Z</time>
      </trkpt>
      <trkpt lat="59.9550463" lon="17.7144477">
        <ele>42.916</ele>
        <time>2014-06-24T19:02:58Z</time>
      </trkpt>
      <trkpt lat="59.9550346" lon="17.714464">
        <ele>42.916</ele>
        <time>2014-06-24T19:02:59Z</time>
      </trkpt>
      <trkpt lat="59.9550227" lon="17.7144883">
        <ele>43.3966</ele>
        <time>2014-06-24T19:03:00Z</time>
      </trkpt>
      <trkpt lat="59.9550111" lon="17.7145067">
        <ele>42.916</ele>
        <time>2014-06-24T19:03:01Z</time>
      </trkpt>
      <trkpt lat="59.9549957" lon="17.7145259">
        <ele>42.916</ele>
        <time>2014-06-24T19:03:02Z</time>
      </trkpt>
      <trkpt lat="59.9549801" lon="17.7145438">
        <ele>42.916</ele>
        <time>2014-06-24T19:03:03Z</time>
      </trkpt>
      <trkpt lat="59.9549677" lon="17.714559">
        <ele>43.3966</ele>
        <time>2014-06-24T19:03:04Z</time>
      </trkpt>
      <trkpt lat="59.9549548" lon="17.7145795">
        <ele>43.3966</ele>
        <time>2014-06-24T19:03:05Z</time>
      </trkpt>
      <trkpt lat="59.9549402" lon="17.7145991">
        <ele>43.3966</ele>
        <time>2014-06-24T19:03:06Z</time>
      </trkpt>
      <trkpt lat="59.9549268" lon="17.7146182">
        <ele>43.8773</ele>
        <time>2014-06-24T19:03:07Z</time>
      </trkpt>
      <trkpt lat="59.954916" lon="17.7146406">
        <ele>43.8773</ele>
        <time>2014-06-24T19:03:08Z</time>
      </trkpt>
      <trkpt lat="59.954908" lon="17.7146632">
        <ele>44.358</ele>
        <time>2014-06-24T19:03:09Z</time>
      </trkpt>
      <trkpt lat="59.9549005" lon="17.7146757">
        <ele>43.8773</ele>
        <time>2014-06-24T19:03:10Z</time>
      </trkpt>
      <trkpt lat="59.9548881" lon="17.714695">
        <ele>44.358</ele>
        <time>2014-06-24T19:03:11Z</time>
      </trkpt>
      <trkpt lat="59.9548691" lon="17.7147125">
        <ele>45.3192</ele>
        <time>2014-06-24T19:03:12Z</time>
      </trkpt>
      <trkpt lat="59.9548459" lon="17.7147219">
        <ele>46.2806</ele>
        <time>2014-06-24T19:03:13Z</time>
      </trkpt>
      <trkpt lat="59.9548261" lon="17.7147293">
        <ele>46.2806</ele>
        <time>2014-06-24T19:03:14Z</time>
      </trkpt>
      <trkpt lat="59.9548148" lon="17.7147391">
        <ele>46.2806</ele>
        <time>2014-06-24T19:03:15Z</time>
      </trkpt>
      <trkpt lat="59.9547997" lon="17.7147512">
        <ele>46.7612</ele>
        <time>2014-06-24T19:03:16Z</time>
      </trkpt>
      <trkpt lat="59.9547741" lon="17.7147609">
        <ele>46.2806</ele>
        <time>2014-06-24T19:03:17Z</time>
      </trkpt>
      <trkpt lat="59.9547542" lon="17.714768">
        <ele>45.7999</ele>
        <time>2014-06-24T19:03:18Z</time>
      </trkpt>
      <trkpt lat="59.9547389" lon="17.7147719">
        <ele>46.2806</ele>
        <time>2014-06-24T19:03:19Z</time>
      </trkpt>
      <trkpt lat="59.9547334" lon="17.7147754">
        <ele>47.2418</ele>
        <time>2014-06-24T19:03:20Z</time>
      </trkpt>
      <trkpt lat="59.9547256" lon="17.7147778">
        <ele>48.2034</ele>
        <time>2014-06-24T19:03:21Z</time>
      </trkpt>
      <trkpt lat="59.9547143" lon="17.7147831">
        <ele>48.2034</ele>
        <time>2014-06-24T19:03:22Z</time>
      </trkpt>
      <trkpt lat="59.9547014" lon="17.7147916">
        <ele>48.2034</ele>
        <time>2014-06-24T19:03:23Z</time>
      </trkpt>
      <trkpt lat="59.9546884" lon="17.7148002">
        <ele>48.684</ele>
        <time>2014-06-24T19:03:24Z</time>
      </trkpt>
      <trkpt lat="59.9546783" lon="17.7148075">
        <ele>48.2034</ele>
        <time>2014-06-24T19:03:25Z</time>
      </trkpt>
      <trkpt lat="59.9546661" lon="17.7148146">
        <ele>48.684</ele>
        <time>2014-06-24T19:03:26Z</time>
      </trkpt>
      <trkpt lat="59.9546541" lon="17.7148181">
        <ele>48.2034</ele>
        <time>2014-06-24T19:03:27Z</time>
      </trkpt>
      <trkpt lat="59.9546233" lon="17.7148089">
        <ele>49.1646</ele>
        <time>2014-06-24T19:03:28Z</time>
      </trkpt>
      <trkpt lat="59.9545936" lon="17.7147963">
        <ele>49.6453</ele>
        <time>2014-06-24T19:03:29Z</time>
      </trkpt>
      <trkpt lat="59.9545808" lon="17.7147944">
        <ele>49.6453</ele>
        <time>2014-06-24T19:03:30Z</time>
      </trkpt>
      <trkpt lat="59.9545747" lon="17.7148067">
        <ele>50.126</ele>
        <time>2014-06-24T19:03:31Z</time>
      </trkpt>
      <trkpt lat="59.9545689" lon="17.7148158">
        <ele>49.6453</ele>
        <time>2014-06-24T19:03:32Z</time>
      </trkpt>
      <trkpt lat="59.95455" lon="17.7148219">
        <ele>49.6453</ele>
        <time>2014-06-24T19:03:33Z</time>
      </trkpt>
      <trkpt lat="59.9545336" lon="17.7148224">
        <ele>50.126</ele>
        <time>2014-06-24T19:03:34Z</time>
      </trkpt>
      <trkpt lat="59.9545098" lon="17.7148229">
        <ele>50.126</ele>
        <time>2014-06-24T19:03:35Z</time>
      </trkpt>
      <trkpt lat="59.9544876" lon="17.7148214">
        <ele>50.126</ele>
        <time>2014-06-24T19:03:36Z</time>
      </trkpt>
      <trkpt lat="59.9544678" lon="17.7148224">
        <ele>50.126</ele>
        <time>2014-06-24T19:03:37Z</time>
      </trkpt>
      <trkpt lat="59.9544488" lon="17.7148215">
        <ele>50.126</ele>
        <time>2014-06-24T19:03:38Z</time>
      </trkpt>
      <trkpt lat="59.9544296" lon="17.7148217">
        <ele>50.6066</ele>
        <time>2014-06-24T19:03:39Z</time>
      </trkpt>
      <trkpt lat="59.9544081" lon="17.7148206">
        <ele>51.0872</ele>
        <time>2014-06-24T19:03:40Z</time>
      </trkpt>
      <trkpt lat="59.9543948" lon="17.7148212">
        <ele>51.5679</ele>
        <time>2014-06-24T19:03:41Z</time>
      </trkpt>
      <trkpt lat="59.9543829" lon="17.7148329">
        <ele>52.0486</ele>
        <time>2014-06-24T19:03:42Z</time>
      </trkpt>
      <trkpt lat="59.9543701" lon="17.7148399">
        <ele>52.5292</ele>
        <time>2014-06-24T19:03:43Z</time>
      </trkpt>
      <trkpt lat="59.9543545" lon="17.7148526">
        <ele>52.5292</ele>
        <time>2014-06-24T19:03:44Z</time>
      </trkpt>
      <trkpt lat="59.9543376" lon="17.7148637">
        <ele>52.5292</ele>
        <time>2014-06-24T19:03:45Z</time>
      </trkpt>
      <trkpt lat="59.9543202" lon="17.7148717">
        <ele>52.5292</ele>
        <time>2014-06-24T19:03:46Z</time>
      </trkpt>
      <trkpt lat="59.9543045" lon="17.7148742">
        <ele>52.0486</ele>
        <time>2014-06-24T19:03:47Z</time>
      </trkpt>
      <trkpt lat="59.9542906" lon="17.7148784">
        <ele>51.5679</ele>
        <time>2014-06-24T19:03:48Z</time>
      </trkpt>
      <trkpt lat="59.9542776" lon="17.7148926">
        <ele>52.5292</ele>
        <time>2014-06-24T19:03:49Z</time>
      </trkpt>
      <trkpt lat="59.9542627" lon="17.7149089">
        <ele>53.4905</ele>
        <time>2014-06-24T19:03:50Z</time>
      </trkpt>
      <trkpt lat="59.9542486" lon="17.7149232">
        <ele>53.9712</ele>
        <time>2014-06-24T19:03:51Z</time>
      </trkpt>
      <trkpt lat="59.9542301" lon="17.71493">
        <ele>53.9712</ele>
        <time>2014-06-24T19:03:52Z</time>
      </trkpt>
      <trkpt lat="59.9542181" lon="17.7149448">
        <ele>53.9712</ele>
        <time>2014-06-24T19:03:53Z</time>
      </trkpt>
      <trkpt lat="59.9542016" lon="17.7149514">
        <ele>53.9712</ele>
        <time>2014-06-24T19:03:54Z</time>
      </trkpt>
      <trkpt lat="59.9541841" lon="17.7149623">
        <ele>54.4518</ele>
        <time>2014-06-24T19:03:55Z</time>
      </trkpt>
      <trkpt lat="59.9541629" lon="17.7149655">
        <ele>54.4518</ele>
        <time>2014-06-24T19:03:56Z</time>
      </trkpt>
      <trkpt lat="59.9541415" lon="17.7149648">
        <ele>55.4131</ele>
        <time>2014-06-24T19:03:57Z</time>
      </trkpt>
      <trkpt lat="59.9541166" lon="17.7149456">
        <ele>55.8938</ele>
        <time>2014-06-24T19:03:58Z</time>
      </trkpt>
      <trkpt lat="59.9541077" lon="17.7149493">
        <ele>55.8938</ele>
        <time>2014-06-24T19:03:59Z</time>
      </trkpt>
      <trkpt lat="59.9540973" lon="17.7149581">
        <ele>56.8551</ele>
        <time>2014-06-24T19:04:00Z</time>
      </trkpt>
      <trkpt lat="59.954087" lon="17.7149646">
        <ele>56.3745</ele>
        <time>2014-06-24T19:04:01Z</time>
      </trkpt>
      <trkpt lat="59.9540733" lon="17.7149576">
        <ele>56.3745</ele>
        <time>2014-06-24T19:04:02Z</time>
      </trkpt>
      <trkpt lat="59.9540592" lon="17.7149519">
        <ele>56.3745</ele>
        <time>2014-06-24T19:04:03Z</time>
      </trkpt>
      <trkpt lat="59.9540448" lon="17.7149374">
        <ele>56.3745</ele>
        <time>2014-06-24T19:04:04Z</time>
      </trkpt>
      <trkpt lat="59.9540235" lon="17.7149239">
        <ele>57.3358</ele>
        <time>2014-06-24T19:04:05Z</time>
      </trkpt>
      <trkpt lat="59.9540002" lon="17.7149222">
        <ele>57.8165</ele>
        <time>2014-06-24T19:04:06Z</time>
      </trkpt>
      <trkpt lat="59.9539665" lon="17.7149114">
        <ele>57.3358</ele>
        <time>2014-06-24T19:04:07Z</time>
      </trkpt>
      <trkpt lat="59.9539271" lon="17.7148752">
        <ele>56.8551</ele>
        <time>2014-06-24T19:04:08Z</time>
      </trkpt>
      <trkpt lat="59.9539054" lon="17.7148341">
        <ele>57.3358</ele>
        <time>2014-06-24T19:04:09Z</time>
      </trkpt>
      <trkpt lat="59.9539147" lon="17.714803">
        <ele>57.3358</ele>
        <time>2014-06-24T19:04:10Z</time>
      </trkpt>
      <trkpt lat="59.9539332" lon="17.7147929">
        <ele>57.3358</ele>
        <time>2014-06-24T19:04:11Z</time>
      </trkpt>
      <trkpt lat="59.9539564" lon="17.7147837">
        <ele>56.8551</ele>
        <time>2014-06-24T19:04:12Z</time>
      </trkpt>
      <trkpt lat="59.9540032" lon="17.7147937">
        <ele>57.3358</ele>
        <time>2014-06-24T19:04:13Z</time>
      </trkpt>
      <trkpt lat="59.9540277" lon="17.7147996">
        <ele>57.3358</ele>
        <time>2014-06-24T19:04:14Z</time>
      </trkpt>
      <trkpt lat="59.954041" lon="17.714797">
        <ele>57.3358</ele>
        <time>2014-06-24T19:04:15Z</time>
      </trkpt>
      <trkpt lat="59.9540586" lon="17.7148009">
        <ele>56.3745</ele>
        <time>2014-06-24T19:04:16Z</time>
      </trkpt>
      <trkpt lat="59.9540757" lon="17.7148037">
        <ele>55.8938</ele>
        <time>2014-06-24T19:04:17Z</time>
      </trkpt>
      <trkpt lat="59.9540939" lon="17.7148015">
        <ele>54.4518</ele>
        <time>2014-06-24T19:04:18Z</time>
      </trkpt>
      <trkpt lat="59.9541102" lon="17.714807">
        <ele>53.9712</ele>
        <time>2014-06-24T19:04:19Z</time>
      </trkpt>
      <trkpt lat="59.9541358" lon="17.7148227">
        <ele>53.9712</ele>
        <time>2014-06-24T19:04:20Z</time>
      </trkpt>
      <trkpt lat="59.9541658" lon="17.7148108">
        <ele>55.4131</ele>
        <time>2014-06-24T19:04:21Z</time>
      </trkpt>
      <trkpt lat="59.9541936" lon="17.7148005">
        <ele>56.8551</ele>
        <time>2014-06-24T19:04:22Z</time>
      </trkpt>
      <trkpt lat="59.9542115" lon="17.7147938">
        <ele>56.3745</ele>
        <time>2014-06-24T19:04:23Z</time>
      </trkpt>
      <trkpt lat="59.9542227" lon="17.7148098">
        <ele>55.8938</ele>
        <time>2014-06-24T19:04:24Z</time>
      </trkpt>
      <trkpt lat="59.9542283" lon="17.714818">
        <ele>55.4131</ele>
        <time>2014-06-24T19:04:25Z</time>
      </trkpt>
      <trkpt lat="59.9542416" lon="17.7148053">
        <ele>54.4518</ele>
        <time>2014-06-24T19:04:26Z</time>
      </trkpt>
      <trkpt lat="59.9542601" lon="17.7147966">
        <ele>53.9712</ele>
        <time>2014-06-24T19:04:27Z</time>
      </trkpt>
      <trkpt lat="59.954275" lon="17.7148006">
        <ele>53.9712</ele>
        <time>2014-06-24T19:04:28Z</time>
      </trkpt>
      <trkpt lat="59.9542897" lon="17.7147919">
        <ele>53.4905</ele>
        <time>2014-06-24T19:04:29Z</time>
      </trkpt>
      <trkpt lat="59.9543071" lon="17.7147965">
        <ele>53.0098</ele>
        <time>2014-06-24T19:04:30Z</time>
      </trkpt>
      <trkpt lat="59.954324" lon="17.7147921">
        <ele>52.5292</ele>
        <time>2014-06-24T19:04:31Z</time>
      </trkpt>
      <trkpt lat="59.9543367" lon="17.7147779">
        <ele>52.5292</ele>
        <time>2014-06-24T19:04:32Z</time>
      </trkpt>
      <trkpt lat="59.954345" lon="17.7147676">
        <ele>52.0486</ele>
        <time>2014-06-24T19:04:33Z</time>
      </trkpt>
      <trkpt lat="59.954354" lon="17.7147648">
        <ele>51.0872</ele>
        <time>2014-06-24T19:04:34Z</time>
      </trkpt>
      <trkpt lat="59.9543662" lon="17.7147657">
        <ele>50.6066</ele>
        <time>2014-06-24T19:04:35Z</time>
      </trkpt>
      <trkpt lat="59.9543775" lon="17.7147706">
        <ele>50.126</ele>
        <time>2014-06-24T19:04:36Z</time>
      </trkpt>
      <trkpt lat="59.9543967" lon="17.7147679">
        <ele>50.126</ele>
        <time>2014-06-24T19:04:37Z</time>
      </trkpt>
      <trkpt lat="59.9544146" lon="17.7147678">
        <ele>50.126</ele>
        <time>2014-06-24T19:04:38Z</time>
      </trkpt>
      <trkpt lat="59.9544347" lon="17.7147747">
        <ele>50.6066</ele>
        <time>2014-06-24T19:04:39Z</time>
      </trkpt>
      <trkpt lat="59.954453" lon="17.7147787">
        <ele>51.0872</ele>
        <time>2014-06-24T19:04:40Z</time>
      </trkpt>
      <trkpt lat="59.9544656" lon="17.7147714">
        <ele>51.0872</ele>
        <time>2014-06-24T19:04:41Z</time>
      </trkpt>
      <trkpt lat="59.9544788" lon="17.7147658">
        <ele>50.126</ele>
        <time>2014-06-24T19:04:42Z</time>
      </trkpt>
      <trkpt lat="59.9544917" lon="17.7147624">
        <ele>49.1646</ele>
        <time>2014-06-24T19:04:43Z</time>
      </trkpt>
      <trkpt lat="59.9545072" lon="17.7147639">
        <ele>48.684</ele>
        <time>2014-06-24T19:04:44Z</time>
      </trkpt>
      <trkpt lat="59.9545176" lon="17.7147597">
        <ele>48.2034</ele>
        <time>2014-06-24T19:04:45Z</time>
      </trkpt>
      <trkpt lat="59.9545269" lon="17.7147593">
        <ele>48.2034</ele>
        <time>2014-06-24T19:04:46Z</time>
      </trkpt>
      <trkpt lat="59.9545263" lon="17.7147566">
        <ele>48.2034</ele>
        <time>2014-06-24T19:04:47Z</time>
      </trkpt>
      <trkpt lat="59.9545331" lon="17.7147574">
        <ele>47.7225</ele>
        <time>2014-06-24T19:04:48Z</time>
      </trkpt>
      <trkpt lat="59.9545519" lon="17.7147576">
        <ele>45.7999</ele>
        <time>2014-06-24T19:04:49Z</time>
      </trkpt>
      <trkpt lat="59.9545741" lon="17.7147623">
        <ele>45.7999</ele>
        <time>2014-06-24T19:04:50Z</time>
      </trkpt>
      <trkpt lat="59.9545956" lon="17.7147618">
        <ele>45.3192</ele>
        <time>2014-06-24T19:04:51Z</time>
      </trkpt>
      <trkpt lat="59.9546158" lon="17.7147514">
        <ele>45.3192</ele>
        <time>2014-06-24T19:04:52Z</time>
      </trkpt>
      <trkpt lat="59.9546496" lon="17.7147436">
        <ele>46.7612</ele>
        <time>2014-06-24T19:04:53Z</time>
      </trkpt>
      <trkpt lat="59.954689" lon="17.714743">
        <ele>48.684</ele>
        <time>2014-06-24T19:04:54Z</time>
      </trkpt>
      <trkpt lat="59.9547225" lon="17.714744">
        <ele>50.6066</ele>
        <time>2014-06-24T19:04:55Z</time>
      </trkpt>
      <trkpt lat="59.9547384" lon="17.7147406">
        <ele>50.6066</ele>
        <time>2014-06-24T19:04:56Z</time>
      </trkpt>
      <trkpt lat="59.9547546" lon="17.7147378">
        <ele>50.126</ele>
        <time>2014-06-24T19:04:57Z</time>
      </trkpt>
      <trkpt lat="59.9547728" lon="17.7147337">
        <ele>50.126</ele>
        <time>2014-06-24T19:04:58Z</time>
      </trkpt>
      <trkpt lat="59.954803" lon="17.7147282">
        <ele>51.0872</ele>
        <time>2014-06-24T19:04:59Z</time>
      </trkpt>
      <trkpt lat="59.9548294" lon="17.7147209">
        <ele>51.5679</ele>
        <time>2014-06-24T19:05:00Z</time>
      </trkpt>
      <trkpt lat="59.9548534" lon="17.7147205">
        <ele>51.0872</ele>
        <time>2014-06-24T19:05:01Z</time>
      </trkpt>
      <trkpt lat="59.9548833" lon="17.7147153">
        <ele>51.5679</ele>
        <time>2014-06-24T19:05:02Z</time>
      </trkpt>
      <trkpt lat="59.9549106" lon="17.7147082">
        <ele>52.0486</ele>
        <time>2014-06-24T19:05:03Z</time>
      </trkpt>
      <trkpt lat="59.9549315" lon="17.7146987">
        <ele>51.5679</ele>
        <time>2014-06-24T19:05:04Z</time>
      </trkpt>
      <trkpt lat="59.9549495" lon="17.7146803">
        <ele>51.5679</ele>
        <time>2014-06-24T19:05:05Z</time>
      </trkpt>
      <trkpt lat="59.9549603" lon="17.7146658">
        <ele>51.0872</ele>
        <time>2014-06-24T19:05:06Z</time>
      </trkpt>
      <trkpt lat="59.9549784" lon="17.7146535">
        <ele>51.0872</ele>
        <time>2014-06-24T19:05:07Z</time>
      </trkpt>
      <trkpt lat="59.9549963" lon="17.7146402">
        <ele>50.6066</ele>
        <time>2014-06-24T19:05:08Z</time>
      </trkpt>
      <trkpt lat="59.955008" lon="17.7146225">
        <ele>50.126</ele>
        <time>2014-06-24T19:05:09Z</time>
      </trkpt>
      <trkpt lat="59.9550197" lon="17.7146034">
        <ele>50.126</ele>
        <time>2014-06-24T19:05:10Z</time>
      </trkpt>
      <trkpt lat="59.9550256" lon="17.7145903">
        <ele>49.1646</ele>
        <time>2014-06-24T19:05:11Z</time>
      </trkpt>
      <trkpt lat="59.9550307" lon="17.7145753">
        <ele>47.7225</ele>
        <time>2014-06-24T19:05:12Z</time>
      </trkpt>
      <trkpt lat="59.9550355" lon="17.7145545">
        <ele>47.2418</ele>
        <time>2014-06-24T19:05:13Z</time>
      </trkpt>
      <trkpt lat="59.9550366" lon="17.7145302">
        <ele>46.2806</ele>
        <time>2014-06-24T19:05:14Z</time>
      </trkpt>
      <trkpt lat="59.9550437" lon="17.714507">
        <ele>45.7999</ele>
        <time>2014-06-24T19:05:15Z</time>
      </trkpt>
      <trkpt lat="59.9550513" lon="17.7144878">
        <ele>45.3192</ele>
        <time>2014-06-24T19:05:16Z</time>
      </trkpt>
      <trkpt lat="59.9550613" lon="17.7144718">
        <ele>44.8386</ele>
        <time>2014-06-24T19:05:17Z</time>
      </trkpt>
      <trkpt lat="59.9550714" lon="17.7144567">
        <ele>44.358</ele>
        <time>2014-06-24T19:05:18Z</time>
      </trkpt>
      <trkpt lat="59.9550849" lon="17.7144396">
        <ele>44.358</ele>
        <time>2014-06-24T19:05:19Z</time>
      </trkpt>
      <trkpt lat="59.9551007" lon="17.7144267">
        <ele>43.8773</ele>
        <time>2014-06-24T19:05:20Z</time>
      </trkpt>
      <trkpt lat="59.9551189" lon="17.7144209">
        <ele>43.3966</ele>
        <time>2014-06-24T19:05:21Z</time>
      </trkpt>
      <trkpt lat="59.9551323" lon="17.7144137">
        <ele>42.916</ele>
        <time>2014-06-24T19:05:22Z</time>
      </trkpt>
      <trkpt lat="59.9551357" lon="17.7144038">
        <ele>42.916</ele>
        <time>2014-06-24T19:05:23Z</time>
      </trkpt>
      <trkpt lat="59.9551371" lon="17.7143877">
        <ele>42.4354</ele>
        <time>2014-06-24T19:05:24Z</time>
      </trkpt>
      <trkpt lat="59.9551343" lon="17.7143582">
        <ele>41.9547</ele>
        <time>2014-06-24T19:05:25Z</time>
      </trkpt>
      <trkpt lat="59.9551377" lon="17.7143293">
        <ele>41.9547</ele>
        <time>2014-06-24T19:05:26Z</time>
      </trkpt>
      <trkpt lat="59.9551454" lon="17.714298">
        <ele>41.474</ele>
        <time>2014-06-24T19:05:27Z</time>
      </trkpt>
      <trkpt lat="59.9551523" lon="17.7142653">
        <ele>41.474</ele>
        <time>2014-06-24T19:05:28Z</time>
      </trkpt>
      <trkpt lat="59.955162" lon="17.7142361">
        <ele>40.9934</ele>
        <time>2014-06-24T19:05:29Z</time>
      </trkpt>
      <trkpt lat="59.9551735" lon="17.7142076">
        <ele>40.5128</ele>
        <time>2014-06-24T19:05:30Z</time>
      </trkpt>
      <trkpt lat="59.9551858" lon="17.7141871">
        <ele>40.5128</ele>
        <time>2014-06-24T19:05:31Z</time>
      </trkpt>
      <trkpt lat="59.9552009" lon="17.7141754">
        <ele>40.9934</ele>
        <time>2014-06-24T19:05:32Z</time>
      </trkpt>
      <trkpt lat="59.9552164" lon="17.7141669">
        <ele>40.9934</ele>
        <time>2014-06-24T19:05:33Z</time>
      </trkpt>
      <trkpt lat="59.9552295" lon="17.7141854">
        <ele>41.474</ele>
        <time>2014-06-24T19:05:34Z</time>
      </trkpt>
      <trkpt lat="59.9552366" lon="17.7142118">
        <ele>41.9547</ele>
        <time>2014-06-24T19:05:35Z</time>
      </trkpt>
      <trkpt lat="59.9552478" lon="17.7142407">
        <ele>41.9547</ele>
        <time>2014-06-24T19:05:36Z</time>
      </trkpt>
      <trkpt lat="59.9552599" lon="17.7142622">
        <ele>42.4354</ele>
        <time>2014-06-24T19:05:37Z</time>
      </trkpt>
      <trkpt lat="59.9552638" lon="17.7142874">
        <ele>42.4354</ele>
        <time>2014-06-24T19:05:38Z</time>
      </trkpt>
      <trkpt lat="59.9552667" lon="17.7143097">
        <ele>41.9547</ele>
        <time>2014-06-24T19:05:39Z</time>
      </trkpt>
      <trkpt lat="59.9552723" lon="17.7143314">
        <ele>41.9547</ele>
        <time>2014-06-24T19:05:40Z</time>
      </trkpt>
      <trkpt lat="59.955276" lon="17.714355">
        <ele>41.9547</ele>
        <time>2014-06-24T19:05:41Z</time>
      </trkpt>
      <trkpt lat="59.9552795" lon="17.7143789">
        <ele>41.474</ele>
        <time>2014-06-24T19:05:42Z</time>
      </trkpt>
      <trkpt lat="59.9552837" lon="17.7144073">
        <ele>41.9547</ele>
        <time>2014-06-24T19:05:43Z</time>
      </trkpt>
      <trkpt lat="59.9552884" lon="17.7144349">
        <ele>41.9547</ele>
        <time>2014-06-24T19:05:44Z</time>
      </trkpt>
      <trkpt lat="59.9552935" lon="17.7144606">
        <ele>41.474</ele>
        <time>2014-06-24T19:05:45Z</time>
      </trkpt>
      <trkpt lat="59.9553004" lon="17.7144841">
        <ele>41.9547</ele>
        <time>2014-06-24T19:05:46Z</time>
      </trkpt>
      <trkpt lat="59.955307" lon="17.7145083">
        <ele>41.9547</ele>
        <time>2014-06-24T19:05:47Z</time>
      </trkpt>
      <trkpt lat="59.9553106" lon="17.714534">
        <ele>41.474</ele>
        <time>2014-06-24T19:05:48Z</time>
      </trkpt>
      <trkpt lat="59.9553151" lon="17.7145591">
        <ele>41.474</ele>
        <time>2014-06-24T19:05:49Z</time>
      </trkpt>
      <trkpt lat="59.9553193" lon="17.7145915">
        <ele>41.9547</ele>
        <time>2014-06-24T19:05:50Z</time>
      </trkpt>
      <trkpt lat="59.9553183" lon="17.7146162">
        <ele>41.9547</ele>
        <time>2014-06-24T19:05:51Z</time>
      </trkpt>
      <trkpt lat="59.9553198" lon="17.7146371">
        <ele>41.9547</ele>
        <time>2014-06-24T19:05:52Z</time>
      </trkpt>
      <trkpt lat="59.9553248" lon="17.714664">
        <ele>42.4354</ele>
        <time>2014-06-24T19:05:53Z</time>
      </trkpt>
      <trkpt lat="59.95534" lon="17.7146942">
        <ele>42.916</ele>
        <time>2014-06-24T19:05:54Z</time>
      </trkpt>
      <trkpt lat="59.9553527" lon="17.7147219">
        <ele>43.8773</ele>
        <time>2014-06-24T19:05:55Z</time>
      </trkpt>
      <trkpt lat="59.9553636" lon="17.7147468">
        <ele>44.358</ele>
        <time>2014-06-24T19:05:56Z</time>
      </trkpt>
      <trkpt lat="59.9553692" lon="17.7147742">
        <ele>44.358</ele>
        <time>2014-06-24T19:05:57Z</time>
      </trkpt>
      <trkpt lat="59.9553749" lon="17.7147994">
        <ele>44.358</ele>
        <time>2014-06-24T19:05:58Z</time>
      </trkpt>
      <trkpt lat="59.9553811" lon="17.7148274">
        <ele>43.8773</ele>
        <time>2014-06-24T19:05:59Z</time>
      </trkpt>
      <trkpt lat="59.9553899" lon="17.7148572">
        <ele>44.358</ele>
        <time>2014-06-24T19:06:00Z</time>
      </trkpt>
      <trkpt lat="59.9554059" lon="17.7148906">
        <ele>44.358</ele>
        <time>2014-06-24T19:06:01Z</time>
      </trkpt>
      <trkpt lat="59.95542" lon="17.7149287">
        <ele>44.358</ele>
        <time>2014-06-24T19:06:02Z</time>
      </trkpt>
      <trkpt lat="59.955423" lon="17.714956">
        <ele>43.8773</ele>
        <time>2014-06-24T19:06:03Z</time>
      </trkpt>
      <trkpt lat="59.9554251" lon="17.7149825">
        <ele>44.358</ele>
        <time>2014-06-24T19:06:04Z</time>
      </trkpt>
      <trkpt lat="59.9554267" lon="17.7150061">
        <ele>43.3966</ele>
        <time>2014-06-24T19:06:05Z</time>
      </trkpt>
      <trkpt lat="59.9554332" lon="17.7150337">
        <ele>43.8773</ele>
        <time>2014-06-24T19:06:06Z</time>
      </trkpt>
      <trkpt lat="59.9554426" lon="17.7150601">
        <ele>43.8773</ele>
        <time>2014-06-24T19:06:07Z</time>
      </trkpt>
      <trkpt lat="59.9554501" lon="17.7150866">
        <ele>43.8773</ele>
        <time>2014-06-24T19:06:08Z</time>
      </trkpt>
      <trkpt lat="59.9554562" lon="17.7151135">
        <ele>44.358</ele>
        <time>2014-06-24T19:06:09Z</time>
      </trkpt>
      <trkpt lat="59.955466" lon="17.7151435">
        <ele>44.8386</ele>
        <time>2014-06-24T19:06:10Z</time>
      </trkpt>
      <trkpt lat="59.9554734" lon="17.715177">
        <ele>45.7999</ele>
        <time>2014-06-24T19:06:11Z</time>
      </trkpt>
      <trkpt lat="59.955477" lon="17.7152072">
        <ele>46.2806</ele>
        <time>2014-06-24T19:06:12Z</time>
      </trkpt>
      <trkpt lat="59.9554737" lon="17.7152304">
        <ele>46.2806</ele>
        <time>2014-06-24T19:06:13Z</time>
      </trkpt>
      <trkpt lat="59.9554747" lon="17.7152564">
        <ele>46.2806</ele>
        <time>2014-06-24T19:06:14Z</time>
      </trkpt>
      <trkpt lat="59.9554769" lon="17.7152825">
        <ele>46.2806</ele>
        <time>2014-06-24T19:06:15Z</time>
      </trkpt>
      <trkpt lat="59.9554809" lon="17.7153123">
        <ele>46.7612</ele>
        <time>2014-06-24T19:06:16Z</time>
      </trkpt>
      <trkpt lat="59.9554852" lon="17.7153409">
        <ele>46.7612</ele>
        <time>2014-06-24T19:06:17Z</time>
      </trkpt>
      <trkpt lat="59.9554854" lon="17.7153661">
        <ele>47.2418</ele>
        <time>2014-06-24T19:06:18Z</time>
      </trkpt>
      <trkpt lat="59.955484" lon="17.7153938">
        <ele>46.7612</ele>
        <time>2014-06-24T19:06:19Z</time>
      </trkpt>
      <trkpt lat="59.9554814" lon="17.7154163">
        <ele>45.7999</ele>
        <time>2014-06-24T19:06:20Z</time>
      </trkpt>
      <trkpt lat="59.9554816" lon="17.7154433">
        <ele>45.7999</ele>
        <time>2014-06-24T19:06:21Z</time>
      </trkpt>
      <trkpt lat="59.9554822" lon="17.7154689">
        <ele>45.7999</ele>
        <time>2014-06-24T19:06:22Z</time>
      </trkpt>
      <trkpt lat="59.9554832" lon="17.7154964">
        <ele>45.7999</ele>
        <time>2014-06-24T19:06:23Z</time>
      </trkpt>
      <trkpt lat="59.9554752" lon="17.7155161">
        <ele>45.7999</ele>
        <time>2014-06-24T19:06:24Z</time>
      </trkpt>
      <trkpt lat="59.9554701" lon="17.7155417">
        <ele>46.2806</ele>
        <time>2014-06-24T19:06:25Z</time>
      </trkpt>
      <trkpt lat="59.955464" lon="17.7155677">
        <ele>46.7612</ele>
        <time>2014-06-24T19:06:26Z</time>
      </trkpt>
      <trkpt lat="59.9554644" lon="17.7155977">
        <ele>46.7612</ele>
        <time>2014-06-24T19:06:27Z</time>
      </trkpt>
      <trkpt lat="59.9554676" lon="17.7156351">
        <ele>47.7225</ele>
        <time>2014-06-24T19:06:28Z</time>
      </trkpt>
      <trkpt lat="59.9554769" lon="17.7156632">
        <ele>47.7225</ele>
        <time>2014-06-24T19:06:29Z</time>
      </trkpt>
      <trkpt lat="59.9554857" lon="17.7156915">
        <ele>47.7225</ele>
        <time>2014-06-24T19:06:30Z</time>
      </trkpt>
      <trkpt lat="59.9554835" lon="17.715733">
        <ele>48.684</ele>
        <time>2014-06-24T19:06:31Z</time>
      </trkpt>
      <trkpt lat="59.9554822" lon="17.7157701">
        <ele>50.126</ele>
        <time>2014-06-24T19:06:32Z</time>
      </trkpt>
      <trkpt lat="59.9554835" lon="17.7158365">
        <ele>51.5679</ele>
        <time>2014-06-24T19:06:34Z</time>
      </trkpt>
      <trkpt lat="59.9554864" lon="17.7158615">
        <ele>51.5679</ele>
        <time>2014-06-24T19:06:35Z</time>
      </trkpt>
      <trkpt lat="59.9554954" lon="17.7159035">
        <ele>53.9712</ele>
        <time>2014-06-24T19:06:36Z</time>
      </trkpt>
      <trkpt lat="59.9554976" lon="17.715937">
        <ele>55.4131</ele>
        <time>2014-06-24T19:06:37Z</time>
      </trkpt>
      <trkpt lat="59.955499" lon="17.715981">
        <ele>57.3358</ele>
        <time>2014-06-24T19:06:38Z</time>
      </trkpt>
      <trkpt lat="59.9555021" lon="17.7160147">
        <ele>57.8165</ele>
        <time>2014-06-24T19:06:39Z</time>
      </trkpt>
      <trkpt lat="59.9555048" lon="17.716044">
        <ele>57.8165</ele>
        <time>2014-06-24T19:06:40Z</time>
      </trkpt>
      <trkpt lat="59.955508" lon="17.7160842">
        <ele>59.2584</ele>
        <time>2014-06-24T19:06:41Z</time>
      </trkpt>
      <trkpt lat="59.9555078" lon="17.7161307">
        <ele>61.181</ele>
        <time>2014-06-24T19:06:42Z</time>
      </trkpt>
      <trkpt lat="59.9555056" lon="17.7161738">
        <ele>63.1036</ele>
        <time>2014-06-24T19:06:43Z</time>
      </trkpt>
      <trkpt lat="59.9555068" lon="17.7162003">
        <ele>63.1036</ele>
        <time>2014-06-24T19:06:44Z</time>
      </trkpt>
      <trkpt lat="59.955512" lon="17.7162309">
        <ele>63.1036</ele>
        <time>2014-06-24T19:06:45Z</time>
      </trkpt>
      <trkpt lat="59.9555156" lon="17.7162636">
        <ele>63.5844</ele>
        <time>2014-06-24T19:06:46Z</time>
      </trkpt>
      <trkpt lat="59.9555113" lon="17.7162867">
        <ele>63.5844</ele>
        <time>2014-06-24T19:06:47Z</time>
      </trkpt>
      <trkpt lat="59.9555187" lon="17.7163127">
        <ele>64.0651</ele>
        <time>2014-06-24T19:06:48Z</time>
      </trkpt>
      <trkpt lat="59.9555272" lon="17.716349">
        <ele>65.5071</ele>
        <time>2014-06-24T19:06:49Z</time>
      </trkpt>
      <trkpt lat="59.9555375" lon="17.7163785">
        <ele>65.9877</ele>
        <time>2014-06-24T19:06:50Z</time>
      </trkpt>
      <trkpt lat="59.9555392" lon="17.7163986">
        <ele>65.0264</ele>
        <time>2014-06-24T19:06:51Z</time>
      </trkpt>
      <trkpt lat="59.9555437" lon="17.7164297">
        <ele>65.9877</ele>
        <time>2014-06-24T19:06:52Z</time>
      </trkpt>
      <trkpt lat="59.9555427" lon="17.716456">
        <ele>65.5071</ele>
        <time>2014-06-24T19:06:53Z</time>
      </trkpt>
      <trkpt lat="59.9555436" lon="17.7164785">
        <ele>65.5071</ele>
        <time>2014-06-24T19:06:54Z</time>
      </trkpt>
      <trkpt lat="59.9555448" lon="17.7164829">
        <ele>64.0651</ele>
        <time>2014-06-24T19:06:55Z</time>
      </trkpt>
      <trkpt lat="59.9555504" lon="17.7164643">
        <ele>62.6229</ele>
        <time>2014-06-24T19:06:56Z</time>
      </trkpt>
      <trkpt lat="59.9555565" lon="17.7164256">
        <ele>61.181</ele>
        <time>2014-06-24T19:06:57Z</time>
      </trkpt>
      <trkpt lat="59.9555708" lon="17.7163769">
        <ele>59.7391</ele>
        <time>2014-06-24T19:06:58Z</time>
      </trkpt>
      <trkpt lat="59.9555961" lon="17.7163199">
        <ele>58.7777</ele>
        <time>2014-06-24T19:06:59Z</time>
      </trkpt>
      <trkpt lat="59.9556154" lon="17.7162625">
        <ele>57.3358</ele>
        <time>2014-06-24T19:07:00Z</time>
      </trkpt>
      <trkpt lat="59.9556179" lon="17.7161983">
        <ele>56.8551</ele>
        <time>2014-06-24T19:07:01Z</time>
      </trkpt>
      <trkpt lat="59.9556157" lon="17.7161438">
        <ele>55.4131</ele>
        <time>2014-06-24T19:07:02Z</time>
      </trkpt>
      <trkpt lat="59.9556112" lon="17.716081">
        <ele>53.9712</ele>
        <time>2014-06-24T19:07:03Z</time>
      </trkpt>
      <trkpt lat="59.9556233" lon="17.7160338">
        <ele>53.4905</ele>
        <time>2014-06-24T19:07:04Z</time>
      </trkpt>
      <trkpt lat="59.9556215" lon="17.715972">
        <ele>52.5292</ele>
        <time>2014-06-24T19:07:05Z</time>
      </trkpt>
      <trkpt lat="59.9556143" lon="17.7158947">
        <ele>51.5679</ele>
        <time>2014-06-24T19:07:06Z</time>
      </trkpt>
      <trkpt lat="59.9556169" lon="17.7158413">
        <ele>50.6066</ele>
        <time>2014-06-24T19:07:07Z</time>
      </trkpt>
      <trkpt lat="59.9556052" lon="17.7157689">
        <ele>49.6453</ele>
        <time>2014-06-24T19:07:08Z</time>
      </trkpt>
      <trkpt lat="59.9555941" lon="17.7156928">
        <ele>48.684</ele>
        <time>2014-06-24T19:07:09Z</time>
      </trkpt>
      <trkpt lat="59.9555819" lon="17.7156232">
        <ele>47.7225</ele>
        <time>2014-06-24T19:07:10Z</time>
      </trkpt>
      <trkpt lat="59.9555718" lon="17.7155808">
        <ele>48.2034</ele>
        <time>2014-06-24T19:07:11Z</time>
      </trkpt>
      <trkpt lat="59.9555724" lon="17.7155419">
        <ele>48.2034</ele>
        <time>2014-06-24T19:07:12Z</time>
      </trkpt>
      <trkpt lat="59.9555696" lon="17.7154853">
        <ele>47.2418</ele>
        <time>2014-06-24T19:07:13Z</time>
      </trkpt>
      <trkpt lat="59.9555624" lon="17.715416">
        <ele>46.7612</ele>
        <time>2014-06-24T19:07:14Z</time>
      </trkpt>
      <trkpt lat="59.9555501" lon="17.7153443">
        <ele>46.2806</ele>
        <time>2014-06-24T19:07:15Z</time>
      </trkpt>
      <trkpt lat="59.9555359" lon="17.7152846">
        <ele>46.7612</ele>
        <time>2014-06-24T19:07:16Z</time>
      </trkpt>
      <trkpt lat="59.9555192" lon="17.7152299">
        <ele>46.7612</ele>
        <time>2014-06-24T19:07:17Z</time>
      </trkpt>
      <trkpt lat="59.9555102" lon="17.715177">
        <ele>46.2806</ele>
        <time>2014-06-24T19:07:18Z</time>
      </trkpt>
      <trkpt lat="59.9554976" lon="17.7151125">
        <ele>45.7999</ele>
        <time>2014-06-24T19:07:19Z</time>
      </trkpt>
      <trkpt lat="59.9554897" lon="17.7150447">
        <ele>46.2806</ele>
        <time>2014-06-24T19:07:20Z</time>
      </trkpt>
      <trkpt lat="59.9554676" lon="17.7149705">
        <ele>46.7612</ele>
        <time>2014-06-24T19:07:21Z</time>
      </trkpt>
    </trkseg>
  </trk>
</gpx>